<?xml version="1.0" encoding="UTF-8"?>
<gpx version="1.1" creator="2bulu-scraper" xmlns="http://www.topografix.com/GPX/1/1">
  <metadata><name>宜宾锦屏山徒步</name><desc>source: 2bulu.com trackId=80025779; exported 2026-08-31T01:51:14.748Z</desc>
    <bounds minlat="28.651502" minlon="104.150266" maxlat="28.677487" maxlon="104.188535"/>
    <link href="https://www.2bulu.com/track/t-wAUx5lf6JRzp%252FR2KBg5Tzw%253D%253D.htm"><text>2bulu 源页面</text></link>
  </metadata>
  <wpt lat="28.657903" lon="104.159172"><ele>717</ele><name></name></wpt>
  <wpt lat="28.657903" lon="104.159172"><ele>717</ele><name></name></wpt>
  <wpt lat="28.660855" lon="104.160339"><ele>753</ele><name></name></wpt>
  <wpt lat="28.660733" lon="104.160561"><ele>762</ele><name></name></wpt>
  <wpt lat="28.663513" lon="104.164817"><ele>809</ele><name></name></wpt>
  <wpt lat="28.666583" lon="104.166092"><ele>802</ele><name></name></wpt>
  <wpt lat="28.666583" lon="104.166503"><ele>802</ele><name></name></wpt>
  <wpt lat="28.667663" lon="104.169097"><ele>813</ele><name></name></wpt>
  <wpt lat="28.66765" lon="104.169647"><ele>817</ele><name></name></wpt>
  <wpt lat="28.669542" lon="104.171408"><ele>842</ele><name></name></wpt>
  <wpt lat="28.672047" lon="104.171013"><ele>857</ele><name></name></wpt>
  <wpt lat="28.673747" lon="104.17273"><ele>873</ele><name></name></wpt>
  <wpt lat="28.67617" lon="104.175063"><ele>900</ele><name></name></wpt>
  <wpt lat="28.675663" lon="104.180612"><ele>961</ele><name></name></wpt>
  <wpt lat="28.674417" lon="104.182297"><ele>958</ele><name></name></wpt>
  <wpt lat="28.674197" lon="104.18293"><ele>969</ele><name></name></wpt>
  <wpt lat="28.674772" lon="104.183638"><ele>980</ele><name></name></wpt>
  <wpt lat="28.676162" lon="104.183563"><ele>971</ele><name></name></wpt>
  <wpt lat="28.67082" lon="104.18853"><ele>969</ele><name></name></wpt>
  <wpt lat="28.670662" lon="104.188492"><ele>970</ele><name></name></wpt>
  <wpt lat="28.665658" lon="104.182525"><ele>935</ele><name></name></wpt>
  <wpt lat="28.66515" lon="104.181953"><ele>933</ele><name></name></wpt>
  <wpt lat="28.662495" lon="104.164414"><ele>803</ele><name></name></wpt>
  <wpt lat="28.660625" lon="104.1606"><ele>763</ele><name></name></wpt>
  <wpt lat="28.658617" lon="104.159233"><ele>725</ele><name></name></wpt>
  <wpt lat="28.657937" lon="104.159164"><ele>718</ele><name></name></wpt>
  <wpt lat="28.659395" lon="104.155708"><ele>672</ele><name></name></wpt>
  <trk><name>宜宾锦屏山徒步</name>
      <trkseg>
        <trkpt lat="28.658128" lon="104.15898"><ele>707.21356</ele><time>2026-03-06T18:17:03.000Z</time></trkpt>
        <trkpt lat="28.658181" lon="104.158981"><ele>708.1958</ele><time>2026-03-06T18:17:14.000Z</time></trkpt>
        <trkpt lat="28.658236" lon="104.158957"><ele>709.5485</ele><time>2026-03-06T18:17:19.000Z</time></trkpt>
        <trkpt lat="28.658301" lon="104.158955"><ele>709.95087</ele><time>2026-03-06T18:17:25.000Z</time></trkpt>
        <trkpt lat="28.658352" lon="104.15897"><ele>710.57</ele><time>2026-03-06T18:17:31.000Z</time></trkpt>
        <trkpt lat="28.658376" lon="104.159016"><ele>711.85864</ele><time>2026-03-06T18:17:36.000Z</time></trkpt>
        <trkpt lat="28.658359" lon="104.159059"><ele>712.97546</ele><time>2026-03-06T18:17:40.000Z</time></trkpt>
        <trkpt lat="28.658299" lon="104.159085"><ele>714.66583</ele><time>2026-03-06T18:17:45.000Z</time></trkpt>
        <trkpt lat="28.658231" lon="104.15911"><ele>716.13556</ele><time>2026-03-06T18:17:51.000Z</time></trkpt>
        <trkpt lat="28.658176" lon="104.159141"><ele>714.7882</ele><time>2026-03-06T18:17:56.000Z</time></trkpt>
        <trkpt lat="28.658123" lon="104.159163"><ele>714.7831</ele><time>2026-03-06T18:18:01.000Z</time></trkpt>
        <trkpt lat="28.658069" lon="104.159176"><ele>715.3254</ele><time>2026-03-06T18:18:07.000Z</time></trkpt>
        <trkpt lat="28.658026" lon="104.159192"><ele>716.2121</ele><time>2026-03-06T18:18:12.000Z</time></trkpt>
        <trkpt lat="28.657978" lon="104.159197"><ele>716.78076</ele><time>2026-03-06T18:18:17.000Z</time></trkpt>
        <trkpt lat="28.65793" lon="104.159197"><ele>717.2813</ele><time>2026-03-06T18:18:22.000Z</time></trkpt>
        <trkpt lat="28.657884" lon="104.159227"><ele>716.39484</ele><time>2026-03-06T18:18:50.000Z</time></trkpt>
        <trkpt lat="28.657917" lon="104.159267"><ele>717.4723</ele><time>2026-03-06T18:18:59.000Z</time></trkpt>
        <trkpt lat="28.657958" lon="104.159295"><ele>719.0587</ele><time>2026-03-06T18:19:07.000Z</time></trkpt>
        <trkpt lat="28.658004" lon="104.159313"><ele>719.20886</ele><time>2026-03-06T18:19:18.000Z</time></trkpt>
        <trkpt lat="28.658044" lon="104.159318"><ele>720.0023</ele><time>2026-03-06T18:19:22.000Z</time></trkpt>
        <trkpt lat="28.658103" lon="104.159335"><ele>721.0217</ele><time>2026-03-06T18:19:26.000Z</time></trkpt>
        <trkpt lat="28.658171" lon="104.159357"><ele>723.2465</ele><time>2026-03-06T18:19:32.000Z</time></trkpt>
        <trkpt lat="28.658215" lon="104.159373"><ele>724.1429</ele><time>2026-03-06T18:19:37.000Z</time></trkpt>
        <trkpt lat="28.658267" lon="104.159377"><ele>723.9894</ele><time>2026-03-06T18:19:42.000Z</time></trkpt>
        <trkpt lat="28.658313" lon="104.159378"><ele>723.58844</ele><time>2026-03-06T18:19:46.000Z</time></trkpt>
        <trkpt lat="28.658358" lon="104.159366"><ele>722.8682</ele><time>2026-03-06T18:19:50.000Z</time></trkpt>
        <trkpt lat="28.658403" lon="104.159351"><ele>723.4825</ele><time>2026-03-06T18:19:54.000Z</time></trkpt>
        <trkpt lat="28.658458" lon="104.159331"><ele>723.2925</ele><time>2026-03-06T18:19:59.000Z</time></trkpt>
        <trkpt lat="28.658503" lon="104.159307"><ele>725.619</ele><time>2026-03-06T18:20:03.000Z</time></trkpt>
        <trkpt lat="28.658554" lon="104.159284"><ele>725.7589</ele><time>2026-03-06T18:20:08.000Z</time></trkpt>
        <trkpt lat="28.658603" lon="104.159261"><ele>724.9173</ele><time>2026-03-06T18:20:14.000Z</time></trkpt>
        <trkpt lat="28.658654" lon="104.159269"><ele>723.7996</ele><time>2026-03-06T18:20:20.000Z</time></trkpt>
        <trkpt lat="28.6587" lon="104.159292"><ele>723.7029</ele><time>2026-03-06T18:20:24.000Z</time></trkpt>
        <trkpt lat="28.658741" lon="104.159323"><ele>723.09814</ele><time>2026-03-06T18:20:28.000Z</time></trkpt>
        <trkpt lat="28.658768" lon="104.159385"><ele>723.499</ele><time>2026-03-06T18:20:33.000Z</time></trkpt>
        <trkpt lat="28.658771" lon="104.159467"><ele>725.2845</ele><time>2026-03-06T18:20:45.000Z</time></trkpt>
        <trkpt lat="28.658774" lon="104.159513"><ele>728.19763</ele><time>2026-03-06T18:20:49.000Z</time></trkpt>
        <trkpt lat="28.658778" lon="104.159576"><ele>730.09503</ele><time>2026-03-06T18:20:55.000Z</time></trkpt>
        <trkpt lat="28.658789" lon="104.159624"><ele>732.77625</ele><time>2026-03-06T18:20:59.000Z</time></trkpt>
        <trkpt lat="28.658792" lon="104.159687"><ele>733.42664</ele><time>2026-03-06T18:21:04.000Z</time></trkpt>
        <trkpt lat="28.658794" lon="104.159753"><ele>732.96655</ele><time>2026-03-06T18:21:09.000Z</time></trkpt>
        <trkpt lat="28.658802" lon="104.159814"><ele>733.59155</ele><time>2026-03-06T18:21:16.000Z</time></trkpt>
        <trkpt lat="28.658797" lon="104.15986"><ele>734.7896</ele><time>2026-03-06T18:21:20.000Z</time></trkpt>
        <trkpt lat="28.658799" lon="104.15991"><ele>734.59467</ele><time>2026-03-06T18:21:24.000Z</time></trkpt>
        <trkpt lat="28.658813" lon="104.159961"><ele>736.02356</ele><time>2026-03-06T18:21:28.000Z</time></trkpt>
        <trkpt lat="28.65885" lon="104.16001"><ele>739.52673</ele><time>2026-03-06T18:21:33.000Z</time></trkpt>
        <trkpt lat="28.658894" lon="104.160032"><ele>740.88025</ele><time>2026-03-06T18:21:37.000Z</time></trkpt>
        <trkpt lat="28.658937" lon="104.160062"><ele>739.3685</ele><time>2026-03-06T18:21:42.000Z</time></trkpt>
        <trkpt lat="28.658989" lon="104.160084"><ele>740.0728</ele><time>2026-03-06T18:21:50.000Z</time></trkpt>
        <trkpt lat="28.65903" lon="104.160092"><ele>742.11456</ele><time>2026-03-06T18:21:54.000Z</time></trkpt>
        <trkpt lat="28.659076" lon="104.160104"><ele>743.3477</ele><time>2026-03-06T18:21:58.000Z</time></trkpt>
        <trkpt lat="28.659135" lon="104.160123"><ele>745.51685</ele><time>2026-03-06T18:22:03.000Z</time></trkpt>
        <trkpt lat="28.659188" lon="104.16014"><ele>746.1595</ele><time>2026-03-06T18:22:08.000Z</time></trkpt>
        <trkpt lat="28.659243" lon="104.160143"><ele>745.58875</ele><time>2026-03-06T18:22:14.000Z</time></trkpt>
        <trkpt lat="28.659283" lon="104.160152"><ele>745.2181</ele><time>2026-03-06T18:22:18.000Z</time></trkpt>
        <trkpt lat="28.659335" lon="104.160165"><ele>745.633</ele><time>2026-03-06T18:22:23.000Z</time></trkpt>
        <trkpt lat="28.659388" lon="104.160177"><ele>743.6618</ele><time>2026-03-06T18:22:28.000Z</time></trkpt>
        <trkpt lat="28.659436" lon="104.160171"><ele>744.2165</ele><time>2026-03-06T18:22:32.000Z</time></trkpt>
        <trkpt lat="28.6595" lon="104.160158"><ele>744.08234</ele><time>2026-03-06T18:22:38.000Z</time></trkpt>
        <trkpt lat="28.659547" lon="104.160157"><ele>743.834</ele><time>2026-03-06T18:22:42.000Z</time></trkpt>
        <trkpt lat="28.659593" lon="104.160171"><ele>743.0736</ele><time>2026-03-06T18:22:46.000Z</time></trkpt>
        <trkpt lat="28.659639" lon="104.160166"><ele>742.849</ele><time>2026-03-06T18:22:50.000Z</time></trkpt>
        <trkpt lat="28.659691" lon="104.160148"><ele>741.40674</ele><time>2026-03-06T18:22:57.000Z</time></trkpt>
        <trkpt lat="28.659721" lon="104.160128"><ele>741.2857</ele><time>2026-03-06T18:23:00.000Z</time></trkpt>
        <trkpt lat="28.659766" lon="104.160131"><ele>743.27094</ele><time>2026-03-06T18:23:04.000Z</time></trkpt>
        <trkpt lat="28.659812" lon="104.160149"><ele>745.0989</ele><time>2026-03-06T18:23:08.000Z</time></trkpt>
        <trkpt lat="28.659859" lon="104.16018"><ele>744.92456</ele><time>2026-03-06T18:23:13.000Z</time></trkpt>
        <trkpt lat="28.659892" lon="104.160222"><ele>743.6873</ele><time>2026-03-06T18:23:18.000Z</time></trkpt>
        <trkpt lat="28.659932" lon="104.160245"><ele>743.16644</ele><time>2026-03-06T18:23:23.000Z</time></trkpt>
        <trkpt lat="28.659981" lon="104.16029"><ele>745.6392</ele><time>2026-03-06T18:23:30.000Z</time></trkpt>
        <trkpt lat="28.660015" lon="104.160326"><ele>744.56006</ele><time>2026-03-06T18:23:35.000Z</time></trkpt>
        <trkpt lat="28.66005" lon="104.160366"><ele>744.6535</ele><time>2026-03-06T18:23:40.000Z</time></trkpt>
        <trkpt lat="28.660086" lon="104.160406"><ele>745.5515</ele><time>2026-03-06T18:23:45.000Z</time></trkpt>
        <trkpt lat="28.660127" lon="104.160436"><ele>747.5192</ele><time>2026-03-06T18:23:49.000Z</time></trkpt>
        <trkpt lat="28.66017" lon="104.160465"><ele>750.1321</ele><time>2026-03-06T18:23:53.000Z</time></trkpt>
        <trkpt lat="28.66022" lon="104.160485"><ele>752.58844</ele><time>2026-03-06T18:23:58.000Z</time></trkpt>
        <trkpt lat="28.660265" lon="104.160496"><ele>753.5054</ele><time>2026-03-06T18:24:02.000Z</time></trkpt>
        <trkpt lat="28.660325" lon="104.160508"><ele>754.26324</ele><time>2026-03-06T18:24:07.000Z</time></trkpt>
        <trkpt lat="28.660371" lon="104.160498"><ele>755.2275</ele><time>2026-03-06T18:24:10.000Z</time></trkpt>
        <trkpt lat="28.66043" lon="104.160469"><ele>756.3911</ele><time>2026-03-06T18:24:15.000Z</time></trkpt>
        <trkpt lat="28.660485" lon="104.160439"><ele>756.635</ele><time>2026-03-06T18:24:21.000Z</time></trkpt>
        <trkpt lat="28.660528" lon="104.160419"><ele>756.80225</ele><time>2026-03-06T18:24:25.000Z</time></trkpt>
        <trkpt lat="28.660581" lon="104.160393"><ele>755.5528</ele><time>2026-03-06T18:24:30.000Z</time></trkpt>
        <trkpt lat="28.660629" lon="104.160374"><ele>754.3837</ele><time>2026-03-06T18:24:35.000Z</time></trkpt>
        <trkpt lat="28.660665" lon="104.160366"><ele>752.7122</ele><time>2026-03-06T18:24:37.000Z</time></trkpt>
        <trkpt lat="28.660739" lon="104.160353"><ele>752.0414</ele><time>2026-03-06T18:24:44.000Z</time></trkpt>
        <trkpt lat="28.66079" lon="104.160346"><ele>752.3361</ele><time>2026-03-06T18:24:49.000Z</time></trkpt>
        <trkpt lat="28.660845" lon="104.160338"><ele>753.39453</ele><time>2026-03-06T18:24:57.000Z</time></trkpt>
        <trkpt lat="28.660892" lon="104.160345"><ele>753.6716</ele><time>2026-03-06T18:25:11.000Z</time></trkpt>
        <trkpt lat="28.660935" lon="104.16033"><ele>753.3401</ele><time>2026-03-06T18:25:17.000Z</time></trkpt>
        <trkpt lat="28.660985" lon="104.160319"><ele>753.5709</ele><time>2026-03-06T18:25:22.000Z</time></trkpt>
        <trkpt lat="28.661039" lon="104.160317"><ele>752.58356</ele><time>2026-03-06T18:25:25.000Z</time></trkpt>
        <trkpt lat="28.661102" lon="104.16029"><ele>752.75757</ele><time>2026-03-06T18:25:37.000Z</time></trkpt>
        <trkpt lat="28.661147" lon="104.160277"><ele>754.5913</ele><time>2026-03-06T18:25:53.000Z</time></trkpt>
        <trkpt lat="28.66118" lon="104.160246"><ele>755.54956</ele><time>2026-03-06T18:26:00.000Z</time></trkpt>
        <trkpt lat="28.661226" lon="104.160264"><ele>753.73254</ele><time>2026-03-06T18:26:06.000Z</time></trkpt>
        <trkpt lat="28.661233" lon="104.16031"><ele>755.31647</ele><time>2026-03-06T18:26:10.000Z</time></trkpt>
        <trkpt lat="28.661216" lon="104.160364"><ele>756.512</ele><time>2026-03-06T18:26:15.000Z</time></trkpt>
        <trkpt lat="28.661166" lon="104.160383"><ele>758.08704</ele><time>2026-03-06T18:26:20.000Z</time></trkpt>
        <trkpt lat="28.66111" lon="104.160381"><ele>759.1543</ele><time>2026-03-06T18:26:25.000Z</time></trkpt>
        <trkpt lat="28.66106" lon="104.160395"><ele>756.63873</ele><time>2026-03-06T18:26:30.000Z</time></trkpt>
        <trkpt lat="28.661008" lon="104.160414"><ele>757.6809</ele><time>2026-03-06T18:26:35.000Z</time></trkpt>
        <trkpt lat="28.660957" lon="104.160432"><ele>759.4756</ele><time>2026-03-06T18:26:40.000Z</time></trkpt>
        <trkpt lat="28.660909" lon="104.160453"><ele>761.31244</ele><time>2026-03-06T18:26:45.000Z</time></trkpt>
        <trkpt lat="28.660863" lon="104.160484"><ele>761.9057</ele><time>2026-03-06T18:26:51.000Z</time></trkpt>
        <trkpt lat="28.66082" lon="104.16051"><ele>761.73035</ele><time>2026-03-06T18:26:56.000Z</time></trkpt>
        <trkpt lat="28.660773" lon="104.16054"><ele>760.835</ele><time>2026-03-06T18:27:01.000Z</time></trkpt>
        <trkpt lat="28.660726" lon="104.160572"><ele>760.5327</ele><time>2026-03-06T18:27:17.000Z</time></trkpt>
        <trkpt lat="28.660697" lon="104.160582"><ele>761.533</ele><time>2026-03-06T18:27:21.000Z</time></trkpt>
        <trkpt lat="28.660641" lon="104.160597"><ele>762.6651</ele><time>2026-03-06T18:27:26.000Z</time></trkpt>
        <trkpt lat="28.66058" lon="104.160621"><ele>764.991</ele><time>2026-03-06T18:27:31.000Z</time></trkpt>
        <trkpt lat="28.660526" lon="104.160646"><ele>766.9013</ele><time>2026-03-06T18:27:36.000Z</time></trkpt>
        <trkpt lat="28.660492" lon="104.160693"><ele>766.96204</ele><time>2026-03-06T18:27:45.000Z</time></trkpt>
        <trkpt lat="28.660482" lon="104.160748"><ele>765.7325</ele><time>2026-03-06T18:27:52.000Z</time></trkpt>
        <trkpt lat="28.660494" lon="104.160805"><ele>765.45294</ele><time>2026-03-06T18:27:57.000Z</time></trkpt>
        <trkpt lat="28.660483" lon="104.160765"><ele>767.36945</ele><time>2026-03-06T18:29:03.000Z</time></trkpt>
        <trkpt lat="28.660489" lon="104.160714"><ele>766.5228</ele><time>2026-03-06T18:29:09.000Z</time></trkpt>
        <trkpt lat="28.660484" lon="104.160761"><ele>764.562</ele><time>2026-03-06T18:29:28.000Z</time></trkpt>
        <trkpt lat="28.66051" lon="104.160805"><ele>764.93646</ele><time>2026-03-06T18:37:18.000Z</time></trkpt>
        <trkpt lat="28.660495" lon="104.160876"><ele>769.4969</ele><time>2026-03-06T18:40:54.000Z</time></trkpt>
        <trkpt lat="28.660499" lon="104.160925"><ele>768.6871</ele><time>2026-03-06T18:40:59.000Z</time></trkpt>
        <trkpt lat="28.660511" lon="104.160985"><ele>769.58954</ele><time>2026-03-06T18:41:04.000Z</time></trkpt>
        <trkpt lat="28.660518" lon="104.161038"><ele>772.2707</ele><time>2026-03-06T18:41:08.000Z</time></trkpt>
        <trkpt lat="28.660526" lon="104.161093"><ele>773.9233</ele><time>2026-03-06T18:41:12.000Z</time></trkpt>
        <trkpt lat="28.660544" lon="104.161148"><ele>774.96063</ele><time>2026-03-06T18:41:16.000Z</time></trkpt>
        <trkpt lat="28.66056" lon="104.161204"><ele>775.8729</ele><time>2026-03-06T18:41:20.000Z</time></trkpt>
        <trkpt lat="28.660575" lon="104.161258"><ele>776.2435</ele><time>2026-03-06T18:41:24.000Z</time></trkpt>
        <trkpt lat="28.660592" lon="104.161314"><ele>776.9759</ele><time>2026-03-06T18:41:28.000Z</time></trkpt>
        <trkpt lat="28.660612" lon="104.161377"><ele>778.384</ele><time>2026-03-06T18:41:33.000Z</time></trkpt>
        <trkpt lat="28.660623" lon="104.16144"><ele>778.73364</ele><time>2026-03-06T18:41:38.000Z</time></trkpt>
        <trkpt lat="28.660623" lon="104.161498"><ele>779.2423</ele><time>2026-03-06T18:41:43.000Z</time></trkpt>
        <trkpt lat="28.660616" lon="104.161544"><ele>779.2789</ele><time>2026-03-06T18:41:46.000Z</time></trkpt>
        <trkpt lat="28.660616" lon="104.161603"><ele>780.3916</ele><time>2026-03-06T18:41:50.000Z</time></trkpt>
        <trkpt lat="28.660623" lon="104.161667"><ele>779.8673</ele><time>2026-03-06T18:41:54.000Z</time></trkpt>
        <trkpt lat="28.660629" lon="104.161732"><ele>780.74664</ele><time>2026-03-06T18:41:59.000Z</time></trkpt>
        <trkpt lat="28.660635" lon="104.161792"><ele>783.6715</ele><time>2026-03-06T18:42:04.000Z</time></trkpt>
        <trkpt lat="28.660632" lon="104.161835"><ele>784.34406</ele><time>2026-03-06T18:42:07.000Z</time></trkpt>
        <trkpt lat="28.660651" lon="104.161882"><ele>784.4788</ele><time>2026-03-06T18:42:11.000Z</time></trkpt>
        <trkpt lat="28.660669" lon="104.161933"><ele>784.2403</ele><time>2026-03-06T18:42:15.000Z</time></trkpt>
        <trkpt lat="28.660693" lon="104.161984"><ele>785.2658</ele><time>2026-03-06T18:42:20.000Z</time></trkpt>
        <trkpt lat="28.66072" lon="104.162023"><ele>787.0749</ele><time>2026-03-06T18:42:24.000Z</time></trkpt>
        <trkpt lat="28.66074" lon="104.162072"><ele>787.84784</ele><time>2026-03-06T18:42:28.000Z</time></trkpt>
        <trkpt lat="28.660754" lon="104.162139"><ele>788.9692</ele><time>2026-03-06T18:42:32.000Z</time></trkpt>
        <trkpt lat="28.660766" lon="104.162203"><ele>787.69403</ele><time>2026-03-06T18:42:37.000Z</time></trkpt>
        <trkpt lat="28.660769" lon="104.162247"><ele>789.6561</ele><time>2026-03-06T18:42:39.000Z</time></trkpt>
        <trkpt lat="28.660786" lon="104.162315"><ele>790.70557</ele><time>2026-03-06T18:42:44.000Z</time></trkpt>
        <trkpt lat="28.66082" lon="104.162357"><ele>791.7749</ele><time>2026-03-06T18:42:49.000Z</time></trkpt>
        <trkpt lat="28.660862" lon="104.162388"><ele>791.863</ele><time>2026-03-06T18:42:53.000Z</time></trkpt>
        <trkpt lat="28.660911" lon="104.162425"><ele>791.74304</ele><time>2026-03-06T18:42:58.000Z</time></trkpt>
        <trkpt lat="28.660955" lon="104.162449"><ele>792.11</ele><time>2026-03-06T18:43:02.000Z</time></trkpt>
        <trkpt lat="28.660999" lon="104.162475"><ele>792.35944</ele><time>2026-03-06T18:43:06.000Z</time></trkpt>
        <trkpt lat="28.661049" lon="104.162502"><ele>791.4649</ele><time>2026-03-06T18:43:11.000Z</time></trkpt>
        <trkpt lat="28.661075" lon="104.162543"><ele>791.73425</ele><time>2026-03-06T18:43:15.000Z</time></trkpt>
        <trkpt lat="28.661091" lon="104.1626"><ele>792.1989</ele><time>2026-03-06T18:43:19.000Z</time></trkpt>
        <trkpt lat="28.661108" lon="104.162668"><ele>790.08514</ele><time>2026-03-06T18:43:25.000Z</time></trkpt>
        <trkpt lat="28.661114" lon="104.162719"><ele>791.2673</ele><time>2026-03-06T18:43:29.000Z</time></trkpt>
        <trkpt lat="28.661128" lon="104.162766"><ele>790.757</ele><time>2026-03-06T18:43:32.000Z</time></trkpt>
        <trkpt lat="28.661126" lon="104.162815"><ele>792.31714</ele><time>2026-03-06T18:43:35.000Z</time></trkpt>
        <trkpt lat="28.661126" lon="104.162885"><ele>794.0355</ele><time>2026-03-06T18:43:39.000Z</time></trkpt>
        <trkpt lat="28.661135" lon="104.162959"><ele>793.9699</ele><time>2026-03-06T18:43:44.000Z</time></trkpt>
        <trkpt lat="28.661132" lon="104.163022"><ele>793.82336</ele><time>2026-03-06T18:43:49.000Z</time></trkpt>
        <trkpt lat="28.661168" lon="104.163076"><ele>792.01105</ele><time>2026-03-06T18:43:56.000Z</time></trkpt>
        <trkpt lat="28.661191" lon="104.163123"><ele>792.44366</ele><time>2026-03-06T18:44:02.000Z</time></trkpt>
        <trkpt lat="28.661228" lon="104.163163"><ele>793.51764</ele><time>2026-03-06T18:44:08.000Z</time></trkpt>
        <trkpt lat="28.661271" lon="104.163187"><ele>794.4723</ele><time>2026-03-06T18:44:13.000Z</time></trkpt>
        <trkpt lat="28.661303" lon="104.163224"><ele>793.90686</ele><time>2026-03-06T18:44:18.000Z</time></trkpt>
        <trkpt lat="28.661327" lon="104.163266"><ele>793.97864</ele><time>2026-03-06T18:44:22.000Z</time></trkpt>
        <trkpt lat="28.661352" lon="104.163321"><ele>792.8985</ele><time>2026-03-06T18:44:27.000Z</time></trkpt>
        <trkpt lat="28.661395" lon="104.163302"><ele>793.64435</ele><time>2026-03-06T18:44:34.000Z</time></trkpt>
        <trkpt lat="28.661395" lon="104.163232"><ele>796.3911</ele><time>2026-03-06T18:44:43.000Z</time></trkpt>
        <trkpt lat="28.661394" lon="104.163257"><ele>797.1715</ele><time>2026-03-06T18:44:47.000Z</time></trkpt>
        <trkpt lat="28.661381" lon="104.163318"><ele>796.7094</ele><time>2026-03-06T18:44:52.000Z</time></trkpt>
        <trkpt lat="28.661363" lon="104.163369"><ele>796.195</ele><time>2026-03-06T18:44:55.000Z</time></trkpt>
        <trkpt lat="28.661333" lon="104.163431"><ele>795.5656</ele><time>2026-03-06T18:45:00.000Z</time></trkpt>
        <trkpt lat="28.661322" lon="104.163488"><ele>796.2513</ele><time>2026-03-06T18:45:04.000Z</time></trkpt>
        <trkpt lat="28.661318" lon="104.163551"><ele>797.57416</ele><time>2026-03-06T18:45:09.000Z</time></trkpt>
        <trkpt lat="28.66134" lon="104.163603"><ele>797.7466</ele><time>2026-03-06T18:45:14.000Z</time></trkpt>
        <trkpt lat="28.661388" lon="104.163612"><ele>799.22015</ele><time>2026-03-06T18:45:18.000Z</time></trkpt>
        <trkpt lat="28.661433" lon="104.163584"><ele>799.7615</ele><time>2026-03-06T18:45:23.000Z</time></trkpt>
        <trkpt lat="28.661468" lon="104.163523"><ele>800.7664</ele><time>2026-03-06T18:45:28.000Z</time></trkpt>
        <trkpt lat="28.66151" lon="104.163481"><ele>800.38873</ele><time>2026-03-06T18:45:32.000Z</time></trkpt>
        <trkpt lat="28.661556" lon="104.163437"><ele>801.2015</ele><time>2026-03-06T18:45:38.000Z</time></trkpt>
        <trkpt lat="28.66158" lon="104.163381"><ele>802.01733</ele><time>2026-03-06T18:45:45.000Z</time></trkpt>
        <trkpt lat="28.661629" lon="104.163373"><ele>801.8502</ele><time>2026-03-06T18:45:55.000Z</time></trkpt>
        <trkpt lat="28.661675" lon="104.163365"><ele>802.4958</ele><time>2026-03-06T18:46:00.000Z</time></trkpt>
        <trkpt lat="28.661719" lon="104.163377"><ele>801.6764</ele><time>2026-03-06T18:46:05.000Z</time></trkpt>
        <trkpt lat="28.661769" lon="104.163392"><ele>801.6465</ele><time>2026-03-06T18:46:10.000Z</time></trkpt>
        <trkpt lat="28.661818" lon="104.163409"><ele>802.30505</ele><time>2026-03-06T18:46:14.000Z</time></trkpt>
        <trkpt lat="28.661859" lon="104.163452"><ele>801.8907</ele><time>2026-03-06T18:46:28.000Z</time></trkpt>
        <trkpt lat="28.661885" lon="104.163482"><ele>801.29675</ele><time>2026-03-06T18:46:33.000Z</time></trkpt>
        <trkpt lat="28.661917" lon="104.163518"><ele>801.58185</ele><time>2026-03-06T18:46:37.000Z</time></trkpt>
        <trkpt lat="28.661964" lon="104.163555"><ele>800.5272</ele><time>2026-03-06T18:46:42.000Z</time></trkpt>
        <trkpt lat="28.662001" lon="104.163595"><ele>800.7094</ele><time>2026-03-06T18:46:47.000Z</time></trkpt>
        <trkpt lat="28.662034" lon="104.163637"><ele>800.1972</ele><time>2026-03-06T18:46:53.000Z</time></trkpt>
        <trkpt lat="28.662056" lon="104.163677"><ele>801.1849</ele><time>2026-03-06T18:46:57.000Z</time></trkpt>
        <trkpt lat="28.662074" lon="104.163725"><ele>801.4554</ele><time>2026-03-06T18:47:01.000Z</time></trkpt>
        <trkpt lat="28.662092" lon="104.163768"><ele>801.8572</ele><time>2026-03-06T18:47:04.000Z</time></trkpt>
        <trkpt lat="28.662118" lon="104.16383"><ele>802.3177</ele><time>2026-03-06T18:47:08.000Z</time></trkpt>
        <trkpt lat="28.66214" lon="104.163895"><ele>802.7855</ele><time>2026-03-06T18:47:13.000Z</time></trkpt>
        <trkpt lat="28.662154" lon="104.163951"><ele>802.99756</ele><time>2026-03-06T18:47:18.000Z</time></trkpt>
        <trkpt lat="28.662187" lon="104.163991"><ele>802.65</ele><time>2026-03-06T18:47:27.000Z</time></trkpt>
        <trkpt lat="28.662203" lon="104.164027"><ele>803.23425</ele><time>2026-03-06T18:47:32.000Z</time></trkpt>
        <trkpt lat="28.662228" lon="104.164087"><ele>803.6712</ele><time>2026-03-06T18:47:38.000Z</time></trkpt>
        <trkpt lat="28.662243" lon="104.164136"><ele>805.6037</ele><time>2026-03-06T18:47:41.000Z</time></trkpt>
        <trkpt lat="28.662269" lon="104.164195"><ele>805.792</ele><time>2026-03-06T18:47:46.000Z</time></trkpt>
        <trkpt lat="28.6623" lon="104.164254"><ele>804.9041</ele><time>2026-03-06T18:47:52.000Z</time></trkpt>
        <trkpt lat="28.662328" lon="104.1643"><ele>804.0873</ele><time>2026-03-06T18:47:56.000Z</time></trkpt>
        <trkpt lat="28.662346" lon="104.164354"><ele>803.9974</ele><time>2026-03-06T18:48:01.000Z</time></trkpt>
        <trkpt lat="28.662363" lon="104.1644"><ele>804.3517</ele><time>2026-03-06T18:48:05.000Z</time></trkpt>
        <trkpt lat="28.662381" lon="104.164451"><ele>804.592</ele><time>2026-03-06T18:48:09.000Z</time></trkpt>
        <trkpt lat="28.6624" lon="104.164509"><ele>803.8898</ele><time>2026-03-06T18:48:16.000Z</time></trkpt>
        <trkpt lat="28.662419" lon="104.164561"><ele>803.13446</ele><time>2026-03-06T18:48:21.000Z</time></trkpt>
        <trkpt lat="28.662442" lon="104.164615"><ele>803.23114</ele><time>2026-03-06T18:48:25.000Z</time></trkpt>
        <trkpt lat="28.662466" lon="104.164668"><ele>802.702</ele><time>2026-03-06T18:48:29.000Z</time></trkpt>
        <trkpt lat="28.662495" lon="104.164715"><ele>802.2406</ele><time>2026-03-06T18:48:33.000Z</time></trkpt>
        <trkpt lat="28.662524" lon="104.164765"><ele>802.4021</ele><time>2026-03-06T18:48:37.000Z</time></trkpt>
        <trkpt lat="28.662544" lon="104.164832"><ele>802.0368</ele><time>2026-03-06T18:48:46.000Z</time></trkpt>
        <trkpt lat="28.662566" lon="104.164887"><ele>803.687</ele><time>2026-03-06T18:48:54.000Z</time></trkpt>
        <trkpt lat="28.662601" lon="104.164921"><ele>804.85187</ele><time>2026-03-06T18:48:59.000Z</time></trkpt>
        <trkpt lat="28.662651" lon="104.164963"><ele>804.5539</ele><time>2026-03-06T18:49:05.000Z</time></trkpt>
        <trkpt lat="28.662699" lon="104.164994"><ele>804.2411</ele><time>2026-03-06T18:49:21.000Z</time></trkpt>
        <trkpt lat="28.662728" lon="104.165014"><ele>805.22394</ele><time>2026-03-06T18:49:25.000Z</time></trkpt>
        <trkpt lat="28.662788" lon="104.165038"><ele>806.7295</ele><time>2026-03-06T18:49:33.000Z</time></trkpt>
        <trkpt lat="28.662834" lon="104.165073"><ele>806.5742</ele><time>2026-03-06T18:49:38.000Z</time></trkpt>
        <trkpt lat="28.662878" lon="104.165101"><ele>806.2624</ele><time>2026-03-06T18:49:43.000Z</time></trkpt>
        <trkpt lat="28.662924" lon="104.165139"><ele>805.5159</ele><time>2026-03-06T18:49:49.000Z</time></trkpt>
        <trkpt lat="28.662961" lon="104.165174"><ele>805.8181</ele><time>2026-03-06T18:49:54.000Z</time></trkpt>
        <trkpt lat="28.662995" lon="104.165204"><ele>806.9299</ele><time>2026-03-06T18:49:58.000Z</time></trkpt>
        <trkpt lat="28.663038" lon="104.165232"><ele>808.0977</ele><time>2026-03-06T18:50:02.000Z</time></trkpt>
        <trkpt lat="28.663082" lon="104.165254"><ele>809.93677</ele><time>2026-03-06T18:50:06.000Z</time></trkpt>
        <trkpt lat="28.663139" lon="104.16526"><ele>811.8362</ele><time>2026-03-06T18:50:11.000Z</time></trkpt>
        <trkpt lat="28.663185" lon="104.165226"><ele>811.42395</ele><time>2026-03-06T18:50:17.000Z</time></trkpt>
        <trkpt lat="28.663221" lon="104.165186"><ele>810.6257</ele><time>2026-03-06T18:50:22.000Z</time></trkpt>
        <trkpt lat="28.663258" lon="104.165143"><ele>809.0129</ele><time>2026-03-06T18:50:54.000Z</time></trkpt>
        <trkpt lat="28.66328" lon="104.165125"><ele>809.41846</ele><time>2026-03-06T18:50:58.000Z</time></trkpt>
        <trkpt lat="28.663323" lon="104.165073"><ele>809.8156</ele><time>2026-03-06T18:51:05.000Z</time></trkpt>
        <trkpt lat="28.663359" lon="104.165035"><ele>810.55884</ele><time>2026-03-06T18:51:09.000Z</time></trkpt>
        <trkpt lat="28.663395" lon="104.164986"><ele>810.4391</ele><time>2026-03-06T18:51:15.000Z</time></trkpt>
        <trkpt lat="28.663429" lon="104.164942"><ele>809.5261</ele><time>2026-03-06T18:51:19.000Z</time></trkpt>
        <trkpt lat="28.66347" lon="104.164894"><ele>808.4147</ele><time>2026-03-06T18:51:24.000Z</time></trkpt>
        <trkpt lat="28.663506" lon="104.16486"><ele>807.6951</ele><time>2026-03-06T18:51:28.000Z</time></trkpt>
        <trkpt lat="28.663528" lon="104.164809"><ele>808.31177</ele><time>2026-03-06T18:52:01.000Z</time></trkpt>
        <trkpt lat="28.663559" lon="104.164812"><ele>806.83093</ele><time>2026-03-06T18:52:05.000Z</time></trkpt>
        <trkpt lat="28.663612" lon="104.164805"><ele>806.2214</ele><time>2026-03-06T18:52:10.000Z</time></trkpt>
        <trkpt lat="28.663674" lon="104.164785"><ele>805.9763</ele><time>2026-03-06T18:52:15.000Z</time></trkpt>
        <trkpt lat="28.663723" lon="104.164766"><ele>806.47095</ele><time>2026-03-06T18:52:19.000Z</time></trkpt>
        <trkpt lat="28.663768" lon="104.164746"><ele>806.44385</ele><time>2026-03-06T18:52:23.000Z</time></trkpt>
        <trkpt lat="28.663812" lon="104.16472"><ele>806.76306</ele><time>2026-03-06T18:52:27.000Z</time></trkpt>
        <trkpt lat="28.66386" lon="104.164724"><ele>806.73303</ele><time>2026-03-06T18:52:31.000Z</time></trkpt>
        <trkpt lat="28.663921" lon="104.164737"><ele>806.8909</ele><time>2026-03-06T18:52:37.000Z</time></trkpt>
        <trkpt lat="28.663962" lon="104.16476"><ele>806.2178</ele><time>2026-03-06T18:52:41.000Z</time></trkpt>
        <trkpt lat="28.66401" lon="104.164767"><ele>805.81116</ele><time>2026-03-06T18:52:45.000Z</time></trkpt>
        <trkpt lat="28.66407" lon="104.16478"><ele>806.0401</ele><time>2026-03-06T18:52:51.000Z</time></trkpt>
        <trkpt lat="28.664119" lon="104.164795"><ele>804.6122</ele><time>2026-03-06T18:52:57.000Z</time></trkpt>
        <trkpt lat="28.664158" lon="104.164807"><ele>804.4676</ele><time>2026-03-06T18:53:00.000Z</time></trkpt>
        <trkpt lat="28.664213" lon="104.164813"><ele>804.37866</ele><time>2026-03-06T18:53:05.000Z</time></trkpt>
        <trkpt lat="28.664263" lon="104.164823"><ele>803.76874</ele><time>2026-03-06T18:53:10.000Z</time></trkpt>
        <trkpt lat="28.664302" lon="104.164845"><ele>802.7098</ele><time>2026-03-06T18:53:14.000Z</time></trkpt>
        <trkpt lat="28.664347" lon="104.164866"><ele>802.9113</ele><time>2026-03-06T18:53:18.000Z</time></trkpt>
        <trkpt lat="28.664397" lon="104.164875"><ele>803.36426</ele><time>2026-03-06T18:53:22.000Z</time></trkpt>
        <trkpt lat="28.664452" lon="104.164889"><ele>803.10754</ele><time>2026-03-06T18:53:30.000Z</time></trkpt>
        <trkpt lat="28.664484" lon="104.164868"><ele>803.46954</ele><time>2026-03-06T18:53:34.000Z</time></trkpt>
        <trkpt lat="28.664522" lon="104.164831"><ele>804.64557</ele><time>2026-03-06T18:53:38.000Z</time></trkpt>
        <trkpt lat="28.664556" lon="104.164788"><ele>804.8647</ele><time>2026-03-06T18:53:42.000Z</time></trkpt>
        <trkpt lat="28.66459" lon="104.164732"><ele>803.839</ele><time>2026-03-06T18:53:51.000Z</time></trkpt>
        <trkpt lat="28.664611" lon="104.164679"><ele>802.51556</ele><time>2026-03-06T18:54:00.000Z</time></trkpt>
        <trkpt lat="28.66464" lon="104.164639"><ele>802.3697</ele><time>2026-03-06T18:54:05.000Z</time></trkpt>
        <trkpt lat="28.664676" lon="104.164594"><ele>802.2167</ele><time>2026-03-06T18:54:10.000Z</time></trkpt>
        <trkpt lat="28.664712" lon="104.164548"><ele>801.7465</ele><time>2026-03-06T18:54:15.000Z</time></trkpt>
        <trkpt lat="28.664755" lon="104.164516"><ele>801.39185</ele><time>2026-03-06T18:54:19.000Z</time></trkpt>
        <trkpt lat="28.664792" lon="104.16448"><ele>802.1023</ele><time>2026-03-06T18:54:23.000Z</time></trkpt>
        <trkpt lat="28.664824" lon="104.164438"><ele>803.0418</ele><time>2026-03-06T18:54:27.000Z</time></trkpt>
        <trkpt lat="28.664867" lon="104.164399"><ele>803.02423</ele><time>2026-03-06T18:54:32.000Z</time></trkpt>
        <trkpt lat="28.664911" lon="104.164365"><ele>802.4585</ele><time>2026-03-06T18:54:37.000Z</time></trkpt>
        <trkpt lat="28.664956" lon="104.164342"><ele>801.23145</ele><time>2026-03-06T18:54:42.000Z</time></trkpt>
        <trkpt lat="28.665009" lon="104.164326"><ele>801.3096</ele><time>2026-03-06T18:54:47.000Z</time></trkpt>
        <trkpt lat="28.665062" lon="104.164339"><ele>801.46454</ele><time>2026-03-06T18:54:52.000Z</time></trkpt>
        <trkpt lat="28.665113" lon="104.164357"><ele>801.21747</ele><time>2026-03-06T18:54:57.000Z</time></trkpt>
        <trkpt lat="28.66516" lon="104.164395"><ele>800.9731</ele><time>2026-03-06T18:55:02.000Z</time></trkpt>
        <trkpt lat="28.665202" lon="104.164436"><ele>801.07574</ele><time>2026-03-06T18:55:07.000Z</time></trkpt>
        <trkpt lat="28.665235" lon="104.164481"><ele>801.0898</ele><time>2026-03-06T18:55:12.000Z</time></trkpt>
        <trkpt lat="28.66525" lon="104.164538"><ele>800.7256</ele><time>2026-03-06T18:55:17.000Z</time></trkpt>
        <trkpt lat="28.665273" lon="104.164589"><ele>800.3536</ele><time>2026-03-06T18:55:22.000Z</time></trkpt>
        <trkpt lat="28.665295" lon="104.164644"><ele>799.8633</ele><time>2026-03-06T18:55:28.000Z</time></trkpt>
        <trkpt lat="28.66534" lon="104.164649"><ele>800.64594</ele><time>2026-03-06T19:02:05.000Z</time></trkpt>
        <trkpt lat="28.665325" lon="104.164698"><ele>800.77924</ele><time>2026-03-06T19:04:41.000Z</time></trkpt>
        <trkpt lat="28.665363" lon="104.164737"><ele>801.5035</ele><time>2026-03-06T19:04:47.000Z</time></trkpt>
        <trkpt lat="28.665407" lon="104.164771"><ele>800.95056</ele><time>2026-03-06T19:04:52.000Z</time></trkpt>
        <trkpt lat="28.66544" lon="104.164802"><ele>799.87714</ele><time>2026-03-06T19:04:55.000Z</time></trkpt>
        <trkpt lat="28.665481" lon="104.164836"><ele>800.0551</ele><time>2026-03-06T19:04:59.000Z</time></trkpt>
        <trkpt lat="28.665531" lon="104.164878"><ele>799.70105</ele><time>2026-03-06T19:05:13.000Z</time></trkpt>
        <trkpt lat="28.665549" lon="104.16492"><ele>798.29</ele><time>2026-03-06T19:05:20.000Z</time></trkpt>
        <trkpt lat="28.665589" lon="104.164968"><ele>797.21765</ele><time>2026-03-06T19:05:26.000Z</time></trkpt>
        <trkpt lat="28.665609" lon="104.165017"><ele>797.27405</ele><time>2026-03-06T19:05:30.000Z</time></trkpt>
        <trkpt lat="28.665629" lon="104.165065"><ele>796.36664</ele><time>2026-03-06T19:05:34.000Z</time></trkpt>
        <trkpt lat="28.665666" lon="104.1651"><ele>796.68066</ele><time>2026-03-06T19:05:38.000Z</time></trkpt>
        <trkpt lat="28.665722" lon="104.165128"><ele>797.1212</ele><time>2026-03-06T19:05:48.000Z</time></trkpt>
        <trkpt lat="28.665741" lon="104.165162"><ele>796.28613</ele><time>2026-03-06T19:05:53.000Z</time></trkpt>
        <trkpt lat="28.665772" lon="104.16519"><ele>796.3664</ele><time>2026-03-06T19:05:57.000Z</time></trkpt>
        <trkpt lat="28.665813" lon="104.165222"><ele>797.5765</ele><time>2026-03-06T19:06:01.000Z</time></trkpt>
        <trkpt lat="28.665861" lon="104.165237"><ele>797.7166</ele><time>2026-03-06T19:06:05.000Z</time></trkpt>
        <trkpt lat="28.665931" lon="104.165244"><ele>798.5188</ele><time>2026-03-06T19:06:10.000Z</time></trkpt>
        <trkpt lat="28.665986" lon="104.165234"><ele>798.5025</ele><time>2026-03-06T19:06:15.000Z</time></trkpt>
        <trkpt lat="28.66603" lon="104.165227"><ele>798.0343</ele><time>2026-03-06T19:06:19.000Z</time></trkpt>
        <trkpt lat="28.666076" lon="104.16522"><ele>797.45013</ele><time>2026-03-06T19:06:23.000Z</time></trkpt>
        <trkpt lat="28.666132" lon="104.16521"><ele>797.9565</ele><time>2026-03-06T19:06:28.000Z</time></trkpt>
        <trkpt lat="28.666186" lon="104.165196"><ele>798.9784</ele><time>2026-03-06T19:06:34.000Z</time></trkpt>
        <trkpt lat="28.666234" lon="104.165196"><ele>800.2806</ele><time>2026-03-06T19:06:38.000Z</time></trkpt>
        <trkpt lat="28.666287" lon="104.1652"><ele>800.64325</ele><time>2026-03-06T19:06:43.000Z</time></trkpt>
        <trkpt lat="28.666333" lon="104.165205"><ele>800.5745</ele><time>2026-03-06T19:06:47.000Z</time></trkpt>
        <trkpt lat="28.666379" lon="104.165224"><ele>801.00305</ele><time>2026-03-06T19:06:51.000Z</time></trkpt>
        <trkpt lat="28.666415" lon="104.165265"><ele>801.22516</ele><time>2026-03-06T19:06:55.000Z</time></trkpt>
        <trkpt lat="28.666428" lon="104.165323"><ele>801.20416</ele><time>2026-03-06T19:07:00.000Z</time></trkpt>
        <trkpt lat="28.666433" lon="104.165383"><ele>800.80023</ele><time>2026-03-06T19:07:05.000Z</time></trkpt>
        <trkpt lat="28.666434" lon="104.165447"><ele>801.03394</ele><time>2026-03-06T19:07:13.000Z</time></trkpt>
        <trkpt lat="28.66644" lon="104.165494"><ele>801.3751</ele><time>2026-03-06T19:07:18.000Z</time></trkpt>
        <trkpt lat="28.666452" lon="104.165548"><ele>801.8669</ele><time>2026-03-06T19:07:23.000Z</time></trkpt>
        <trkpt lat="28.666468" lon="104.165603"><ele>802.47375</ele><time>2026-03-06T19:07:28.000Z</time></trkpt>
        <trkpt lat="28.666486" lon="104.165662"><ele>802.80237</ele><time>2026-03-06T19:07:33.000Z</time></trkpt>
        <trkpt lat="28.666505" lon="104.165712"><ele>802.9658</ele><time>2026-03-06T19:07:37.000Z</time></trkpt>
        <trkpt lat="28.666526" lon="104.165777"><ele>801.4497</ele><time>2026-03-06T19:07:43.000Z</time></trkpt>
        <trkpt lat="28.666539" lon="104.165827"><ele>801.70575</ele><time>2026-03-06T19:07:47.000Z</time></trkpt>
        <trkpt lat="28.666546" lon="104.165884"><ele>801.35846</ele><time>2026-03-06T19:07:51.000Z</time></trkpt>
        <trkpt lat="28.666567" lon="104.165951"><ele>802.12085</ele><time>2026-03-06T19:07:58.000Z</time></trkpt>
        <trkpt lat="28.666576" lon="104.166004"><ele>802.07697</ele><time>2026-03-06T19:08:04.000Z</time></trkpt>
        <trkpt lat="28.666575" lon="104.166063"><ele>801.57544</ele><time>2026-03-06T19:08:09.000Z</time></trkpt>
        <trkpt lat="28.66659" lon="104.166125"><ele>801.1141</ele><time>2026-03-06T19:08:17.000Z</time></trkpt>
        <trkpt lat="28.666594" lon="104.166168"><ele>801.17096</ele><time>2026-03-06T19:08:21.000Z</time></trkpt>
        <trkpt lat="28.666595" lon="104.166226"><ele>801.08594</ele><time>2026-03-06T19:08:26.000Z</time></trkpt>
        <trkpt lat="28.666594" lon="104.166288"><ele>801.122</ele><time>2026-03-06T19:08:31.000Z</time></trkpt>
        <trkpt lat="28.66659" lon="104.166353"><ele>801.1671</ele><time>2026-03-06T19:08:36.000Z</time></trkpt>
        <trkpt lat="28.66659" lon="104.166414"><ele>801.8012</ele><time>2026-03-06T19:08:41.000Z</time></trkpt>
        <trkpt lat="28.666585" lon="104.166467"><ele>802.3045</ele><time>2026-03-06T19:08:45.000Z</time></trkpt>
        <trkpt lat="28.666565" lon="104.166526"><ele>800.70135</ele><time>2026-03-06T19:08:56.000Z</time></trkpt>
        <trkpt lat="28.666562" lon="104.166563"><ele>800.2607</ele><time>2026-03-06T19:09:00.000Z</time></trkpt>
        <trkpt lat="28.66656" lon="104.166619"><ele>800.22266</ele><time>2026-03-06T19:09:05.000Z</time></trkpt>
        <trkpt lat="28.666561" lon="104.166674"><ele>801.12915</ele><time>2026-03-06T19:09:09.000Z</time></trkpt>
        <trkpt lat="28.666579" lon="104.166723"><ele>801.4677</ele><time>2026-03-06T19:09:13.000Z</time></trkpt>
        <trkpt lat="28.666596" lon="104.166783"><ele>801.60315</ele><time>2026-03-06T19:09:18.000Z</time></trkpt>
        <trkpt lat="28.666615" lon="104.166837"><ele>801.6716</ele><time>2026-03-06T19:09:24.000Z</time></trkpt>
        <trkpt lat="28.666623" lon="104.166887"><ele>801.73157</ele><time>2026-03-06T19:09:29.000Z</time></trkpt>
        <trkpt lat="28.666629" lon="104.166932"><ele>801.44745</ele><time>2026-03-06T19:09:33.000Z</time></trkpt>
        <trkpt lat="28.666637" lon="104.166992"><ele>801.30566</ele><time>2026-03-06T19:09:38.000Z</time></trkpt>
        <trkpt lat="28.666646" lon="104.167051"><ele>801.348</ele><time>2026-03-06T19:09:43.000Z</time></trkpt>
        <trkpt lat="28.666661" lon="104.167105"><ele>801.7339</ele><time>2026-03-06T19:09:49.000Z</time></trkpt>
        <trkpt lat="28.666677" lon="104.167158"><ele>801.9067</ele><time>2026-03-06T19:09:54.000Z</time></trkpt>
        <trkpt lat="28.666686" lon="104.167216"><ele>802.1251</ele><time>2026-03-06T19:09:59.000Z</time></trkpt>
        <trkpt lat="28.666693" lon="104.167278"><ele>802.1031</ele><time>2026-03-06T19:10:04.000Z</time></trkpt>
        <trkpt lat="28.666705" lon="104.167337"><ele>801.6911</ele><time>2026-03-06T19:10:09.000Z</time></trkpt>
        <trkpt lat="28.666726" lon="104.167396"><ele>801.92883</ele><time>2026-03-06T19:10:14.000Z</time></trkpt>
        <trkpt lat="28.666759" lon="104.167431"><ele>802.05347</ele><time>2026-03-06T19:10:18.000Z</time></trkpt>
        <trkpt lat="28.666804" lon="104.167449"><ele>802.2223</ele><time>2026-03-06T19:10:22.000Z</time></trkpt>
        <trkpt lat="28.666859" lon="104.167456"><ele>803.0065</ele><time>2026-03-06T19:10:27.000Z</time></trkpt>
        <trkpt lat="28.666901" lon="104.167459"><ele>804.2753</ele><time>2026-03-06T19:10:30.000Z</time></trkpt>
        <trkpt lat="28.666957" lon="104.167477"><ele>803.8399</ele><time>2026-03-06T19:10:35.000Z</time></trkpt>
        <trkpt lat="28.667001" lon="104.167487"><ele>804.55096</ele><time>2026-03-06T19:10:39.000Z</time></trkpt>
        <trkpt lat="28.667052" lon="104.167509"><ele>804.4531</ele><time>2026-03-06T19:10:45.000Z</time></trkpt>
        <trkpt lat="28.667099" lon="104.167532"><ele>804.32227</ele><time>2026-03-06T19:10:50.000Z</time></trkpt>
        <trkpt lat="28.667148" lon="104.167542"><ele>804.78467</ele><time>2026-03-06T19:10:55.000Z</time></trkpt>
        <trkpt lat="28.667201" lon="104.167567"><ele>805.4272</ele><time>2026-03-06T19:11:02.000Z</time></trkpt>
        <trkpt lat="28.667244" lon="104.167587"><ele>805.0285</ele><time>2026-03-06T19:11:07.000Z</time></trkpt>
        <trkpt lat="28.667288" lon="104.167619"><ele>805.39044</ele><time>2026-03-06T19:11:12.000Z</time></trkpt>
        <trkpt lat="28.667324" lon="104.167652"><ele>804.44543</ele><time>2026-03-06T19:11:16.000Z</time></trkpt>
        <trkpt lat="28.667354" lon="104.167709"><ele>804.2277</ele><time>2026-03-06T19:11:21.000Z</time></trkpt>
        <trkpt lat="28.667372" lon="104.167763"><ele>804.1381</ele><time>2026-03-06T19:11:25.000Z</time></trkpt>
        <trkpt lat="28.66738" lon="104.167817"><ele>804.01074</ele><time>2026-03-06T19:11:29.000Z</time></trkpt>
        <trkpt lat="28.667384" lon="104.167875"><ele>803.8419</ele><time>2026-03-06T19:11:33.000Z</time></trkpt>
        <trkpt lat="28.667392" lon="104.167937"><ele>803.5224</ele><time>2026-03-06T19:11:37.000Z</time></trkpt>
        <trkpt lat="28.667412" lon="104.167988"><ele>802.99445</ele><time>2026-03-06T19:11:42.000Z</time></trkpt>
        <trkpt lat="28.667433" lon="104.168037"><ele>803.4232</ele><time>2026-03-06T19:11:46.000Z</time></trkpt>
        <trkpt lat="28.66745" lon="104.168098"><ele>803.89545</ele><time>2026-03-06T19:11:51.000Z</time></trkpt>
        <trkpt lat="28.667461" lon="104.168151"><ele>803.9584</ele><time>2026-03-06T19:11:55.000Z</time></trkpt>
        <trkpt lat="28.667475" lon="104.168219"><ele>805.0985</ele><time>2026-03-06T19:12:01.000Z</time></trkpt>
        <trkpt lat="28.667491" lon="104.168277"><ele>806.0235</ele><time>2026-03-06T19:12:06.000Z</time></trkpt>
        <trkpt lat="28.66751" lon="104.168333"><ele>806.1479</ele><time>2026-03-06T19:12:11.000Z</time></trkpt>
        <trkpt lat="28.66753" lon="104.168393"><ele>806.1653</ele><time>2026-03-06T19:12:16.000Z</time></trkpt>
        <trkpt lat="28.667538" lon="104.16845"><ele>807.2402</ele><time>2026-03-06T19:12:20.000Z</time></trkpt>
        <trkpt lat="28.667554" lon="104.168509"><ele>807.73035</ele><time>2026-03-06T19:12:25.000Z</time></trkpt>
        <trkpt lat="28.667559" lon="104.168559"><ele>808.4471</ele><time>2026-03-06T19:12:29.000Z</time></trkpt>
        <trkpt lat="28.667571" lon="104.168613"><ele>808.098</ele><time>2026-03-06T19:12:33.000Z</time></trkpt>
        <trkpt lat="28.667584" lon="104.168673"><ele>808.87427</ele><time>2026-03-06T19:12:38.000Z</time></trkpt>
        <trkpt lat="28.667609" lon="104.168718"><ele>808.9002</ele><time>2026-03-06T19:12:42.000Z</time></trkpt>
        <trkpt lat="28.667631" lon="104.168766"><ele>808.2101</ele><time>2026-03-06T19:12:46.000Z</time></trkpt>
        <trkpt lat="28.667658" lon="104.168817"><ele>809.35425</ele><time>2026-03-06T19:12:50.000Z</time></trkpt>
        <trkpt lat="28.667672" lon="104.168878"><ele>810.1449</ele><time>2026-03-06T19:12:54.000Z</time></trkpt>
        <trkpt lat="28.66768" lon="104.168938"><ele>811.8108</ele><time>2026-03-06T19:12:59.000Z</time></trkpt>
        <trkpt lat="28.667681" lon="104.168999"><ele>813.0078</ele><time>2026-03-06T19:13:04.000Z</time></trkpt>
        <trkpt lat="28.667672" lon="104.169053"><ele>814.3509</ele><time>2026-03-06T19:13:08.000Z</time></trkpt>
        <trkpt lat="28.667642" lon="104.169118"><ele>813.23315</ele><time>2026-03-06T19:13:29.000Z</time></trkpt>
        <trkpt lat="28.667616" lon="104.169136"><ele>812.2657</ele><time>2026-03-06T19:13:33.000Z</time></trkpt>
        <trkpt lat="28.667582" lon="104.169181"><ele>814.6171</ele><time>2026-03-06T19:13:37.000Z</time></trkpt>
        <trkpt lat="28.667554" lon="104.16923"><ele>815.1898</ele><time>2026-03-06T19:13:40.000Z</time></trkpt>
        <trkpt lat="28.667511" lon="104.169284"><ele>816.0521</ele><time>2026-03-06T19:13:45.000Z</time></trkpt>
        <trkpt lat="28.66748" lon="104.169334"><ele>815.55444</ele><time>2026-03-06T19:13:49.000Z</time></trkpt>
        <trkpt lat="28.667452" lon="104.169379"><ele>816.6499</ele><time>2026-03-06T19:13:53.000Z</time></trkpt>
        <trkpt lat="28.667434" lon="104.16943"><ele>818.10376</ele><time>2026-03-06T19:13:57.000Z</time></trkpt>
        <trkpt lat="28.667416" lon="104.16948"><ele>818.2331</ele><time>2026-03-06T19:14:01.000Z</time></trkpt>
        <trkpt lat="28.667412" lon="104.169537"><ele>817.4063</ele><time>2026-03-06T19:14:06.000Z</time></trkpt>
        <trkpt lat="28.667415" lon="104.169598"><ele>814.8776</ele><time>2026-03-06T19:14:17.000Z</time></trkpt>
        <trkpt lat="28.667431" lon="104.16964"><ele>814.0074</ele><time>2026-03-06T19:14:22.000Z</time></trkpt>
        <trkpt lat="28.667456" lon="104.169692"><ele>814.17645</ele><time>2026-03-06T19:14:27.000Z</time></trkpt>
        <trkpt lat="28.66749" lon="104.169751"><ele>814.62604</ele><time>2026-03-06T19:14:33.000Z</time></trkpt>
        <trkpt lat="28.667545" lon="104.16977"><ele>815.17676</ele><time>2026-03-06T19:14:40.000Z</time></trkpt>
        <trkpt lat="28.667591" lon="104.169761"><ele>815.5465</ele><time>2026-03-06T19:14:44.000Z</time></trkpt>
        <trkpt lat="28.667636" lon="104.169716"><ele>816.2418</ele><time>2026-03-06T19:14:49.000Z</time></trkpt>
        <trkpt lat="28.667643" lon="104.169648"><ele>816.19763</ele><time>2026-03-06T19:15:38.000Z</time></trkpt>
        <trkpt lat="28.667683" lon="104.169616"><ele>817.61487</ele><time>2026-03-06T19:17:17.000Z</time></trkpt>
        <trkpt lat="28.667647" lon="104.169631"><ele>817.3715</ele><time>2026-03-06T19:17:29.000Z</time></trkpt>
        <trkpt lat="28.667668" lon="104.169587"><ele>817.6729</ele><time>2026-03-06T19:18:15.000Z</time></trkpt>
        <trkpt lat="28.667685" lon="104.169542"><ele>817.5371</ele><time>2026-03-06T19:18:20.000Z</time></trkpt>
        <trkpt lat="28.667703" lon="104.169504"><ele>817.7331</ele><time>2026-03-06T19:18:23.000Z</time></trkpt>
        <trkpt lat="28.667746" lon="104.169466"><ele>817.6784</ele><time>2026-03-06T19:18:30.000Z</time></trkpt>
        <trkpt lat="28.667809" lon="104.169466"><ele>816.2334</ele><time>2026-03-06T19:21:37.000Z</time></trkpt>
        <trkpt lat="28.667841" lon="104.169449"><ele>816.8025</ele><time>2026-03-06T19:21:42.000Z</time></trkpt>
        <trkpt lat="28.667898" lon="104.169413"><ele>817.083</ele><time>2026-03-06T19:21:47.000Z</time></trkpt>
        <trkpt lat="28.66795" lon="104.169374"><ele>818.58124</ele><time>2026-03-06T19:21:52.000Z</time></trkpt>
        <trkpt lat="28.667988" lon="104.169343"><ele>818.2429</ele><time>2026-03-06T19:21:56.000Z</time></trkpt>
        <trkpt lat="28.668029" lon="104.169317"><ele>819.7886</ele><time>2026-03-06T19:22:00.000Z</time></trkpt>
        <trkpt lat="28.668076" lon="104.169286"><ele>820.13995</ele><time>2026-03-06T19:22:04.000Z</time></trkpt>
        <trkpt lat="28.668122" lon="104.16925"><ele>820.0153</ele><time>2026-03-06T19:22:09.000Z</time></trkpt>
        <trkpt lat="28.668163" lon="104.169228"><ele>821.12616</ele><time>2026-03-06T19:22:13.000Z</time></trkpt>
        <trkpt lat="28.668201" lon="104.169211"><ele>821.3433</ele><time>2026-03-06T19:22:16.000Z</time></trkpt>
        <trkpt lat="28.668257" lon="104.169195"><ele>820.5263</ele><time>2026-03-06T19:22:21.000Z</time></trkpt>
        <trkpt lat="28.668304" lon="104.169195"><ele>821.7931</ele><time>2026-03-06T19:22:25.000Z</time></trkpt>
        <trkpt lat="28.668349" lon="104.16924"><ele>822.80756</ele><time>2026-03-06T19:22:32.000Z</time></trkpt>
        <trkpt lat="28.668352" lon="104.169286"><ele>823.27673</ele><time>2026-03-06T19:22:35.000Z</time></trkpt>
        <trkpt lat="28.668352" lon="104.169349"><ele>823.4681</ele><time>2026-03-06T19:22:39.000Z</time></trkpt>
        <trkpt lat="28.668354" lon="104.169403"><ele>824.48315</ele><time>2026-03-06T19:22:42.000Z</time></trkpt>
        <trkpt lat="28.66836" lon="104.169465"><ele>824.8119</ele><time>2026-03-06T19:22:46.000Z</time></trkpt>
        <trkpt lat="28.668373" lon="104.16953"><ele>825.04694</ele><time>2026-03-06T19:22:51.000Z</time></trkpt>
        <trkpt lat="28.668385" lon="104.169579"><ele>825.9292</ele><time>2026-03-06T19:22:55.000Z</time></trkpt>
        <trkpt lat="28.668395" lon="104.169641"><ele>826.8816</ele><time>2026-03-06T19:23:00.000Z</time></trkpt>
        <trkpt lat="28.668397" lon="104.169693"><ele>827.0699</ele><time>2026-03-06T19:23:04.000Z</time></trkpt>
        <trkpt lat="28.668415" lon="104.169763"><ele>827.10986</ele><time>2026-03-06T19:23:09.000Z</time></trkpt>
        <trkpt lat="28.668421" lon="104.169832"><ele>826.73663</ele><time>2026-03-06T19:23:14.000Z</time></trkpt>
        <trkpt lat="28.668418" lon="104.169889"><ele>826.6732</ele><time>2026-03-06T19:23:18.000Z</time></trkpt>
        <trkpt lat="28.668407" lon="104.169946"><ele>826.72064</ele><time>2026-03-06T19:23:22.000Z</time></trkpt>
        <trkpt lat="28.668397" lon="104.17"><ele>827.41656</ele><time>2026-03-06T19:23:26.000Z</time></trkpt>
        <trkpt lat="28.668373" lon="104.170055"><ele>828.6142</ele><time>2026-03-06T19:23:31.000Z</time></trkpt>
        <trkpt lat="28.668355" lon="104.170111"><ele>829.58875</ele><time>2026-03-06T19:23:36.000Z</time></trkpt>
        <trkpt lat="28.668339" lon="104.170168"><ele>830.29913</ele><time>2026-03-06T19:23:41.000Z</time></trkpt>
        <trkpt lat="28.668328" lon="104.170224"><ele>830.9746</ele><time>2026-03-06T19:23:47.000Z</time></trkpt>
        <trkpt lat="28.668318" lon="104.170265"><ele>831.04663</ele><time>2026-03-06T19:23:50.000Z</time></trkpt>
        <trkpt lat="28.668313" lon="104.17032"><ele>832.0058</ele><time>2026-03-06T19:23:54.000Z</time></trkpt>
        <trkpt lat="28.668314" lon="104.170374"><ele>832.2546</ele><time>2026-03-06T19:23:58.000Z</time></trkpt>
        <trkpt lat="28.668329" lon="104.170443"><ele>832.58984</ele><time>2026-03-06T19:24:03.000Z</time></trkpt>
        <trkpt lat="28.668362" lon="104.1705"><ele>832.1097</ele><time>2026-03-06T19:24:08.000Z</time></trkpt>
        <trkpt lat="28.668399" lon="104.170542"><ele>832.36646</ele><time>2026-03-06T19:24:13.000Z</time></trkpt>
        <trkpt lat="28.668443" lon="104.170569"><ele>833.10046</ele><time>2026-03-06T19:24:17.000Z</time></trkpt>
        <trkpt lat="28.668501" lon="104.170599"><ele>834.28894</ele><time>2026-03-06T19:24:22.000Z</time></trkpt>
        <trkpt lat="28.66855" lon="104.170613"><ele>832.29193</ele><time>2026-03-06T19:24:26.000Z</time></trkpt>
        <trkpt lat="28.668606" lon="104.170633"><ele>833.00745</ele><time>2026-03-06T19:24:31.000Z</time></trkpt>
        <trkpt lat="28.66865" lon="104.170653"><ele>832.83026</ele><time>2026-03-06T19:24:35.000Z</time></trkpt>
        <trkpt lat="28.668696" lon="104.170691"><ele>831.97736</ele><time>2026-03-06T19:24:40.000Z</time></trkpt>
        <trkpt lat="28.668748" lon="104.170722"><ele>831.8055</ele><time>2026-03-06T19:24:46.000Z</time></trkpt>
        <trkpt lat="28.668799" lon="104.170737"><ele>832.19354</ele><time>2026-03-06T19:24:51.000Z</time></trkpt>
        <trkpt lat="28.668846" lon="104.170754"><ele>832.3589</ele><time>2026-03-06T19:24:55.000Z</time></trkpt>
        <trkpt lat="28.668891" lon="104.170752"><ele>832.1051</ele><time>2026-03-06T19:24:59.000Z</time></trkpt>
        <trkpt lat="28.668944" lon="104.170762"><ele>833.21985</ele><time>2026-03-06T19:25:03.000Z</time></trkpt>
        <trkpt lat="28.668999" lon="104.170769"><ele>834.33514</ele><time>2026-03-06T19:25:07.000Z</time></trkpt>
        <trkpt lat="28.669057" lon="104.170785"><ele>834.4707</ele><time>2026-03-06T19:25:12.000Z</time></trkpt>
        <trkpt lat="28.669103" lon="104.170804"><ele>834.2103</ele><time>2026-03-06T19:25:16.000Z</time></trkpt>
        <trkpt lat="28.669148" lon="104.170826"><ele>833.838</ele><time>2026-03-06T19:25:20.000Z</time></trkpt>
        <trkpt lat="28.669207" lon="104.170858"><ele>834.5278</ele><time>2026-03-06T19:25:26.000Z</time></trkpt>
        <trkpt lat="28.669255" lon="104.170885"><ele>834.6164</ele><time>2026-03-06T19:25:31.000Z</time></trkpt>
        <trkpt lat="28.669314" lon="104.170898"><ele>835.1937</ele><time>2026-03-06T19:25:36.000Z</time></trkpt>
        <trkpt lat="28.669356" lon="104.170915"><ele>837.39594</ele><time>2026-03-06T19:25:39.000Z</time></trkpt>
        <trkpt lat="28.669402" lon="104.170942"><ele>838.359</ele><time>2026-03-06T19:25:43.000Z</time></trkpt>
        <trkpt lat="28.66944" lon="104.170976"><ele>838.51166</ele><time>2026-03-06T19:25:47.000Z</time></trkpt>
        <trkpt lat="28.669465" lon="104.171034"><ele>839.17816</ele><time>2026-03-06T19:25:52.000Z</time></trkpt>
        <trkpt lat="28.669473" lon="104.171088"><ele>839.0187</ele><time>2026-03-06T19:25:56.000Z</time></trkpt>
        <trkpt lat="28.66948" lon="104.171143"><ele>839.46674</ele><time>2026-03-06T19:26:00.000Z</time></trkpt>
        <trkpt lat="28.669473" lon="104.171207"><ele>839.66644</ele><time>2026-03-06T19:26:05.000Z</time></trkpt>
        <trkpt lat="28.669468" lon="104.171253"><ele>840.16156</ele><time>2026-03-06T19:26:08.000Z</time></trkpt>
        <trkpt lat="28.669484" lon="104.171302"><ele>841.3286</ele><time>2026-03-06T19:26:12.000Z</time></trkpt>
        <trkpt lat="28.66951" lon="104.171359"><ele>841.42114</ele><time>2026-03-06T19:26:17.000Z</time></trkpt>
        <trkpt lat="28.669536" lon="104.171408"><ele>841.79877</ele><time>2026-03-06T19:26:22.000Z</time></trkpt>
        <trkpt lat="28.669571" lon="104.171448"><ele>842.2363</ele><time>2026-03-06T19:26:27.000Z</time></trkpt>
        <trkpt lat="28.669619" lon="104.171466"><ele>842.27203</ele><time>2026-03-06T19:26:32.000Z</time></trkpt>
        <trkpt lat="28.669668" lon="104.171458"><ele>842.477</ele><time>2026-03-06T19:26:36.000Z</time></trkpt>
        <trkpt lat="28.669723" lon="104.171441"><ele>842.5992</ele><time>2026-03-06T19:26:41.000Z</time></trkpt>
        <trkpt lat="28.66977" lon="104.171429"><ele>842.6813</ele><time>2026-03-06T19:26:45.000Z</time></trkpt>
        <trkpt lat="28.669818" lon="104.171421"><ele>843.1035</ele><time>2026-03-06T19:26:49.000Z</time></trkpt>
        <trkpt lat="28.669874" lon="104.171429"><ele>844.08246</ele><time>2026-03-06T19:27:08.000Z</time></trkpt>
        <trkpt lat="28.669905" lon="104.171426"><ele>843.9633</ele><time>2026-03-06T19:27:12.000Z</time></trkpt>
        <trkpt lat="28.669949" lon="104.171436"><ele>843.7987</ele><time>2026-03-06T19:27:16.000Z</time></trkpt>
        <trkpt lat="28.67" lon="104.171446"><ele>842.88696</ele><time>2026-03-06T19:27:20.000Z</time></trkpt>
        <trkpt lat="28.670047" lon="104.171478"><ele>843.114</ele><time>2026-03-06T19:27:25.000Z</time></trkpt>
        <trkpt lat="28.670091" lon="104.1715"><ele>842.8246</ele><time>2026-03-06T19:27:29.000Z</time></trkpt>
        <trkpt lat="28.67014" lon="104.171528"><ele>842.4094</ele><time>2026-03-06T19:27:34.000Z</time></trkpt>
        <trkpt lat="28.67018" lon="104.171566"><ele>842.24817</ele><time>2026-03-06T19:27:38.000Z</time></trkpt>
        <trkpt lat="28.670218" lon="104.171604"><ele>842.93207</ele><time>2026-03-06T19:27:42.000Z</time></trkpt>
        <trkpt lat="28.670267" lon="104.171632"><ele>842.9109</ele><time>2026-03-06T19:27:47.000Z</time></trkpt>
        <trkpt lat="28.670317" lon="104.171642"><ele>843.04346</ele><time>2026-03-06T19:27:51.000Z</time></trkpt>
        <trkpt lat="28.670375" lon="104.171642"><ele>844.4159</ele><time>2026-03-06T19:27:55.000Z</time></trkpt>
        <trkpt lat="28.670428" lon="104.171611"><ele>844.2496</ele><time>2026-03-06T19:28:00.000Z</time></trkpt>
        <trkpt lat="28.670463" lon="104.171571"><ele>844.29315</ele><time>2026-03-06T19:28:04.000Z</time></trkpt>
        <trkpt lat="28.670502" lon="104.171542"><ele>844.4689</ele><time>2026-03-06T19:28:08.000Z</time></trkpt>
        <trkpt lat="28.670545" lon="104.171514"><ele>842.838</ele><time>2026-03-06T19:28:13.000Z</time></trkpt>
        <trkpt lat="28.670594" lon="104.171497"><ele>842.38715</ele><time>2026-03-06T19:28:18.000Z</time></trkpt>
        <trkpt lat="28.670641" lon="104.171478"><ele>843.5646</ele><time>2026-03-06T19:28:24.000Z</time></trkpt>
        <trkpt lat="28.670685" lon="104.171458"><ele>843.9282</ele><time>2026-03-06T19:28:29.000Z</time></trkpt>
        <trkpt lat="28.670735" lon="104.171442"><ele>844.8376</ele><time>2026-03-06T19:28:33.000Z</time></trkpt>
        <trkpt lat="28.670788" lon="104.171426"><ele>845.534</ele><time>2026-03-06T19:28:37.000Z</time></trkpt>
        <trkpt lat="28.670841" lon="104.171413"><ele>845.89154</ele><time>2026-03-06T19:28:42.000Z</time></trkpt>
        <trkpt lat="28.670886" lon="104.171415"><ele>846.2399</ele><time>2026-03-06T19:28:46.000Z</time></trkpt>
        <trkpt lat="28.670932" lon="104.17142"><ele>845.91016</ele><time>2026-03-06T19:28:50.000Z</time></trkpt>
        <trkpt lat="28.670973" lon="104.171412"><ele>846.9683</ele><time>2026-03-06T19:28:53.000Z</time></trkpt>
        <trkpt lat="28.671033" lon="104.171407"><ele>846.893</ele><time>2026-03-06T19:28:58.000Z</time></trkpt>
        <trkpt lat="28.671082" lon="104.171394"><ele>846.7496</ele><time>2026-03-06T19:29:02.000Z</time></trkpt>
        <trkpt lat="28.671136" lon="104.171373"><ele>847.2481</ele><time>2026-03-06T19:29:07.000Z</time></trkpt>
        <trkpt lat="28.67119" lon="104.171366"><ele>848.34204</ele><time>2026-03-06T19:29:12.000Z</time></trkpt>
        <trkpt lat="28.671252" lon="104.171397"><ele>849.70447</ele><time>2026-03-06T19:29:19.000Z</time></trkpt>
        <trkpt lat="28.6713" lon="104.171413"><ele>848.7262</ele><time>2026-03-06T19:29:24.000Z</time></trkpt>
        <trkpt lat="28.671355" lon="104.171424"><ele>848.5493</ele><time>2026-03-06T19:29:29.000Z</time></trkpt>
        <trkpt lat="28.671401" lon="104.171429"><ele>848.8121</ele><time>2026-03-06T19:29:33.000Z</time></trkpt>
        <trkpt lat="28.67146" lon="104.171434"><ele>849.1164</ele><time>2026-03-06T19:29:38.000Z</time></trkpt>
        <trkpt lat="28.671514" lon="104.171435"><ele>849.58105</ele><time>2026-03-06T19:29:43.000Z</time></trkpt>
        <trkpt lat="28.67156" lon="104.171435"><ele>849.6308</ele><time>2026-03-06T19:29:47.000Z</time></trkpt>
        <trkpt lat="28.671616" lon="104.171425"><ele>849.536</ele><time>2026-03-06T19:29:52.000Z</time></trkpt>
        <trkpt lat="28.671666" lon="104.171411"><ele>850.04504</ele><time>2026-03-06T19:29:57.000Z</time></trkpt>
        <trkpt lat="28.671715" lon="104.171389"><ele>850.37683</ele><time>2026-03-06T19:30:02.000Z</time></trkpt>
        <trkpt lat="28.671765" lon="104.17139"><ele>852.46967</ele><time>2026-03-06T19:30:16.000Z</time></trkpt>
        <trkpt lat="28.671792" lon="104.171363"><ele>852.4332</ele><time>2026-03-06T19:30:20.000Z</time></trkpt>
        <trkpt lat="28.671824" lon="104.171322"><ele>852.36206</ele><time>2026-03-06T19:30:24.000Z</time></trkpt>
        <trkpt lat="28.671854" lon="104.171267"><ele>853.53766</ele><time>2026-03-06T19:30:29.000Z</time></trkpt>
        <trkpt lat="28.671868" lon="104.171205"><ele>854.8901</ele><time>2026-03-06T19:30:35.000Z</time></trkpt>
        <trkpt lat="28.671899" lon="104.171156"><ele>854.6444</ele><time>2026-03-06T19:30:42.000Z</time></trkpt>
        <trkpt lat="28.67192" lon="104.171099"><ele>854.9574</ele><time>2026-03-06T19:30:48.000Z</time></trkpt>
        <trkpt lat="28.671918" lon="104.171054"><ele>855.40564</ele><time>2026-03-06T19:30:51.000Z</time></trkpt>
        <trkpt lat="28.671946" lon="104.171008"><ele>856.9022</ele><time>2026-03-06T19:30:56.000Z</time></trkpt>
        <trkpt lat="28.671954" lon="104.170955"><ele>857.51917</ele><time>2026-03-06T19:31:00.000Z</time></trkpt>
        <trkpt lat="28.671982" lon="104.170944"><ele>858.36554</ele><time>2026-03-06T19:31:03.000Z</time></trkpt>
        <trkpt lat="28.672017" lon="104.170975"><ele>858.619</ele><time>2026-03-06T19:31:08.000Z</time></trkpt>
        <trkpt lat="28.672021" lon="104.170948"><ele>857.082</ele><time>2026-03-06T19:31:33.000Z</time></trkpt>
        <trkpt lat="28.672047" lon="104.170944"><ele>856.14185</ele><time>2026-03-06T19:31:37.000Z</time></trkpt>
        <trkpt lat="28.672101" lon="104.170949"><ele>857.9905</ele><time>2026-03-06T19:31:43.000Z</time></trkpt>
        <trkpt lat="28.672148" lon="104.170939"><ele>859.7792</ele><time>2026-03-06T19:31:47.000Z</time></trkpt>
        <trkpt lat="28.672194" lon="104.170922"><ele>859.9588</ele><time>2026-03-06T19:31:51.000Z</time></trkpt>
        <trkpt lat="28.672252" lon="104.170908"><ele>859.9389</ele><time>2026-03-06T19:31:55.000Z</time></trkpt>
        <trkpt lat="28.672314" lon="104.170905"><ele>859.47076</ele><time>2026-03-06T19:32:01.000Z</time></trkpt>
        <trkpt lat="28.672364" lon="104.170912"><ele>860.2082</ele><time>2026-03-06T19:32:05.000Z</time></trkpt>
        <trkpt lat="28.672425" lon="104.170928"><ele>860.10144</ele><time>2026-03-06T19:32:10.000Z</time></trkpt>
        <trkpt lat="28.672471" lon="104.170953"><ele>860.1078</ele><time>2026-03-06T19:32:14.000Z</time></trkpt>
        <trkpt lat="28.672511" lon="104.170991"><ele>860.29407</ele><time>2026-03-06T19:32:18.000Z</time></trkpt>
        <trkpt lat="28.672546" lon="104.171041"><ele>860.447</ele><time>2026-03-06T19:32:22.000Z</time></trkpt>
        <trkpt lat="28.672587" lon="104.171089"><ele>861.4324</ele><time>2026-03-06T19:32:27.000Z</time></trkpt>
        <trkpt lat="28.672635" lon="104.171104"><ele>861.62115</ele><time>2026-03-06T19:32:31.000Z</time></trkpt>
        <trkpt lat="28.672684" lon="104.171119"><ele>861.22595</ele><time>2026-03-06T19:32:35.000Z</time></trkpt>
        <trkpt lat="28.672739" lon="104.171119"><ele>861.28314</ele><time>2026-03-06T19:32:39.000Z</time></trkpt>
        <trkpt lat="28.672788" lon="104.171127"><ele>861.5368</ele><time>2026-03-06T19:32:43.000Z</time></trkpt>
        <trkpt lat="28.67283" lon="104.171148"><ele>861.8988</ele><time>2026-03-06T19:32:46.000Z</time></trkpt>
        <trkpt lat="28.672878" lon="104.171194"><ele>861.6188</ele><time>2026-03-06T19:32:52.000Z</time></trkpt>
        <trkpt lat="28.672877" lon="104.171243"><ele>862.2236</ele><time>2026-03-06T19:32:56.000Z</time></trkpt>
        <trkpt lat="28.672865" lon="104.171297"><ele>862.5279</ele><time>2026-03-06T19:33:00.000Z</time></trkpt>
        <trkpt lat="28.672848" lon="104.171354"><ele>862.2498</ele><time>2026-03-06T19:33:05.000Z</time></trkpt>
        <trkpt lat="28.672842" lon="104.171399"><ele>862.09607</ele><time>2026-03-06T19:33:08.000Z</time></trkpt>
        <trkpt lat="28.672848" lon="104.171466"><ele>862.69226</ele><time>2026-03-06T19:33:13.000Z</time></trkpt>
        <trkpt lat="28.672867" lon="104.17152"><ele>862.9669</ele><time>2026-03-06T19:33:17.000Z</time></trkpt>
        <trkpt lat="28.672894" lon="104.171584"><ele>861.56744</ele><time>2026-03-06T19:33:22.000Z</time></trkpt>
        <trkpt lat="28.672923" lon="104.171644"><ele>860.6529</ele><time>2026-03-06T19:33:27.000Z</time></trkpt>
        <trkpt lat="28.67294" lon="104.171688"><ele>862.2587</ele><time>2026-03-06T19:33:30.000Z</time></trkpt>
        <trkpt lat="28.672949" lon="104.171753"><ele>862.5853</ele><time>2026-03-06T19:33:35.000Z</time></trkpt>
        <trkpt lat="28.672955" lon="104.171808"><ele>862.2957</ele><time>2026-03-06T19:33:39.000Z</time></trkpt>
        <trkpt lat="28.672961" lon="104.171862"><ele>862.65515</ele><time>2026-03-06T19:33:43.000Z</time></trkpt>
        <trkpt lat="28.67296" lon="104.171917"><ele>862.1447</ele><time>2026-03-06T19:33:47.000Z</time></trkpt>
        <trkpt lat="28.672949" lon="104.171975"><ele>862.14575</ele><time>2026-03-06T19:33:51.000Z</time></trkpt>
        <trkpt lat="28.672937" lon="104.172033"><ele>862.4899</ele><time>2026-03-06T19:33:55.000Z</time></trkpt>
        <trkpt lat="28.672937" lon="104.172096"><ele>861.97565</ele><time>2026-03-06T19:34:00.000Z</time></trkpt>
        <trkpt lat="28.672946" lon="104.172145"><ele>861.92126</ele><time>2026-03-06T19:34:04.000Z</time></trkpt>
        <trkpt lat="28.672966" lon="104.172194"><ele>862.6372</ele><time>2026-03-06T19:34:08.000Z</time></trkpt>
        <trkpt lat="28.672992" lon="104.172239"><ele>863.3346</ele><time>2026-03-06T19:34:12.000Z</time></trkpt>
        <trkpt lat="28.673035" lon="104.172277"><ele>863.24036</ele><time>2026-03-06T19:34:17.000Z</time></trkpt>
        <trkpt lat="28.673083" lon="104.172297"><ele>863.7268</ele><time>2026-03-06T19:34:21.000Z</time></trkpt>
        <trkpt lat="28.67314" lon="104.172317"><ele>864.92615</ele><time>2026-03-06T19:34:26.000Z</time></trkpt>
        <trkpt lat="28.673183" lon="104.172337"><ele>865.51807</ele><time>2026-03-06T19:34:30.000Z</time></trkpt>
        <trkpt lat="28.673236" lon="104.17236"><ele>865.843</ele><time>2026-03-06T19:34:35.000Z</time></trkpt>
        <trkpt lat="28.673275" lon="104.172395"><ele>867.019</ele><time>2026-03-06T19:34:39.000Z</time></trkpt>
        <trkpt lat="28.673308" lon="104.172446"><ele>868.206</ele><time>2026-03-06T19:34:46.000Z</time></trkpt>
        <trkpt lat="28.673345" lon="104.172484"><ele>868.62115</ele><time>2026-03-06T19:34:51.000Z</time></trkpt>
        <trkpt lat="28.673385" lon="104.172525"><ele>869.1345</ele><time>2026-03-06T19:34:56.000Z</time></trkpt>
        <trkpt lat="28.673424" lon="104.172552"><ele>869.3515</ele><time>2026-03-06T19:35:00.000Z</time></trkpt>
        <trkpt lat="28.673471" lon="104.172572"><ele>870.2363</ele><time>2026-03-06T19:35:04.000Z</time></trkpt>
        <trkpt lat="28.67352" lon="104.172573"><ele>869.89355</ele><time>2026-03-06T19:35:08.000Z</time></trkpt>
        <trkpt lat="28.673571" lon="104.172572"><ele>869.4735</ele><time>2026-03-06T19:35:12.000Z</time></trkpt>
        <trkpt lat="28.673621" lon="104.172582"><ele>869.815</ele><time>2026-03-06T19:35:16.000Z</time></trkpt>
        <trkpt lat="28.673667" lon="104.1726"><ele>870.25085</ele><time>2026-03-06T19:35:20.000Z</time></trkpt>
        <trkpt lat="28.673709" lon="104.172639"><ele>871.471</ele><time>2026-03-06T19:35:25.000Z</time></trkpt>
        <trkpt lat="28.673738" lon="104.17268"><ele>871.99023</ele><time>2026-03-06T19:35:29.000Z</time></trkpt>
        <trkpt lat="28.673766" lon="104.172734"><ele>872.5413</ele><time>2026-03-06T19:35:34.000Z</time></trkpt>
        <trkpt lat="28.673795" lon="104.172794"><ele>874.37885</ele><time>2026-03-06T19:36:01.000Z</time></trkpt>
        <trkpt lat="28.673812" lon="104.172818"><ele>875.0062</ele><time>2026-03-06T19:36:05.000Z</time></trkpt>
        <trkpt lat="28.673843" lon="104.172879"><ele>876.1548</ele><time>2026-03-06T19:36:10.000Z</time></trkpt>
        <trkpt lat="28.673875" lon="104.17293"><ele>876.3851</ele><time>2026-03-06T19:36:14.000Z</time></trkpt>
        <trkpt lat="28.673878" lon="104.17299"><ele>876.4726</ele><time>2026-03-06T19:36:19.000Z</time></trkpt>
        <trkpt lat="28.673864" lon="104.173041"><ele>877.8126</ele><time>2026-03-06T19:36:23.000Z</time></trkpt>
        <trkpt lat="28.673831" lon="104.173085"><ele>877.7693</ele><time>2026-03-06T19:36:27.000Z</time></trkpt>
        <trkpt lat="28.673788" lon="104.173141"><ele>879.0273</ele><time>2026-03-06T19:36:34.000Z</time></trkpt>
        <trkpt lat="28.673783" lon="104.173185"><ele>877.8649</ele><time>2026-03-06T19:36:38.000Z</time></trkpt>
        <trkpt lat="28.673792" lon="104.173249"><ele>877.74304</ele><time>2026-03-06T19:36:44.000Z</time></trkpt>
        <trkpt lat="28.673822" lon="104.173301"><ele>877.62146</ele><time>2026-03-06T19:36:48.000Z</time></trkpt>
        <trkpt lat="28.673877" lon="104.173318"><ele>877.4745</ele><time>2026-03-06T19:36:54.000Z</time></trkpt>
        <trkpt lat="28.673936" lon="104.173323"><ele>878.62384</ele><time>2026-03-06T19:37:00.000Z</time></trkpt>
        <trkpt lat="28.673988" lon="104.173312"><ele>878.7925</ele><time>2026-03-06T19:37:06.000Z</time></trkpt>
        <trkpt lat="28.674033" lon="104.173311"><ele>878.98395</ele><time>2026-03-06T19:37:12.000Z</time></trkpt>
        <trkpt lat="28.674067" lon="104.173268"><ele>880.24115</ele><time>2026-03-06T19:37:21.000Z</time></trkpt>
        <trkpt lat="28.674105" lon="104.173264"><ele>880.14404</ele><time>2026-03-06T19:37:26.000Z</time></trkpt>
        <trkpt lat="28.674145" lon="104.173281"><ele>880.39307</ele><time>2026-03-06T19:37:29.000Z</time></trkpt>
        <trkpt lat="28.67417" lon="104.173336"><ele>880.24506</ele><time>2026-03-06T19:37:36.000Z</time></trkpt>
        <trkpt lat="28.674187" lon="104.173377"><ele>880.90247</ele><time>2026-03-06T19:37:39.000Z</time></trkpt>
        <trkpt lat="28.674207" lon="104.17344"><ele>882.0579</ele><time>2026-03-06T19:37:45.000Z</time></trkpt>
        <trkpt lat="28.674217" lon="104.173489"><ele>882.16504</ele><time>2026-03-06T19:37:49.000Z</time></trkpt>
        <trkpt lat="28.674206" lon="104.173545"><ele>882.48846</ele><time>2026-03-06T19:37:54.000Z</time></trkpt>
        <trkpt lat="28.674161" lon="104.173594"><ele>883.8556</ele><time>2026-03-06T19:38:00.000Z</time></trkpt>
        <trkpt lat="28.674128" lon="104.173634"><ele>883.62805</ele><time>2026-03-06T19:38:05.000Z</time></trkpt>
        <trkpt lat="28.674092" lon="104.173674"><ele>883.52905</ele><time>2026-03-06T19:38:11.000Z</time></trkpt>
        <trkpt lat="28.674059" lon="104.173722"><ele>883.43005</ele><time>2026-03-06T19:38:17.000Z</time></trkpt>
        <trkpt lat="28.674043" lon="104.173775"><ele>884.4325</ele><time>2026-03-06T19:38:22.000Z</time></trkpt>
        <trkpt lat="28.674039" lon="104.173828"><ele>884.5535</ele><time>2026-03-06T19:38:26.000Z</time></trkpt>
        <trkpt lat="28.674054" lon="104.173894"><ele>882.72437</ele><time>2026-03-06T19:38:42.000Z</time></trkpt>
        <trkpt lat="28.674088" lon="104.173915"><ele>883.4665</ele><time>2026-03-06T19:38:46.000Z</time></trkpt>
        <trkpt lat="28.674123" lon="104.173943"><ele>883.73755</ele><time>2026-03-06T19:38:49.000Z</time></trkpt>
        <trkpt lat="28.67417" lon="104.173998"><ele>884.4747</ele><time>2026-03-06T19:38:54.000Z</time></trkpt>
        <trkpt lat="28.674208" lon="104.174039"><ele>884.3689</ele><time>2026-03-06T19:38:58.000Z</time></trkpt>
        <trkpt lat="28.674243" lon="104.174091"><ele>885.5301</ele><time>2026-03-06T19:39:03.000Z</time></trkpt>
        <trkpt lat="28.674281" lon="104.17413"><ele>885.90405</ele><time>2026-03-06T19:39:07.000Z</time></trkpt>
        <trkpt lat="28.674311" lon="104.174186"><ele>887.08453</ele><time>2026-03-06T19:39:12.000Z</time></trkpt>
        <trkpt lat="28.674337" lon="104.174235"><ele>886.1233</ele><time>2026-03-06T19:39:17.000Z</time></trkpt>
        <trkpt lat="28.67437" lon="104.174291"><ele>886.5885</ele><time>2026-03-06T19:39:22.000Z</time></trkpt>
        <trkpt lat="28.674409" lon="104.174335"><ele>887.68646</ele><time>2026-03-06T19:39:27.000Z</time></trkpt>
        <trkpt lat="28.674455" lon="104.174359"><ele>888.5546</ele><time>2026-03-06T19:39:31.000Z</time></trkpt>
        <trkpt lat="28.674506" lon="104.174371"><ele>890.034</ele><time>2026-03-06T19:39:36.000Z</time></trkpt>
        <trkpt lat="28.674574" lon="104.174368"><ele>889.69586</ele><time>2026-03-06T19:39:44.000Z</time></trkpt>
        <trkpt lat="28.674623" lon="104.174359"><ele>891.8954</ele><time>2026-03-06T19:39:50.000Z</time></trkpt>
        <trkpt lat="28.674662" lon="104.174345"><ele>892.5417</ele><time>2026-03-06T19:39:54.000Z</time></trkpt>
        <trkpt lat="28.674703" lon="104.174338"><ele>893.1828</ele><time>2026-03-06T19:39:57.000Z</time></trkpt>
        <trkpt lat="28.674753" lon="104.174341"><ele>893.29315</ele><time>2026-03-06T19:40:01.000Z</time></trkpt>
        <trkpt lat="28.674803" lon="104.174362"><ele>893.6221</ele><time>2026-03-06T19:40:06.000Z</time></trkpt>
        <trkpt lat="28.674839" lon="104.174396"><ele>893.0533</ele><time>2026-03-06T19:40:10.000Z</time></trkpt>
        <trkpt lat="28.674865" lon="104.174441"><ele>892.53796</ele><time>2026-03-06T19:40:14.000Z</time></trkpt>
        <trkpt lat="28.674886" lon="104.174512"><ele>893.2387</ele><time>2026-03-06T19:40:25.000Z</time></trkpt>
        <trkpt lat="28.674917" lon="104.174536"><ele>893.68304</ele><time>2026-03-06T19:40:30.000Z</time></trkpt>
        <trkpt lat="28.674968" lon="104.174554"><ele>894.14386</ele><time>2026-03-06T19:40:35.000Z</time></trkpt>
        <trkpt lat="28.675015" lon="104.174557"><ele>894.9625</ele><time>2026-03-06T19:40:39.000Z</time></trkpt>
        <trkpt lat="28.67507" lon="104.174546"><ele>895.34955</ele><time>2026-03-06T19:40:44.000Z</time></trkpt>
        <trkpt lat="28.67512" lon="104.174525"><ele>895.346</ele><time>2026-03-06T19:40:49.000Z</time></trkpt>
        <trkpt lat="28.675168" lon="104.174503"><ele>895.0949</ele><time>2026-03-06T19:40:54.000Z</time></trkpt>
        <trkpt lat="28.675208" lon="104.174476"><ele>894.59357</ele><time>2026-03-06T19:40:58.000Z</time></trkpt>
        <trkpt lat="28.675247" lon="104.174446"><ele>895.094</ele><time>2026-03-06T19:41:02.000Z</time></trkpt>
        <trkpt lat="28.675291" lon="104.174422"><ele>894.9297</ele><time>2026-03-06T19:41:06.000Z</time></trkpt>
        <trkpt lat="28.675331" lon="104.174383"><ele>894.506</ele><time>2026-03-06T19:41:10.000Z</time></trkpt>
        <trkpt lat="28.675367" lon="104.174338"><ele>893.6857</ele><time>2026-03-06T19:41:15.000Z</time></trkpt>
        <trkpt lat="28.675401" lon="104.174301"><ele>892.7812</ele><time>2026-03-06T19:41:19.000Z</time></trkpt>
        <trkpt lat="28.675441" lon="104.174281"><ele>893.2021</ele><time>2026-03-06T19:41:22.000Z</time></trkpt>
        <trkpt lat="28.675498" lon="104.174268"><ele>893.1159</ele><time>2026-03-06T19:41:27.000Z</time></trkpt>
        <trkpt lat="28.675543" lon="104.174265"><ele>893.1233</ele><time>2026-03-06T19:41:30.000Z</time></trkpt>
        <trkpt lat="28.675594" lon="104.174254"><ele>892.2703</ele><time>2026-03-06T19:41:34.000Z</time></trkpt>
        <trkpt lat="28.675644" lon="104.174221"><ele>892.27466</ele><time>2026-03-06T19:41:38.000Z</time></trkpt>
        <trkpt lat="28.67569" lon="104.174184"><ele>891.9217</ele><time>2026-03-06T19:41:43.000Z</time></trkpt>
        <trkpt lat="28.675734" lon="104.174152"><ele>892.9893</ele><time>2026-03-06T19:41:47.000Z</time></trkpt>
        <trkpt lat="28.67578" lon="104.174127"><ele>893.09753</ele><time>2026-03-06T19:41:51.000Z</time></trkpt>
        <trkpt lat="28.675828" lon="104.174104"><ele>893.0922</ele><time>2026-03-06T19:41:55.000Z</time></trkpt>
        <trkpt lat="28.67589" lon="104.174086"><ele>892.1523</ele><time>2026-03-06T19:42:02.000Z</time></trkpt>
        <trkpt lat="28.67594" lon="104.174111"><ele>892.7142</ele><time>2026-03-06T19:42:08.000Z</time></trkpt>
        <trkpt lat="28.675971" lon="104.174153"><ele>894.19086</ele><time>2026-03-06T19:42:13.000Z</time></trkpt>
        <trkpt lat="28.676007" lon="104.174196"><ele>894.737</ele><time>2026-03-06T19:42:19.000Z</time></trkpt>
        <trkpt lat="28.676034" lon="104.174234"><ele>894.7966</ele><time>2026-03-06T19:42:23.000Z</time></trkpt>
        <trkpt lat="28.676056" lon="104.174289"><ele>893.2966</ele><time>2026-03-06T19:42:28.000Z</time></trkpt>
        <trkpt lat="28.676063" lon="104.174343"><ele>893.36224</ele><time>2026-03-06T19:42:32.000Z</time></trkpt>
        <trkpt lat="28.676063" lon="104.174392"><ele>893.1482</ele><time>2026-03-06T19:42:35.000Z</time></trkpt>
        <trkpt lat="28.676062" lon="104.174459"><ele>894.044</ele><time>2026-03-06T19:42:40.000Z</time></trkpt>
        <trkpt lat="28.676061" lon="104.174512"><ele>893.62823</ele><time>2026-03-06T19:42:44.000Z</time></trkpt>
        <trkpt lat="28.676046" lon="104.174573"><ele>894.7347</ele><time>2026-03-06T19:42:49.000Z</time></trkpt>
        <trkpt lat="28.676021" lon="104.174634"><ele>894.6964</ele><time>2026-03-06T19:42:54.000Z</time></trkpt>
        <trkpt lat="28.676" lon="104.174688"><ele>894.3513</ele><time>2026-03-06T19:42:59.000Z</time></trkpt>
        <trkpt lat="28.675985" lon="104.174734"><ele>894.2351</ele><time>2026-03-06T19:43:03.000Z</time></trkpt>
        <trkpt lat="28.675983" lon="104.174788"><ele>894.8982</ele><time>2026-03-06T19:43:07.000Z</time></trkpt>
        <trkpt lat="28.676017" lon="104.17484"><ele>896.03644</ele><time>2026-03-06T19:43:14.000Z</time></trkpt>
        <trkpt lat="28.676057" lon="104.174881"><ele>897.19745</ele><time>2026-03-06T19:43:20.000Z</time></trkpt>
        <trkpt lat="28.676102" lon="104.174912"><ele>898.11774</ele><time>2026-03-06T19:43:25.000Z</time></trkpt>
        <trkpt lat="28.676135" lon="104.174958"><ele>898.8991</ele><time>2026-03-06T19:43:30.000Z</time></trkpt>
        <trkpt lat="28.676163" lon="104.17502"><ele>899.1583</ele><time>2026-03-06T19:43:36.000Z</time></trkpt>
        <trkpt lat="28.676165" lon="104.175082"><ele>899.54584</ele><time>2026-03-06T19:43:54.000Z</time></trkpt>
        <trkpt lat="28.676159" lon="104.175125"><ele>898.8934</ele><time>2026-03-06T19:43:59.000Z</time></trkpt>
        <trkpt lat="28.676164" lon="104.175181"><ele>897.66656</ele><time>2026-03-06T19:44:03.000Z</time></trkpt>
        <trkpt lat="28.676178" lon="104.175245"><ele>897.9151</ele><time>2026-03-06T19:44:07.000Z</time></trkpt>
        <trkpt lat="28.6762" lon="104.175328"><ele>897.29517</ele><time>2026-03-06T19:44:14.000Z</time></trkpt>
        <trkpt lat="28.676202" lon="104.175379"><ele>897.05664</ele><time>2026-03-06T19:44:18.000Z</time></trkpt>
        <trkpt lat="28.676199" lon="104.175447"><ele>897.25366</ele><time>2026-03-06T19:44:24.000Z</time></trkpt>
        <trkpt lat="28.676196" lon="104.175506"><ele>896.8525</ele><time>2026-03-06T19:44:29.000Z</time></trkpt>
        <trkpt lat="28.676212" lon="104.175555"><ele>897.0867</ele><time>2026-03-06T19:44:33.000Z</time></trkpt>
        <trkpt lat="28.676227" lon="104.175607"><ele>897.38794</ele><time>2026-03-06T19:44:37.000Z</time></trkpt>
        <trkpt lat="28.676252" lon="104.175659"><ele>898.0387</ele><time>2026-03-06T19:44:41.000Z</time></trkpt>
        <trkpt lat="28.676278" lon="104.175709"><ele>898.7147</ele><time>2026-03-06T19:44:45.000Z</time></trkpt>
        <trkpt lat="28.676315" lon="104.175748"><ele>900.0756</ele><time>2026-03-06T19:44:49.000Z</time></trkpt>
        <trkpt lat="28.676353" lon="104.175793"><ele>900.23486</ele><time>2026-03-06T19:44:54.000Z</time></trkpt>
        <trkpt lat="28.676382" lon="104.17583"><ele>900.27057</ele><time>2026-03-06T19:44:58.000Z</time></trkpt>
        <trkpt lat="28.676423" lon="104.175861"><ele>900.11316</ele><time>2026-03-06T19:45:02.000Z</time></trkpt>
        <trkpt lat="28.676469" lon="104.175892"><ele>900.7645</ele><time>2026-03-06T19:45:06.000Z</time></trkpt>
        <trkpt lat="28.67652" lon="104.175913"><ele>900.91327</ele><time>2026-03-06T19:45:10.000Z</time></trkpt>
        <trkpt lat="28.676574" lon="104.175945"><ele>901.0047</ele><time>2026-03-06T19:45:15.000Z</time></trkpt>
        <trkpt lat="28.676609" lon="104.175985"><ele>900.7471</ele><time>2026-03-06T19:45:19.000Z</time></trkpt>
        <trkpt lat="28.676631" lon="104.176034"><ele>901.5097</ele><time>2026-03-06T19:45:23.000Z</time></trkpt>
        <trkpt lat="28.67664" lon="104.176091"><ele>902.4218</ele><time>2026-03-06T19:45:28.000Z</time></trkpt>
        <trkpt lat="28.676658" lon="104.176144"><ele>903.36707</ele><time>2026-03-06T19:45:49.000Z</time></trkpt>
        <trkpt lat="28.67667" lon="104.176197"><ele>904.08887</ele><time>2026-03-06T19:46:11.000Z</time></trkpt>
        <trkpt lat="28.676674" lon="104.176252"><ele>903.832</ele><time>2026-03-06T19:46:17.000Z</time></trkpt>
        <trkpt lat="28.676676" lon="104.176313"><ele>903.8801</ele><time>2026-03-06T19:46:23.000Z</time></trkpt>
        <trkpt lat="28.676671" lon="104.176372"><ele>904.08734</ele><time>2026-03-06T19:46:28.000Z</time></trkpt>
        <trkpt lat="28.676662" lon="104.176433"><ele>904.7229</ele><time>2026-03-06T19:46:33.000Z</time></trkpt>
        <trkpt lat="28.676658" lon="104.17649"><ele>905.3543</ele><time>2026-03-06T19:46:38.000Z</time></trkpt>
        <trkpt lat="28.676648" lon="104.176547"><ele>905.9105</ele><time>2026-03-06T19:46:43.000Z</time></trkpt>
        <trkpt lat="28.676641" lon="104.176605"><ele>906.5087</ele><time>2026-03-06T19:46:48.000Z</time></trkpt>
        <trkpt lat="28.676646" lon="104.176662"><ele>906.64996</ele><time>2026-03-06T19:46:53.000Z</time></trkpt>
        <trkpt lat="28.676663" lon="104.176709"><ele>906.6312</ele><time>2026-03-06T19:46:57.000Z</time></trkpt>
        <trkpt lat="28.676691" lon="104.176759"><ele>906.4109</ele><time>2026-03-06T19:47:02.000Z</time></trkpt>
        <trkpt lat="28.676726" lon="104.176795"><ele>906.1671</ele><time>2026-03-06T19:47:06.000Z</time></trkpt>
        <trkpt lat="28.676769" lon="104.176826"><ele>906.03253</ele><time>2026-03-06T19:47:10.000Z</time></trkpt>
        <trkpt lat="28.676818" lon="104.176862"><ele>906.0387</ele><time>2026-03-06T19:47:15.000Z</time></trkpt>
        <trkpt lat="28.676861" lon="104.176901"><ele>906.03564</ele><time>2026-03-06T19:47:20.000Z</time></trkpt>
        <trkpt lat="28.676896" lon="104.17693"><ele>906.0459</ele><time>2026-03-06T19:47:24.000Z</time></trkpt>
        <trkpt lat="28.676934" lon="104.176974"><ele>906.05774</ele><time>2026-03-06T19:47:29.000Z</time></trkpt>
        <trkpt lat="28.676964" lon="104.177011"><ele>905.60675</ele><time>2026-03-06T19:47:33.000Z</time></trkpt>
        <trkpt lat="28.677001" lon="104.177046"><ele>905.46716</ele><time>2026-03-06T19:47:37.000Z</time></trkpt>
        <trkpt lat="28.677035" lon="104.177082"><ele>905.27374</ele><time>2026-03-06T19:47:41.000Z</time></trkpt>
        <trkpt lat="28.67708" lon="104.177117"><ele>905.99084</ele><time>2026-03-06T19:47:45.000Z</time></trkpt>
        <trkpt lat="28.677134" lon="104.177137"><ele>907.1007</ele><time>2026-03-06T19:48:10.000Z</time></trkpt>
        <trkpt lat="28.67715" lon="104.177185"><ele>907.42267</ele><time>2026-03-06T19:48:47.000Z</time></trkpt>
        <trkpt lat="28.677175" lon="104.17723"><ele>907.96924</ele><time>2026-03-06T19:49:00.000Z</time></trkpt>
        <trkpt lat="28.677189" lon="104.177275"><ele>907.7055</ele><time>2026-03-06T19:49:05.000Z</time></trkpt>
        <trkpt lat="28.677213" lon="104.177321"><ele>908.25024</ele><time>2026-03-06T19:49:09.000Z</time></trkpt>
        <trkpt lat="28.677235" lon="104.177385"><ele>908.3508</ele><time>2026-03-06T19:49:14.000Z</time></trkpt>
        <trkpt lat="28.677244" lon="104.177448"><ele>906.4148</ele><time>2026-03-06T19:49:19.000Z</time></trkpt>
        <trkpt lat="28.677237" lon="104.177499"><ele>907.1957</ele><time>2026-03-06T19:49:23.000Z</time></trkpt>
        <trkpt lat="28.677213" lon="104.177556"><ele>907.3803</ele><time>2026-03-06T19:49:28.000Z</time></trkpt>
        <trkpt lat="28.677185" lon="104.1776"><ele>907.1238</ele><time>2026-03-06T19:49:32.000Z</time></trkpt>
        <trkpt lat="28.677153" lon="104.177654"><ele>908.1574</ele><time>2026-03-06T19:49:37.000Z</time></trkpt>
        <trkpt lat="28.677123" lon="104.177695"><ele>908.2165</ele><time>2026-03-06T19:49:41.000Z</time></trkpt>
        <trkpt lat="28.6771" lon="104.177738"><ele>908.9324</ele><time>2026-03-06T19:49:44.000Z</time></trkpt>
        <trkpt lat="28.677077" lon="104.177794"><ele>909.68</ele><time>2026-03-06T19:49:49.000Z</time></trkpt>
        <trkpt lat="28.677045" lon="104.177846"><ele>909.88245</ele><time>2026-03-06T19:49:54.000Z</time></trkpt>
        <trkpt lat="28.677012" lon="104.17789"><ele>910.43823</ele><time>2026-03-06T19:49:59.000Z</time></trkpt>
        <trkpt lat="28.676956" lon="104.177926"><ele>911.9496</ele><time>2026-03-06T19:57:33.000Z</time></trkpt>
        <trkpt lat="28.67693" lon="104.177938"><ele>912.17487</ele><time>2026-03-06T19:57:38.000Z</time></trkpt>
        <trkpt lat="28.676895" lon="104.177974"><ele>911.8147</ele><time>2026-03-06T19:57:41.000Z</time></trkpt>
        <trkpt lat="28.676851" lon="104.178036"><ele>911.3414</ele><time>2026-03-06T19:57:46.000Z</time></trkpt>
        <trkpt lat="28.676822" lon="104.178083"><ele>912.1541</ele><time>2026-03-06T19:57:49.000Z</time></trkpt>
        <trkpt lat="28.676785" lon="104.178141"><ele>912.87036</ele><time>2026-03-06T19:57:53.000Z</time></trkpt>
        <trkpt lat="28.676749" lon="104.178189"><ele>913.1123</ele><time>2026-03-06T19:57:58.000Z</time></trkpt>
        <trkpt lat="28.676726" lon="104.178224"><ele>913.3703</ele><time>2026-03-06T19:58:01.000Z</time></trkpt>
        <trkpt lat="28.676689" lon="104.178267"><ele>915.1453</ele><time>2026-03-06T19:58:05.000Z</time></trkpt>
        <trkpt lat="28.67664" lon="104.178293"><ele>916.7372</ele><time>2026-03-06T19:58:09.000Z</time></trkpt>
        <trkpt lat="28.676584" lon="104.178305"><ele>915.43024</ele><time>2026-03-06T19:58:14.000Z</time></trkpt>
        <trkpt lat="28.676534" lon="104.178298"><ele>916.9289</ele><time>2026-03-06T19:58:18.000Z</time></trkpt>
        <trkpt lat="28.676481" lon="104.178271"><ele>917.7899</ele><time>2026-03-06T19:58:23.000Z</time></trkpt>
        <trkpt lat="28.676432" lon="104.178239"><ele>919.0021</ele><time>2026-03-06T19:58:28.000Z</time></trkpt>
        <trkpt lat="28.676396" lon="104.17821"><ele>918.79785</ele><time>2026-03-06T19:58:31.000Z</time></trkpt>
        <trkpt lat="28.676343" lon="104.178195"><ele>919.25366</ele><time>2026-03-06T19:58:37.000Z</time></trkpt>
        <trkpt lat="28.676289" lon="104.178194"><ele>917.78033</ele><time>2026-03-06T19:58:41.000Z</time></trkpt>
        <trkpt lat="28.676228" lon="104.178184"><ele>917.5433</ele><time>2026-03-06T19:58:46.000Z</time></trkpt>
        <trkpt lat="28.676176" lon="104.178174"><ele>918.0236</ele><time>2026-03-06T19:58:50.000Z</time></trkpt>
        <trkpt lat="28.676125" lon="104.178171"><ele>917.47375</ele><time>2026-03-06T19:58:54.000Z</time></trkpt>
        <trkpt lat="28.676086" lon="104.178188"><ele>919.33844</ele><time>2026-03-06T19:58:57.000Z</time></trkpt>
        <trkpt lat="28.676049" lon="104.178245"><ele>919.43896</ele><time>2026-03-06T19:59:02.000Z</time></trkpt>
        <trkpt lat="28.676044" lon="104.178312"><ele>919.5463</ele><time>2026-03-06T19:59:06.000Z</time></trkpt>
        <trkpt lat="28.676047" lon="104.178375"><ele>919.11707</ele><time>2026-03-06T19:59:10.000Z</time></trkpt>
        <trkpt lat="28.676061" lon="104.178423"><ele>919.8147</ele><time>2026-03-06T19:59:13.000Z</time></trkpt>
        <trkpt lat="28.676101" lon="104.178446"><ele>920.2196</ele><time>2026-03-06T19:59:17.000Z</time></trkpt>
        <trkpt lat="28.67616" lon="104.178439"><ele>921.25775</ele><time>2026-03-06T19:59:21.000Z</time></trkpt>
        <trkpt lat="28.676217" lon="104.178425"><ele>921.3572</ele><time>2026-03-06T19:59:25.000Z</time></trkpt>
        <trkpt lat="28.676287" lon="104.178409"><ele>920.7738</ele><time>2026-03-06T19:59:30.000Z</time></trkpt>
        <trkpt lat="28.676348" lon="104.178407"><ele>920.6192</ele><time>2026-03-06T19:59:35.000Z</time></trkpt>
        <trkpt lat="28.676397" lon="104.178415"><ele>921.5661</ele><time>2026-03-06T19:59:39.000Z</time></trkpt>
        <trkpt lat="28.676447" lon="104.178428"><ele>922.54193</ele><time>2026-03-06T19:59:43.000Z</time></trkpt>
        <trkpt lat="28.676505" lon="104.178447"><ele>923.63275</ele><time>2026-03-06T19:59:48.000Z</time></trkpt>
        <trkpt lat="28.676557" lon="104.178467"><ele>923.8914</ele><time>2026-03-06T19:59:53.000Z</time></trkpt>
        <trkpt lat="28.676604" lon="104.178488"><ele>924.03156</ele><time>2026-03-06T19:59:57.000Z</time></trkpt>
        <trkpt lat="28.676652" lon="104.17851"><ele>923.72504</ele><time>2026-03-06T20:00:01.000Z</time></trkpt>
        <trkpt lat="28.676702" lon="104.17854"><ele>924.082</ele><time>2026-03-06T20:00:05.000Z</time></trkpt>
        <trkpt lat="28.676745" lon="104.178573"><ele>924.41003</ele><time>2026-03-06T20:00:09.000Z</time></trkpt>
        <trkpt lat="28.676783" lon="104.178617"><ele>924.9804</ele><time>2026-03-06T20:00:13.000Z</time></trkpt>
        <trkpt lat="28.676827" lon="104.178648"><ele>925.16437</ele><time>2026-03-06T20:00:17.000Z</time></trkpt>
        <trkpt lat="28.676875" lon="104.178676"><ele>924.6206</ele><time>2026-03-06T20:00:21.000Z</time></trkpt>
        <trkpt lat="28.676925" lon="104.178697"><ele>924.97296</ele><time>2026-03-06T20:00:25.000Z</time></trkpt>
        <trkpt lat="28.676975" lon="104.178717"><ele>926.05707</ele><time>2026-03-06T20:00:29.000Z</time></trkpt>
        <trkpt lat="28.677032" lon="104.178748"><ele>925.62524</ele><time>2026-03-06T20:00:34.000Z</time></trkpt>
        <trkpt lat="28.677073" lon="104.178775"><ele>925.6262</ele><time>2026-03-06T20:00:38.000Z</time></trkpt>
        <trkpt lat="28.677103" lon="104.178815"><ele>925.9241</ele><time>2026-03-06T20:00:42.000Z</time></trkpt>
        <trkpt lat="28.67714" lon="104.178861"><ele>927.4368</ele><time>2026-03-06T20:00:46.000Z</time></trkpt>
        <trkpt lat="28.67717" lon="104.178907"><ele>928.01904</ele><time>2026-03-06T20:00:50.000Z</time></trkpt>
        <trkpt lat="28.677191" lon="104.178956"><ele>928.9217</ele><time>2026-03-06T20:00:54.000Z</time></trkpt>
        <trkpt lat="28.677202" lon="104.179015"><ele>929.7831</ele><time>2026-03-06T20:00:58.000Z</time></trkpt>
        <trkpt lat="28.6772" lon="104.179079"><ele>930.24786</ele><time>2026-03-06T20:01:02.000Z</time></trkpt>
        <trkpt lat="28.677191" lon="104.179145"><ele>929.5664</ele><time>2026-03-06T20:01:07.000Z</time></trkpt>
        <trkpt lat="28.677183" lon="104.179195"><ele>930.80927</ele><time>2026-03-06T20:01:10.000Z</time></trkpt>
        <trkpt lat="28.677173" lon="104.179252"><ele>930.83496</ele><time>2026-03-06T20:01:14.000Z</time></trkpt>
        <trkpt lat="28.677158" lon="104.179308"><ele>931.8614</ele><time>2026-03-06T20:01:18.000Z</time></trkpt>
        <trkpt lat="28.677149" lon="104.179374"><ele>932.7884</ele><time>2026-03-06T20:01:22.000Z</time></trkpt>
        <trkpt lat="28.677152" lon="104.179434"><ele>934.35016</ele><time>2026-03-06T20:01:26.000Z</time></trkpt>
        <trkpt lat="28.677166" lon="104.179494"><ele>935.3127</ele><time>2026-03-06T20:01:31.000Z</time></trkpt>
        <trkpt lat="28.677192" lon="104.179546"><ele>935.5624</ele><time>2026-03-06T20:01:36.000Z</time></trkpt>
        <trkpt lat="28.677224" lon="104.179595"><ele>935.5867</ele><time>2026-03-06T20:01:41.000Z</time></trkpt>
        <trkpt lat="28.677266" lon="104.179637"><ele>935.1282</ele><time>2026-03-06T20:01:47.000Z</time></trkpt>
        <trkpt lat="28.677297" lon="104.179679"><ele>934.67926</ele><time>2026-03-06T20:01:53.000Z</time></trkpt>
        <trkpt lat="28.677327" lon="104.179731"><ele>933.3629</ele><time>2026-03-06T20:02:08.000Z</time></trkpt>
        <trkpt lat="28.677337" lon="104.179766"><ele>933.55164</ele><time>2026-03-06T20:02:12.000Z</time></trkpt>
        <trkpt lat="28.677354" lon="104.179813"><ele>933.3673</ele><time>2026-03-06T20:02:16.000Z</time></trkpt>
        <trkpt lat="28.677359" lon="104.179881"><ele>933.12335</ele><time>2026-03-06T20:02:23.000Z</time></trkpt>
        <trkpt lat="28.677343" lon="104.179933"><ele>933.3035</ele><time>2026-03-06T20:02:31.000Z</time></trkpt>
        <trkpt lat="28.67732" lon="104.179982"><ele>933.1656</ele><time>2026-03-06T20:02:41.000Z</time></trkpt>
        <trkpt lat="28.677332" lon="104.18002"><ele>932.42834</ele><time>2026-03-06T20:02:45.000Z</time></trkpt>
        <trkpt lat="28.677341" lon="104.180069"><ele>932.3867</ele><time>2026-03-06T20:02:49.000Z</time></trkpt>
        <trkpt lat="28.677344" lon="104.180127"><ele>932.28613</ele><time>2026-03-06T20:02:53.000Z</time></trkpt>
        <trkpt lat="28.677353" lon="104.180187"><ele>932.1496</ele><time>2026-03-06T20:02:58.000Z</time></trkpt>
        <trkpt lat="28.677304" lon="104.180207"><ele>932.3227</ele><time>2026-03-06T20:03:12.000Z</time></trkpt>
        <trkpt lat="28.677327" lon="104.180174"><ele>932.17426</ele><time>2026-03-06T20:03:15.000Z</time></trkpt>
        <trkpt lat="28.677372" lon="104.180153"><ele>931.9878</ele><time>2026-03-06T20:03:17.000Z</time></trkpt>
        <trkpt lat="28.677434" lon="104.180128"><ele>931.50964</ele><time>2026-03-06T20:03:20.000Z</time></trkpt>
        <trkpt lat="28.677439" lon="104.180137"><ele>931.30194</ele><time>2026-03-06T20:03:21.000Z</time></trkpt>
        <trkpt lat="28.677472" lon="104.180158"><ele>930.1341</ele><time>2026-03-06T20:03:24.000Z</time></trkpt>
        <trkpt lat="28.677487" lon="104.180207"><ele>929.4759</ele><time>2026-03-06T20:03:26.000Z</time></trkpt>
        <trkpt lat="28.677397" lon="104.180224"><ele>928.72833</ele><time>2026-03-06T20:03:27.000Z</time></trkpt>
        <trkpt lat="28.677263" lon="104.180257"><ele>927.75104</ele><time>2026-03-06T20:03:30.000Z</time></trkpt>
        <trkpt lat="28.677181" lon="104.180152"><ele>926.1158</ele><time>2026-03-06T20:03:35.000Z</time></trkpt>
        <trkpt lat="28.6773" lon="104.180137"><ele>928.8331</ele><time>2026-03-06T20:03:37.000Z</time></trkpt>
        <trkpt lat="28.677383" lon="104.18017"><ele>936.9738</ele><time>2026-03-06T20:04:02.000Z</time></trkpt>
        <trkpt lat="28.677361" lon="104.180186"><ele>934.706</ele><time>2026-03-06T20:04:03.000Z</time></trkpt>
        <trkpt lat="28.677331" lon="104.180204"><ele>933.7469</ele><time>2026-03-06T20:04:04.000Z</time></trkpt>
        <trkpt lat="28.677276" lon="104.180233"><ele>932.7504</ele><time>2026-03-06T20:04:07.000Z</time></trkpt>
        <trkpt lat="28.677269" lon="104.180206"><ele>932.5604</ele><time>2026-03-06T20:04:10.000Z</time></trkpt>
        <trkpt lat="28.677289" lon="104.180134"><ele>931.5519</ele><time>2026-03-06T20:04:15.000Z</time></trkpt>
        <trkpt lat="28.677299" lon="104.180069"><ele>932.0004</ele><time>2026-03-06T20:04:18.000Z</time></trkpt>
        <trkpt lat="28.6773" lon="104.179996"><ele>931.7321</ele><time>2026-03-06T20:04:22.000Z</time></trkpt>
        <trkpt lat="28.6773" lon="104.179927"><ele>933.1074</ele><time>2026-03-06T20:04:26.000Z</time></trkpt>
        <trkpt lat="28.677298" lon="104.179863"><ele>932.63855</ele><time>2026-03-06T20:04:31.000Z</time></trkpt>
        <trkpt lat="28.677296" lon="104.179815"><ele>934.1614</ele><time>2026-03-06T20:04:34.000Z</time></trkpt>
        <trkpt lat="28.677262" lon="104.179775"><ele>935.33673</ele><time>2026-03-06T20:04:39.000Z</time></trkpt>
        <trkpt lat="28.677221" lon="104.17977"><ele>934.8921</ele><time>2026-03-06T20:04:42.000Z</time></trkpt>
        <trkpt lat="28.677166" lon="104.179774"><ele>936.62976</ele><time>2026-03-06T20:04:47.000Z</time></trkpt>
        <trkpt lat="28.677108" lon="104.179782"><ele>938.49133</ele><time>2026-03-06T20:04:52.000Z</time></trkpt>
        <trkpt lat="28.677038" lon="104.179773"><ele>939.8561</ele><time>2026-03-06T20:04:59.000Z</time></trkpt>
        <trkpt lat="28.676995" lon="104.17977"><ele>939.54706</ele><time>2026-03-06T20:05:03.000Z</time></trkpt>
        <trkpt lat="28.676946" lon="104.179773"><ele>938.63995</ele><time>2026-03-06T20:05:08.000Z</time></trkpt>
        <trkpt lat="28.676902" lon="104.179771"><ele>940.43304</ele><time>2026-03-06T20:05:12.000Z</time></trkpt>
        <trkpt lat="28.676853" lon="104.179764"><ele>941.9879</ele><time>2026-03-06T20:05:17.000Z</time></trkpt>
        <trkpt lat="28.676807" lon="104.179756"><ele>941.4101</ele><time>2026-03-06T20:05:22.000Z</time></trkpt>
        <trkpt lat="28.676762" lon="104.17975"><ele>944.9121</ele><time>2026-03-06T20:05:26.000Z</time></trkpt>
        <trkpt lat="28.676703" lon="104.17974"><ele>945.1251</ele><time>2026-03-06T20:05:33.000Z</time></trkpt>
        <trkpt lat="28.676658" lon="104.179746"><ele>946.29913</ele><time>2026-03-06T20:05:39.000Z</time></trkpt>
        <trkpt lat="28.67662" lon="104.179772"><ele>946.0739</ele><time>2026-03-06T20:05:44.000Z</time></trkpt>
        <trkpt lat="28.676585" lon="104.179813"><ele>946.2658</ele><time>2026-03-06T20:05:48.000Z</time></trkpt>
        <trkpt lat="28.676554" lon="104.179859"><ele>947.5842</ele><time>2026-03-06T20:05:52.000Z</time></trkpt>
        <trkpt lat="28.676514" lon="104.1799"><ele>948.87665</ele><time>2026-03-06T20:05:58.000Z</time></trkpt>
        <trkpt lat="28.676479" lon="104.179928"><ele>948.74445</ele><time>2026-03-06T20:06:03.000Z</time></trkpt>
        <trkpt lat="28.676444" lon="104.179966"><ele>951.1122</ele><time>2026-03-06T20:06:08.000Z</time></trkpt>
        <trkpt lat="28.676406" lon="104.180007"><ele>951.10504</ele><time>2026-03-06T20:06:15.000Z</time></trkpt>
        <trkpt lat="28.676373" lon="104.180042"><ele>951.84564</ele><time>2026-03-06T20:06:22.000Z</time></trkpt>
        <trkpt lat="28.676335" lon="104.180075"><ele>951.55835</ele><time>2026-03-06T20:06:29.000Z</time></trkpt>
        <trkpt lat="28.676302" lon="104.180124"><ele>952.7478</ele><time>2026-03-06T20:07:36.000Z</time></trkpt>
        <trkpt lat="28.676277" lon="104.180145"><ele>953.7096</ele><time>2026-03-06T20:07:40.000Z</time></trkpt>
        <trkpt lat="28.676238" lon="104.18018"><ele>953.79736</ele><time>2026-03-06T20:07:44.000Z</time></trkpt>
        <trkpt lat="28.676199" lon="104.180219"><ele>954.36487</ele><time>2026-03-06T20:07:47.000Z</time></trkpt>
        <trkpt lat="28.676146" lon="104.180267"><ele>954.97687</ele><time>2026-03-06T20:07:55.000Z</time></trkpt>
        <trkpt lat="28.676114" lon="104.1803"><ele>955.89417</ele><time>2026-03-06T20:08:00.000Z</time></trkpt>
        <trkpt lat="28.676088" lon="104.180349"><ele>957.6748</ele><time>2026-03-06T20:08:04.000Z</time></trkpt>
        <trkpt lat="28.676043" lon="104.180398"><ele>960.0522</ele><time>2026-03-06T20:08:10.000Z</time></trkpt>
        <trkpt lat="28.675993" lon="104.180431"><ele>962.0729</ele><time>2026-03-06T20:08:16.000Z</time></trkpt>
        <trkpt lat="28.675955" lon="104.180459"><ele>960.47314</ele><time>2026-03-06T20:08:20.000Z</time></trkpt>
        <trkpt lat="28.675918" lon="104.18049"><ele>960.5054</ele><time>2026-03-06T20:08:24.000Z</time></trkpt>
        <trkpt lat="28.675879" lon="104.180539"><ele>958.3117</ele><time>2026-03-06T20:08:29.000Z</time></trkpt>
        <trkpt lat="28.675846" lon="104.180575"><ele>960.1494</ele><time>2026-03-06T20:08:33.000Z</time></trkpt>
        <trkpt lat="28.675813" lon="104.180614"><ele>961.40955</ele><time>2026-03-06T20:08:37.000Z</time></trkpt>
        <trkpt lat="28.675758" lon="104.180632"><ele>963.0405</ele><time>2026-03-06T20:08:43.000Z</time></trkpt>
        <trkpt lat="28.675709" lon="104.180617"><ele>963.02954</ele><time>2026-03-06T20:08:48.000Z</time></trkpt>
        <trkpt lat="28.675657" lon="104.180611"><ele>961.5387</ele><time>2026-03-06T20:08:57.000Z</time></trkpt>
        <trkpt lat="28.675653" lon="104.180674"><ele>960.89435</ele><time>2026-03-06T20:09:15.000Z</time></trkpt>
        <trkpt lat="28.675655" lon="104.180722"><ele>960.4772</ele><time>2026-03-06T20:09:20.000Z</time></trkpt>
        <trkpt lat="28.675684" lon="104.180766"><ele>960.89246</ele><time>2026-03-06T20:09:26.000Z</time></trkpt>
        <trkpt lat="28.675733" lon="104.18076"><ele>961.0688</ele><time>2026-03-06T20:09:31.000Z</time></trkpt>
        <trkpt lat="28.675774" lon="104.180729"><ele>960.79553</ele><time>2026-03-06T20:09:35.000Z</time></trkpt>
        <trkpt lat="28.675797" lon="104.180658"><ele>961.2879</ele><time>2026-03-06T20:09:43.000Z</time></trkpt>
        <trkpt lat="28.675806" lon="104.180598"><ele>961.44794</ele><time>2026-03-06T20:12:05.000Z</time></trkpt>
        <trkpt lat="28.675795" lon="104.18065"><ele>961.94775</ele><time>2026-03-06T20:14:02.000Z</time></trkpt>
        <trkpt lat="28.675822" lon="104.180599"><ele>961.5125</ele><time>2026-03-06T20:17:05.000Z</time></trkpt>
        <trkpt lat="28.675786" lon="104.180641"><ele>959.90063</ele><time>2026-03-06T20:17:38.000Z</time></trkpt>
        <trkpt lat="28.675791" lon="104.180696"><ele>960.23627</ele><time>2026-03-06T20:17:48.000Z</time></trkpt>
        <trkpt lat="28.675766" lon="104.180749"><ele>958.4991</ele><time>2026-03-06T20:17:54.000Z</time></trkpt>
        <trkpt lat="28.675725" lon="104.180781"><ele>958.2994</ele><time>2026-03-06T20:17:58.000Z</time></trkpt>
        <trkpt lat="28.675665" lon="104.180778"><ele>959.0019</ele><time>2026-03-06T20:18:04.000Z</time></trkpt>
        <trkpt lat="28.675635" lon="104.180746"><ele>960.38043</ele><time>2026-03-06T20:18:07.000Z</time></trkpt>
        <trkpt lat="28.675573" lon="104.180735"><ele>960.85736</ele><time>2026-03-06T20:18:16.000Z</time></trkpt>
        <trkpt lat="28.675522" lon="104.180764"><ele>959.38696</ele><time>2026-03-06T20:18:24.000Z</time></trkpt>
        <trkpt lat="28.675484" lon="104.180792"><ele>958.8826</ele><time>2026-03-06T20:18:28.000Z</time></trkpt>
        <trkpt lat="28.675444" lon="104.180814"><ele>958.6112</ele><time>2026-03-06T20:18:31.000Z</time></trkpt>
        <trkpt lat="28.675394" lon="104.180836"><ele>958.887</ele><time>2026-03-06T20:18:35.000Z</time></trkpt>
        <trkpt lat="28.67535" lon="104.180862"><ele>958.57184</ele><time>2026-03-06T20:18:39.000Z</time></trkpt>
        <trkpt lat="28.675296" lon="104.180889"><ele>958.122</ele><time>2026-03-06T20:18:43.000Z</time></trkpt>
        <trkpt lat="28.675236" lon="104.180911"><ele>957.73267</ele><time>2026-03-06T20:18:48.000Z</time></trkpt>
        <trkpt lat="28.675186" lon="104.180931"><ele>958.96277</ele><time>2026-03-06T20:18:52.000Z</time></trkpt>
        <trkpt lat="28.675137" lon="104.180954"><ele>959.08246</ele><time>2026-03-06T20:18:56.000Z</time></trkpt>
        <trkpt lat="28.675098" lon="104.180977"><ele>958.552</ele><time>2026-03-06T20:18:59.000Z</time></trkpt>
        <trkpt lat="28.67505" lon="104.181004"><ele>957.89496</ele><time>2026-03-06T20:19:03.000Z</time></trkpt>
        <trkpt lat="28.675009" lon="104.181026"><ele>957.9959</ele><time>2026-03-06T20:19:06.000Z</time></trkpt>
        <trkpt lat="28.674956" lon="104.18105"><ele>957.8282</ele><time>2026-03-06T20:19:10.000Z</time></trkpt>
        <trkpt lat="28.674914" lon="104.181069"><ele>957.8808</ele><time>2026-03-06T20:19:13.000Z</time></trkpt>
        <trkpt lat="28.674868" lon="104.181093"><ele>957.3297</ele><time>2026-03-06T20:19:17.000Z</time></trkpt>
        <trkpt lat="28.674815" lon="104.181119"><ele>956.78973</ele><time>2026-03-06T20:19:23.000Z</time></trkpt>
        <trkpt lat="28.67478" lon="104.181135"><ele>957.0991</ele><time>2026-03-06T20:19:26.000Z</time></trkpt>
        <trkpt lat="28.674736" lon="104.181159"><ele>956.8726</ele><time>2026-03-06T20:19:30.000Z</time></trkpt>
        <trkpt lat="28.674686" lon="104.181175"><ele>956.01074</ele><time>2026-03-06T20:19:35.000Z</time></trkpt>
        <trkpt lat="28.67463" lon="104.181195"><ele>955.6036</ele><time>2026-03-06T20:19:40.000Z</time></trkpt>
        <trkpt lat="28.674588" lon="104.181219"><ele>955.65356</ele><time>2026-03-06T20:19:43.000Z</time></trkpt>
        <trkpt lat="28.674542" lon="104.181248"><ele>955.1156</ele><time>2026-03-06T20:19:47.000Z</time></trkpt>
        <trkpt lat="28.674492" lon="104.18128"><ele>954.63727</ele><time>2026-03-06T20:19:51.000Z</time></trkpt>
        <trkpt lat="28.67444" lon="104.181303"><ele>954.59674</ele><time>2026-03-06T20:19:55.000Z</time></trkpt>
        <trkpt lat="28.674391" lon="104.181327"><ele>954.64746</ele><time>2026-03-06T20:19:59.000Z</time></trkpt>
        <trkpt lat="28.674344" lon="104.181348"><ele>954.59973</ele><time>2026-03-06T20:20:03.000Z</time></trkpt>
        <trkpt lat="28.674296" lon="104.18138"><ele>956.67413</ele><time>2026-03-06T20:20:08.000Z</time></trkpt>
        <trkpt lat="28.674272" lon="104.181423"><ele>955.2811</ele><time>2026-03-06T20:20:12.000Z</time></trkpt>
        <trkpt lat="28.674256" lon="104.181492"><ele>955.13885</ele><time>2026-03-06T20:20:20.000Z</time></trkpt>
        <trkpt lat="28.674232" lon="104.18154"><ele>954.40765</ele><time>2026-03-06T20:20:24.000Z</time></trkpt>
        <trkpt lat="28.674203" lon="104.18159"><ele>953.6423</ele><time>2026-03-06T20:20:29.000Z</time></trkpt>
        <trkpt lat="28.674198" lon="104.181637"><ele>953.00854</ele><time>2026-03-06T20:20:32.000Z</time></trkpt>
        <trkpt lat="28.674206" lon="104.181696"><ele>952.41943</ele><time>2026-03-06T20:20:36.000Z</time></trkpt>
        <trkpt lat="28.674228" lon="104.181754"><ele>952.4033</ele><time>2026-03-06T20:20:41.000Z</time></trkpt>
        <trkpt lat="28.674277" lon="104.18178"><ele>952.69507</ele><time>2026-03-06T20:20:51.000Z</time></trkpt>
        <trkpt lat="28.674309" lon="104.181795"><ele>952.2731</ele><time>2026-03-06T20:20:54.000Z</time></trkpt>
        <trkpt lat="28.674347" lon="104.181835"><ele>951.74896</ele><time>2026-03-06T20:20:58.000Z</time></trkpt>
        <trkpt lat="28.674371" lon="104.181881"><ele>950.6554</ele><time>2026-03-06T20:21:01.000Z</time></trkpt>
        <trkpt lat="28.674404" lon="104.181939"><ele>949.75665</ele><time>2026-03-06T20:21:05.000Z</time></trkpt>
        <trkpt lat="28.674438" lon="104.181997"><ele>950.0493</ele><time>2026-03-06T20:21:09.000Z</time></trkpt>
        <trkpt lat="28.674479" lon="104.182041"><ele>951.53265</ele><time>2026-03-06T20:21:13.000Z</time></trkpt>
        <trkpt lat="28.674503" lon="104.182088"><ele>953.29443</ele><time>2026-03-06T20:21:17.000Z</time></trkpt>
        <trkpt lat="28.674491" lon="104.182145"><ele>954.63556</ele><time>2026-03-06T20:21:22.000Z</time></trkpt>
        <trkpt lat="28.674464" lon="104.182193"><ele>955.359</ele><time>2026-03-06T20:21:26.000Z</time></trkpt>
        <trkpt lat="28.674432" lon="104.182251"><ele>956.9052</ele><time>2026-03-06T20:21:31.000Z</time></trkpt>
        <trkpt lat="28.674423" lon="104.182313"><ele>957.5178</ele><time>2026-03-06T20:21:58.000Z</time></trkpt>
        <trkpt lat="28.674416" lon="104.182354"><ele>959.044</ele><time>2026-03-06T20:22:03.000Z</time></trkpt>
        <trkpt lat="28.674391" lon="104.182408"><ele>961.12775</ele><time>2026-03-06T20:22:08.000Z</time></trkpt>
        <trkpt lat="28.674361" lon="104.182459"><ele>962.5539</ele><time>2026-03-06T20:22:13.000Z</time></trkpt>
        <trkpt lat="28.674321" lon="104.18251"><ele>963.2136</ele><time>2026-03-06T20:22:20.000Z</time></trkpt>
        <trkpt lat="28.674276" lon="104.182545"><ele>962.9113</ele><time>2026-03-06T20:22:57.000Z</time></trkpt>
        <trkpt lat="28.674237" lon="104.182571"><ele>962.0254</ele><time>2026-03-06T20:23:06.000Z</time></trkpt>
        <trkpt lat="28.674199" lon="104.182593"><ele>962.4226</ele><time>2026-03-06T20:23:09.000Z</time></trkpt>
        <trkpt lat="28.674147" lon="104.182634"><ele>963.532</ele><time>2026-03-06T20:23:14.000Z</time></trkpt>
        <trkpt lat="28.674115" lon="104.182671"><ele>962.9843</ele><time>2026-03-06T20:23:17.000Z</time></trkpt>
        <trkpt lat="28.67407" lon="104.182708"><ele>963.19604</ele><time>2026-03-06T20:23:21.000Z</time></trkpt>
        <trkpt lat="28.674028" lon="104.182744"><ele>962.0187</ele><time>2026-03-06T20:23:26.000Z</time></trkpt>
        <trkpt lat="28.674016" lon="104.182782"><ele>962.4644</ele><time>2026-03-06T20:23:29.000Z</time></trkpt>
        <trkpt lat="28.674014" lon="104.182838"><ele>962.6117</ele><time>2026-03-06T20:23:33.000Z</time></trkpt>
        <trkpt lat="28.674028" lon="104.182898"><ele>963.9504</ele><time>2026-03-06T20:23:37.000Z</time></trkpt>
        <trkpt lat="28.674065" lon="104.182955"><ele>964.49274</ele><time>2026-03-06T20:23:42.000Z</time></trkpt>
        <trkpt lat="28.674106" lon="104.182971"><ele>965.2389</ele><time>2026-03-06T20:23:45.000Z</time></trkpt>
        <trkpt lat="28.674158" lon="104.182963"><ele>965.66064</ele><time>2026-03-06T20:23:49.000Z</time></trkpt>
        <trkpt lat="28.674217" lon="104.182918"><ele>969.2656</ele><time>2026-03-06T20:24:05.000Z</time></trkpt>
        <trkpt lat="28.674245" lon="104.18289"><ele>970.0852</ele><time>2026-03-06T20:24:09.000Z</time></trkpt>
        <trkpt lat="28.67429" lon="104.182875"><ele>971.5433</ele><time>2026-03-06T20:24:13.000Z</time></trkpt>
        <trkpt lat="28.674346" lon="104.182868"><ele>972.7064</ele><time>2026-03-06T20:24:17.000Z</time></trkpt>
        <trkpt lat="28.674402" lon="104.182856"><ele>973.8462</ele><time>2026-03-06T20:24:21.000Z</time></trkpt>
        <trkpt lat="28.674462" lon="104.182842"><ele>975.3178</ele><time>2026-03-06T20:24:26.000Z</time></trkpt>
        <trkpt lat="28.674512" lon="104.182841"><ele>975.3338</ele><time>2026-03-06T20:24:31.000Z</time></trkpt>
        <trkpt lat="28.674555" lon="104.182853"><ele>976.92413</ele><time>2026-03-06T20:24:35.000Z</time></trkpt>
        <trkpt lat="28.674577" lon="104.182892"><ele>976.5677</ele><time>2026-03-06T20:24:39.000Z</time></trkpt>
        <trkpt lat="28.674602" lon="104.182941"><ele>975.5868</ele><time>2026-03-06T20:24:43.000Z</time></trkpt>
        <trkpt lat="28.674644" lon="104.182985"><ele>976.0985</ele><time>2026-03-06T20:24:48.000Z</time></trkpt>
        <trkpt lat="28.67465" lon="104.183043"><ele>975.6122</ele><time>2026-03-06T20:25:14.000Z</time></trkpt>
        <trkpt lat="28.674655" lon="104.183076"><ele>976.555</ele><time>2026-03-06T20:25:18.000Z</time></trkpt>
        <trkpt lat="28.674654" lon="104.183128"><ele>976.61847</ele><time>2026-03-06T20:25:21.000Z</time></trkpt>
        <trkpt lat="28.674642" lon="104.183199"><ele>977.4095</ele><time>2026-03-06T20:25:27.000Z</time></trkpt>
        <trkpt lat="28.674636" lon="104.183254"><ele>978.08575</ele><time>2026-03-06T20:25:31.000Z</time></trkpt>
        <trkpt lat="28.674634" lon="104.183314"><ele>979.92017</ele><time>2026-03-06T20:25:35.000Z</time></trkpt>
        <trkpt lat="28.674633" lon="104.183371"><ele>980.91486</ele><time>2026-03-06T20:25:39.000Z</time></trkpt>
        <trkpt lat="28.674635" lon="104.183419"><ele>980.7317</ele><time>2026-03-06T20:25:42.000Z</time></trkpt>
        <trkpt lat="28.674636" lon="104.183488"><ele>979.85345</ele><time>2026-03-06T20:25:47.000Z</time></trkpt>
        <trkpt lat="28.674646" lon="104.183544"><ele>978.62195</ele><time>2026-03-06T20:25:51.000Z</time></trkpt>
        <trkpt lat="28.674675" lon="104.183588"><ele>978.10626</ele><time>2026-03-06T20:25:55.000Z</time></trkpt>
        <trkpt lat="28.674722" lon="104.18362"><ele>978.83044</ele><time>2026-03-06T20:25:59.000Z</time></trkpt>
        <trkpt lat="28.674777" lon="104.183648"><ele>980.1533</ele><time>2026-03-06T20:26:05.000Z</time></trkpt>
        <trkpt lat="28.674812" lon="104.183679"><ele>980.3321</ele><time>2026-03-06T20:26:09.000Z</time></trkpt>
        <trkpt lat="28.674833" lon="104.183734"><ele>980.46014</ele><time>2026-03-06T20:26:13.000Z</time></trkpt>
        <trkpt lat="28.674843" lon="104.183786"><ele>981.2363</ele><time>2026-03-06T20:26:16.000Z</time></trkpt>
        <trkpt lat="28.674871" lon="104.18383"><ele>980.9001</ele><time>2026-03-06T20:26:20.000Z</time></trkpt>
        <trkpt lat="28.674918" lon="104.183806"><ele>979.6082</ele><time>2026-03-06T20:26:34.000Z</time></trkpt>
        <trkpt lat="28.674967" lon="104.183773"><ele>981.38837</ele><time>2026-03-06T20:26:42.000Z</time></trkpt>
        <trkpt lat="28.675015" lon="104.183768"><ele>982.2407</ele><time>2026-03-06T20:26:46.000Z</time></trkpt>
        <trkpt lat="28.675061" lon="104.183766"><ele>982.56683</ele><time>2026-03-06T20:26:49.000Z</time></trkpt>
        <trkpt lat="28.675119" lon="104.183768"><ele>982.3728</ele><time>2026-03-06T20:26:53.000Z</time></trkpt>
        <trkpt lat="28.675167" lon="104.183768"><ele>982.2526</ele><time>2026-03-06T20:26:56.000Z</time></trkpt>
        <trkpt lat="28.675216" lon="104.183776"><ele>982.0898</ele><time>2026-03-06T20:26:59.000Z</time></trkpt>
        <trkpt lat="28.675261" lon="104.183793"><ele>981.58673</ele><time>2026-03-06T20:27:02.000Z</time></trkpt>
        <trkpt lat="28.675306" lon="104.183806"><ele>981.7355</ele><time>2026-03-06T20:27:05.000Z</time></trkpt>
        <trkpt lat="28.675362" lon="104.183822"><ele>981.9227</ele><time>2026-03-06T20:27:09.000Z</time></trkpt>
        <trkpt lat="28.675418" lon="104.183842"><ele>981.8201</ele><time>2026-03-06T20:27:13.000Z</time></trkpt>
        <trkpt lat="28.67547" lon="104.183864"><ele>981.4839</ele><time>2026-03-06T20:27:17.000Z</time></trkpt>
        <trkpt lat="28.675521" lon="104.183891"><ele>980.94086</ele><time>2026-03-06T20:27:21.000Z</time></trkpt>
        <trkpt lat="28.675574" lon="104.183911"><ele>980.947</ele><time>2026-03-06T20:27:25.000Z</time></trkpt>
        <trkpt lat="28.675628" lon="104.183935"><ele>980.58</ele><time>2026-03-06T20:27:29.000Z</time></trkpt>
        <trkpt lat="28.675672" lon="104.183939"><ele>981.1166</ele><time>2026-03-06T20:27:32.000Z</time></trkpt>
        <trkpt lat="28.675722" lon="104.183916"><ele>979.9854</ele><time>2026-03-06T20:27:36.000Z</time></trkpt>
        <trkpt lat="28.675764" lon="104.183873"><ele>977.7967</ele><time>2026-03-06T20:27:40.000Z</time></trkpt>
        <trkpt lat="28.675791" lon="104.183829"><ele>977.69073</ele><time>2026-03-06T20:27:43.000Z</time></trkpt>
        <trkpt lat="28.675829" lon="104.183786"><ele>978.84906</ele><time>2026-03-06T20:27:47.000Z</time></trkpt>
        <trkpt lat="28.675872" lon="104.183753"><ele>978.4846</ele><time>2026-03-06T20:27:51.000Z</time></trkpt>
        <trkpt lat="28.675915" lon="104.183728"><ele>977.2006</ele><time>2026-03-06T20:27:55.000Z</time></trkpt>
        <trkpt lat="28.675964" lon="104.183712"><ele>975.5832</ele><time>2026-03-06T20:27:59.000Z</time></trkpt>
        <trkpt lat="28.676013" lon="104.183687"><ele>975.6662</ele><time>2026-03-06T20:28:03.000Z</time></trkpt>
        <trkpt lat="28.676063" lon="104.183666"><ele>975.679</ele><time>2026-03-06T20:28:07.000Z</time></trkpt>
        <trkpt lat="28.676109" lon="104.183633"><ele>975.0924</ele><time>2026-03-06T20:28:11.000Z</time></trkpt>
        <trkpt lat="28.676153" lon="104.183591"><ele>972.94885</ele><time>2026-03-06T20:28:17.000Z</time></trkpt>
        <trkpt lat="28.676191" lon="104.183538"><ele>971.05396</ele><time>2026-03-06T20:28:34.000Z</time></trkpt>
        <trkpt lat="28.676217" lon="104.183516"><ele>970.55676</ele><time>2026-03-06T20:28:38.000Z</time></trkpt>
        <trkpt lat="28.676267" lon="104.183491"><ele>969.5656</ele><time>2026-03-06T20:28:43.000Z</time></trkpt>
        <trkpt lat="28.676325" lon="104.183461"><ele>970.77936</ele><time>2026-03-06T20:29:21.000Z</time></trkpt>
        <trkpt lat="28.676349" lon="104.183455"><ele>970.56006</ele><time>2026-03-06T20:29:24.000Z</time></trkpt>
        <trkpt lat="28.676383" lon="104.183451"><ele>970.6751</ele><time>2026-03-06T20:29:26.000Z</time></trkpt>
        <trkpt lat="28.676443" lon="104.183422"><ele>969.45593</ele><time>2026-03-06T20:29:32.000Z</time></trkpt>
        <trkpt lat="28.676498" lon="104.183407"><ele>969.28107</ele><time>2026-03-06T20:29:36.000Z</time></trkpt>
        <trkpt lat="28.676516" lon="104.183459"><ele>968.4571</ele><time>2026-03-06T20:29:48.000Z</time></trkpt>
        <trkpt lat="28.676494" lon="104.183415"><ele>968.9418</ele><time>2026-03-06T20:30:00.000Z</time></trkpt>
        <trkpt lat="28.676526" lon="104.183437"><ele>969.0075</ele><time>2026-03-06T20:30:06.000Z</time></trkpt>
        <trkpt lat="28.676499" lon="104.183378"><ele>970.0841</ele><time>2026-03-06T20:30:17.000Z</time></trkpt>
        <trkpt lat="28.676502" lon="104.183424"><ele>969.1935</ele><time>2026-03-06T20:30:24.000Z</time></trkpt>
        <trkpt lat="28.676467" lon="104.183409"><ele>968.658</ele><time>2026-03-06T20:30:25.000Z</time></trkpt>
        <trkpt lat="28.676449" lon="104.183425"><ele>968.82776</ele><time>2026-03-06T20:30:27.000Z</time></trkpt>
        <trkpt lat="28.67644" lon="104.183388"><ele>969.7633</ele><time>2026-03-06T20:30:40.000Z</time></trkpt>
        <trkpt lat="28.676474" lon="104.183445"><ele>969.0286</ele><time>2026-03-06T20:31:08.000Z</time></trkpt>
        <trkpt lat="28.676537" lon="104.183463"><ele>968.8469</ele><time>2026-03-06T20:31:37.000Z</time></trkpt>
        <trkpt lat="28.676506" lon="104.183474"><ele>969.5879</ele><time>2026-03-06T20:31:41.000Z</time></trkpt>
        <trkpt lat="28.676475" lon="104.183464"><ele>970.5405</ele><time>2026-03-06T20:31:56.000Z</time></trkpt>
        <trkpt lat="28.67646" lon="104.183441"><ele>970.6219</ele><time>2026-03-06T20:31:57.000Z</time></trkpt>
        <trkpt lat="28.676407" lon="104.183437"><ele>969.3896</ele><time>2026-03-06T20:32:04.000Z</time></trkpt>
        <trkpt lat="28.676465" lon="104.183428"><ele>969.51074</ele><time>2026-03-06T20:32:32.000Z</time></trkpt>
        <trkpt lat="28.676439" lon="104.183399"><ele>970.84534</ele><time>2026-03-06T20:32:42.000Z</time></trkpt>
        <trkpt lat="28.676474" lon="104.183395"><ele>969.1512</ele><time>2026-03-06T20:33:06.000Z</time></trkpt>
        <trkpt lat="28.67642" lon="104.183409"><ele>969.8189</ele><time>2026-03-06T20:33:45.000Z</time></trkpt>
        <trkpt lat="28.676419" lon="104.183338"><ele>969.2285</ele><time>2026-03-06T20:34:27.000Z</time></trkpt>
        <trkpt lat="28.676437" lon="104.18338"><ele>968.4419</ele><time>2026-03-06T20:34:30.000Z</time></trkpt>
        <trkpt lat="28.676472" lon="104.183345"><ele>969.7293</ele><time>2026-03-06T20:34:47.000Z</time></trkpt>
        <trkpt lat="28.676434" lon="104.183375"><ele>965.693</ele><time>2026-03-06T20:35:07.000Z</time></trkpt>
        <trkpt lat="28.676467" lon="104.183434"><ele>963.77295</ele><time>2026-03-06T20:35:25.000Z</time></trkpt>
        <trkpt lat="28.676502" lon="104.183419"><ele>965.78186</ele><time>2026-03-06T20:35:29.000Z</time></trkpt>
        <trkpt lat="28.676485" lon="104.183412"><ele>966.0917</ele><time>2026-03-06T20:35:32.000Z</time></trkpt>
        <trkpt lat="28.676422" lon="104.183396"><ele>967.7647</ele><time>2026-03-06T20:35:47.000Z</time></trkpt>
        <trkpt lat="28.67646" lon="104.183399"><ele>965.2559</ele><time>2026-03-06T20:36:02.000Z</time></trkpt>
        <trkpt lat="28.67649" lon="104.183368"><ele>965.84467</ele><time>2026-03-06T20:36:06.000Z</time></trkpt>
        <trkpt lat="28.676464" lon="104.183415"><ele>965.0664</ele><time>2026-03-06T20:39:56.000Z</time></trkpt>
        <trkpt lat="28.676459" lon="104.183453"><ele>965.92114</ele><time>2026-03-06T20:39:59.000Z</time></trkpt>
        <trkpt lat="28.676405" lon="104.18347"><ele>968.89465</ele><time>2026-03-06T20:40:11.000Z</time></trkpt>
        <trkpt lat="28.67644" lon="104.183481"><ele>968.3148</ele><time>2026-03-06T20:40:18.000Z</time></trkpt>
        <trkpt lat="28.676479" lon="104.183467"><ele>969.25244</ele><time>2026-03-06T20:40:21.000Z</time></trkpt>
        <trkpt lat="28.676461" lon="104.183426"><ele>970.3098</ele><time>2026-03-06T20:40:30.000Z</time></trkpt>
        <trkpt lat="28.676419" lon="104.183403"><ele>970.44714</ele><time>2026-03-06T20:40:33.000Z</time></trkpt>
        <trkpt lat="28.676389" lon="104.183346"><ele>968.9439</ele><time>2026-03-06T20:41:31.000Z</time></trkpt>
        <trkpt lat="28.676389" lon="104.183396"><ele>968.6959</ele><time>2026-03-06T20:41:34.000Z</time></trkpt>
        <trkpt lat="28.67637" lon="104.183394"><ele>968.96783</ele><time>2026-03-06T20:41:38.000Z</time></trkpt>
        <trkpt lat="28.676371" lon="104.183362"><ele>953.84485</ele><time>2026-03-06T20:42:14.000Z</time></trkpt>
        <trkpt lat="28.676366" lon="104.183261"><ele>1016.362</ele><time>2026-03-06T20:42:19.000Z</time></trkpt>
        <trkpt lat="28.676318" lon="104.183222"><ele>1036.422</ele><time>2026-03-06T20:42:21.000Z</time></trkpt>
        <trkpt lat="28.676285" lon="104.183212"><ele>1035.0002</ele><time>2026-03-06T20:42:22.000Z</time></trkpt>
        <trkpt lat="28.676304" lon="104.183158"><ele>1030.9209</ele><time>2026-03-06T20:42:23.000Z</time></trkpt>
        <trkpt lat="28.676533" lon="104.183563"><ele>970.88794</ele><time>2026-03-06T20:42:41.000Z</time></trkpt>
        <trkpt lat="28.676498" lon="104.183449"><ele>959.58344</ele><time>2026-03-06T20:42:45.000Z</time></trkpt>
        <trkpt lat="28.676484" lon="104.18342"><ele>959.8866</ele><time>2026-03-06T20:42:47.000Z</time></trkpt>
        <trkpt lat="28.676489" lon="104.18343"><ele>967.312</ele><time>2026-03-06T20:43:04.000Z</time></trkpt>
        <trkpt lat="28.676507" lon="104.183404"><ele>971.1148</ele><time>2026-03-06T20:43:07.000Z</time></trkpt>
        <trkpt lat="28.676479" lon="104.183418"><ele>969.8046</ele><time>2026-03-06T20:43:20.000Z</time></trkpt>
        <trkpt lat="28.676452" lon="104.18345"><ele>967.9461</ele><time>2026-03-06T20:43:22.000Z</time></trkpt>
        <trkpt lat="28.676389" lon="104.18345"><ele>970.4241</ele><time>2026-03-06T20:43:41.000Z</time></trkpt>
        <trkpt lat="28.676409" lon="104.183402"><ele>972.2869</ele><time>2026-03-06T20:43:50.000Z</time></trkpt>
        <trkpt lat="28.676438" lon="104.183404"><ele>971.4348</ele><time>2026-03-06T20:43:52.000Z</time></trkpt>
        <trkpt lat="28.676481" lon="104.183402"><ele>971.78674</ele><time>2026-03-06T20:43:54.000Z</time></trkpt>
        <trkpt lat="28.676506" lon="104.183479"><ele>968.22235</ele><time>2026-03-06T20:44:03.000Z</time></trkpt>
        <trkpt lat="28.676462" lon="104.18346"><ele>968.4497</ele><time>2026-03-06T20:44:05.000Z</time></trkpt>
        <trkpt lat="28.676466" lon="104.183493"><ele>966.7067</ele><time>2026-03-06T20:44:15.000Z</time></trkpt>
        <trkpt lat="28.676506" lon="104.183433"><ele>971.9763</ele><time>2026-03-06T20:46:18.000Z</time></trkpt>
        <trkpt lat="28.6765" lon="104.18348"><ele>969.1935</ele><time>2026-03-06T20:49:42.000Z</time></trkpt>
        <trkpt lat="28.676484" lon="104.183436"><ele>966.7639</ele><time>2026-03-06T20:49:55.000Z</time></trkpt>
        <trkpt lat="28.676513" lon="104.183423"><ele>967.4699</ele><time>2026-03-06T20:49:59.000Z</time></trkpt>
        <trkpt lat="28.676477" lon="104.183443"><ele>967.5412</ele><time>2026-03-06T20:50:15.000Z</time></trkpt>
        <trkpt lat="28.676522" lon="104.183428"><ele>973.87067</ele><time>2026-03-06T20:51:43.000Z</time></trkpt>
        <trkpt lat="28.676497" lon="104.183414"><ele>973.01965</ele><time>2026-03-06T20:51:47.000Z</time></trkpt>
        <trkpt lat="28.676523" lon="104.183452"><ele>968.29565</ele><time>2026-03-06T20:52:10.000Z</time></trkpt>
        <trkpt lat="28.676484" lon="104.183476"><ele>968.2357</ele><time>2026-03-06T20:52:24.000Z</time></trkpt>
        <trkpt lat="28.676414" lon="104.183439"><ele>970.20184</ele><time>2026-03-06T20:52:33.000Z</time></trkpt>
        <trkpt lat="28.676455" lon="104.183409"><ele>971.85614</ele><time>2026-03-06T20:53:53.000Z</time></trkpt>
        <trkpt lat="28.676391" lon="104.183423"><ele>970.096</ele><time>2026-03-06T20:54:55.000Z</time></trkpt>
        <trkpt lat="28.676449" lon="104.183408"><ele>971.6745</ele><time>2026-03-06T20:55:39.000Z</time></trkpt>
        <trkpt lat="28.67643" lon="104.183418"><ele>971.1378</ele><time>2026-03-06T20:55:42.000Z</time></trkpt>
        <trkpt lat="28.676363" lon="104.183449"><ele>973.2871</ele><time>2026-03-06T20:57:40.000Z</time></trkpt>
        <trkpt lat="28.676333" lon="104.183481"><ele>971.0058</ele><time>2026-03-06T20:57:46.000Z</time></trkpt>
        <trkpt lat="28.676289" lon="104.183517"><ele>971.0391</ele><time>2026-03-06T20:57:51.000Z</time></trkpt>
        <trkpt lat="28.676241" lon="104.183544"><ele>971.08386</ele><time>2026-03-06T20:57:56.000Z</time></trkpt>
        <trkpt lat="28.676204" lon="104.183574"><ele>971.19006</ele><time>2026-03-06T20:58:00.000Z</time></trkpt>
        <trkpt lat="28.676165" lon="104.183604"><ele>971.11053</ele><time>2026-03-06T20:58:04.000Z</time></trkpt>
        <trkpt lat="28.676119" lon="104.183639"><ele>971.6939</ele><time>2026-03-06T20:58:09.000Z</time></trkpt>
        <trkpt lat="28.676081" lon="104.183671"><ele>972.8787</ele><time>2026-03-06T20:58:14.000Z</time></trkpt>
        <trkpt lat="28.676041" lon="104.183702"><ele>974.0029</ele><time>2026-03-06T20:58:19.000Z</time></trkpt>
        <trkpt lat="28.675995" lon="104.183715"><ele>974.5763</ele><time>2026-03-06T20:58:24.000Z</time></trkpt>
        <trkpt lat="28.675953" lon="104.183716"><ele>974.6717</ele><time>2026-03-06T20:58:27.000Z</time></trkpt>
        <trkpt lat="28.675887" lon="104.183734"><ele>976.40497</ele><time>2026-03-06T20:58:32.000Z</time></trkpt>
        <trkpt lat="28.67583" lon="104.183784"><ele>978.719</ele><time>2026-03-06T20:58:44.000Z</time></trkpt>
        <trkpt lat="28.675795" lon="104.183803"><ele>978.3244</ele><time>2026-03-06T20:58:48.000Z</time></trkpt>
        <trkpt lat="28.675757" lon="104.183831"><ele>978.25867</ele><time>2026-03-06T20:58:51.000Z</time></trkpt>
        <trkpt lat="28.675701" lon="104.183871"><ele>979.3147</ele><time>2026-03-06T20:58:56.000Z</time></trkpt>
        <trkpt lat="28.67565" lon="104.183909"><ele>979.18036</ele><time>2026-03-06T20:59:01.000Z</time></trkpt>
        <trkpt lat="28.675599" lon="104.183925"><ele>980.4686</ele><time>2026-03-06T20:59:06.000Z</time></trkpt>
        <trkpt lat="28.675544" lon="104.183935"><ele>978.61475</ele><time>2026-03-06T20:59:10.000Z</time></trkpt>
        <trkpt lat="28.675496" lon="104.183916"><ele>980.07117</ele><time>2026-03-06T20:59:14.000Z</time></trkpt>
        <trkpt lat="28.675446" lon="104.183884"><ele>981.2746</ele><time>2026-03-06T20:59:19.000Z</time></trkpt>
        <trkpt lat="28.675396" lon="104.183845"><ele>982.28906</ele><time>2026-03-06T20:59:29.000Z</time></trkpt>
        <trkpt lat="28.675355" lon="104.183824"><ele>982.3264</ele><time>2026-03-06T20:59:33.000Z</time></trkpt>
        <trkpt lat="28.675307" lon="104.183806"><ele>982.80505</ele><time>2026-03-06T20:59:37.000Z</time></trkpt>
        <trkpt lat="28.675245" lon="104.183783"><ele>983.94183</ele><time>2026-03-06T20:59:42.000Z</time></trkpt>
        <trkpt lat="28.675184" lon="104.183776"><ele>983.6519</ele><time>2026-03-06T20:59:47.000Z</time></trkpt>
        <trkpt lat="28.675133" lon="104.183767"><ele>983.1009</ele><time>2026-03-06T20:59:51.000Z</time></trkpt>
        <trkpt lat="28.675078" lon="104.183759"><ele>983.79425</ele><time>2026-03-06T20:59:55.000Z</time></trkpt>
        <trkpt lat="28.675018" lon="104.183763"><ele>983.827</ele><time>2026-03-06T21:00:04.000Z</time></trkpt>
        <trkpt lat="28.67498" lon="104.183779"><ele>983.2675</ele><time>2026-03-06T21:00:08.000Z</time></trkpt>
        <trkpt lat="28.674935" lon="104.183792"><ele>982.4963</ele><time>2026-03-06T21:00:12.000Z</time></trkpt>
        <trkpt lat="28.674888" lon="104.183805"><ele>983.47394</ele><time>2026-03-06T21:00:16.000Z</time></trkpt>
        <trkpt lat="28.674847" lon="104.18382"><ele>983.61646</ele><time>2026-03-06T21:00:19.000Z</time></trkpt>
        <trkpt lat="28.674788" lon="104.183842"><ele>985.0305</ele><time>2026-03-06T21:00:25.000Z</time></trkpt>
        <trkpt lat="28.674747" lon="104.18387"><ele>983.9682</ele><time>2026-03-06T21:00:30.000Z</time></trkpt>
        <trkpt lat="28.674712" lon="104.183901"><ele>983.6721</ele><time>2026-03-06T21:00:34.000Z</time></trkpt>
        <trkpt lat="28.674676" lon="104.183933"><ele>984.6107</ele><time>2026-03-06T21:00:38.000Z</time></trkpt>
        <trkpt lat="28.674642" lon="104.183976"><ele>984.50793</ele><time>2026-03-06T21:00:42.000Z</time></trkpt>
        <trkpt lat="28.674604" lon="104.184023"><ele>983.23303</ele><time>2026-03-06T21:00:48.000Z</time></trkpt>
        <trkpt lat="28.674583" lon="104.184066"><ele>983.8592</ele><time>2026-03-06T21:00:52.000Z</time></trkpt>
        <trkpt lat="28.67457" lon="104.184113"><ele>984.1274</ele><time>2026-03-06T21:00:55.000Z</time></trkpt>
        <trkpt lat="28.674546" lon="104.184177"><ele>985.62787</ele><time>2026-03-06T21:01:00.000Z</time></trkpt>
        <trkpt lat="28.67452" lon="104.184238"><ele>986.3265</ele><time>2026-03-06T21:01:05.000Z</time></trkpt>
        <trkpt lat="28.674506" lon="104.18429"><ele>986.5519</ele><time>2026-03-06T21:01:09.000Z</time></trkpt>
        <trkpt lat="28.674479" lon="104.184345"><ele>987.9688</ele><time>2026-03-06T21:01:13.000Z</time></trkpt>
        <trkpt lat="28.674442" lon="104.1844"><ele>988.7017</ele><time>2026-03-06T21:01:18.000Z</time></trkpt>
        <trkpt lat="28.674409" lon="104.184443"><ele>989.20435</ele><time>2026-03-06T21:01:22.000Z</time></trkpt>
        <trkpt lat="28.674373" lon="104.184492"><ele>989.23627</ele><time>2026-03-06T21:01:27.000Z</time></trkpt>
        <trkpt lat="28.674334" lon="104.184527"><ele>988.21313</ele><time>2026-03-06T21:01:31.000Z</time></trkpt>
        <trkpt lat="28.674293" lon="104.184561"><ele>988.8371</ele><time>2026-03-06T21:01:35.000Z</time></trkpt>
        <trkpt lat="28.674254" lon="104.1846"><ele>987.8625</ele><time>2026-03-06T21:01:39.000Z</time></trkpt>
        <trkpt lat="28.674208" lon="104.184638"><ele>986.98175</ele><time>2026-03-06T21:01:45.000Z</time></trkpt>
        <trkpt lat="28.674181" lon="104.184678"><ele>986.49066</ele><time>2026-03-06T21:01:49.000Z</time></trkpt>
        <trkpt lat="28.674148" lon="104.184721"><ele>986.5478</ele><time>2026-03-06T21:01:53.000Z</time></trkpt>
        <trkpt lat="28.674116" lon="104.184771"><ele>986.11707</ele><time>2026-03-06T21:01:57.000Z</time></trkpt>
        <trkpt lat="28.674073" lon="104.184821"><ele>985.9197</ele><time>2026-03-06T21:02:02.000Z</time></trkpt>
        <trkpt lat="28.674042" lon="104.184865"><ele>985.14984</ele><time>2026-03-06T21:02:06.000Z</time></trkpt>
        <trkpt lat="28.674006" lon="104.184908"><ele>984.91187</ele><time>2026-03-06T21:02:10.000Z</time></trkpt>
        <trkpt lat="28.67398" lon="104.18496"><ele>985.96313</ele><time>2026-03-06T21:02:14.000Z</time></trkpt>
        <trkpt lat="28.673949" lon="104.185007"><ele>985.87476</ele><time>2026-03-06T21:02:18.000Z</time></trkpt>
        <trkpt lat="28.673914" lon="104.185058"><ele>986.9042</ele><time>2026-03-06T21:02:22.000Z</time></trkpt>
        <trkpt lat="28.673877" lon="104.185099"><ele>987.6354</ele><time>2026-03-06T21:02:26.000Z</time></trkpt>
        <trkpt lat="28.673842" lon="104.185136"><ele>986.5258</ele><time>2026-03-06T21:02:30.000Z</time></trkpt>
        <trkpt lat="28.673812" lon="104.18517"><ele>986.58655</ele><time>2026-03-06T21:02:33.000Z</time></trkpt>
        <trkpt lat="28.673782" lon="104.185228"><ele>986.57965</ele><time>2026-03-06T21:02:38.000Z</time></trkpt>
        <trkpt lat="28.673771" lon="104.185285"><ele>986.9866</ele><time>2026-03-06T21:02:44.000Z</time></trkpt>
        <trkpt lat="28.673749" lon="104.185323"><ele>987.61346</ele><time>2026-03-06T21:02:48.000Z</time></trkpt>
        <trkpt lat="28.673704" lon="104.185338"><ele>987.9988</ele><time>2026-03-06T21:02:52.000Z</time></trkpt>
        <trkpt lat="28.673651" lon="104.185346"><ele>988.37646</ele><time>2026-03-06T21:02:56.000Z</time></trkpt>
        <trkpt lat="28.673594" lon="104.185351"><ele>988.2649</ele><time>2026-03-06T21:03:00.000Z</time></trkpt>
        <trkpt lat="28.673539" lon="104.185354"><ele>988.2607</ele><time>2026-03-06T21:03:04.000Z</time></trkpt>
        <trkpt lat="28.673483" lon="104.185364"><ele>988.1988</ele><time>2026-03-06T21:03:08.000Z</time></trkpt>
        <trkpt lat="28.673433" lon="104.185377"><ele>987.9591</ele><time>2026-03-06T21:03:12.000Z</time></trkpt>
        <trkpt lat="28.67339" lon="104.185385"><ele>987.7847</ele><time>2026-03-06T21:03:15.000Z</time></trkpt>
        <trkpt lat="28.67333" lon="104.185389"><ele>987.97614</ele><time>2026-03-06T21:03:20.000Z</time></trkpt>
        <trkpt lat="28.673281" lon="104.185386"><ele>988.3029</ele><time>2026-03-06T21:03:24.000Z</time></trkpt>
        <trkpt lat="28.673228" lon="104.185383"><ele>987.80505</ele><time>2026-03-06T21:03:28.000Z</time></trkpt>
        <trkpt lat="28.673164" lon="104.185381"><ele>986.72125</ele><time>2026-03-06T21:03:33.000Z</time></trkpt>
        <trkpt lat="28.67311" lon="104.185377"><ele>986.831</ele><time>2026-03-06T21:03:37.000Z</time></trkpt>
        <trkpt lat="28.673058" lon="104.185376"><ele>987.20404</ele><time>2026-03-06T21:03:41.000Z</time></trkpt>
        <trkpt lat="28.673014" lon="104.185384"><ele>987.10126</ele><time>2026-03-06T21:03:44.000Z</time></trkpt>
        <trkpt lat="28.672962" lon="104.185374"><ele>987.301</ele><time>2026-03-06T21:03:48.000Z</time></trkpt>
        <trkpt lat="28.672914" lon="104.18535"><ele>988.1376</ele><time>2026-03-06T21:03:52.000Z</time></trkpt>
        <trkpt lat="28.672873" lon="104.185319"><ele>988.38275</ele><time>2026-03-06T21:03:56.000Z</time></trkpt>
        <trkpt lat="28.672839" lon="104.185261"><ele>987.62024</ele><time>2026-03-06T21:04:01.000Z</time></trkpt>
        <trkpt lat="28.672812" lon="104.185213"><ele>987.24915</ele><time>2026-03-06T21:04:05.000Z</time></trkpt>
        <trkpt lat="28.672776" lon="104.185185"><ele>986.9755</ele><time>2026-03-06T21:04:08.000Z</time></trkpt>
        <trkpt lat="28.672722" lon="104.185164"><ele>986.84766</ele><time>2026-03-06T21:04:12.000Z</time></trkpt>
        <trkpt lat="28.67267" lon="104.185152"><ele>986.5246</ele><time>2026-03-06T21:04:16.000Z</time></trkpt>
        <trkpt lat="28.672607" lon="104.185138"><ele>984.9844</ele><time>2026-03-06T21:04:21.000Z</time></trkpt>
        <trkpt lat="28.672562" lon="104.185146"><ele>984.0216</ele><time>2026-03-06T21:04:24.000Z</time></trkpt>
        <trkpt lat="28.672515" lon="104.185153"><ele>983.32794</ele><time>2026-03-06T21:04:27.000Z</time></trkpt>
        <trkpt lat="28.67247" lon="104.18517"><ele>982.78754</ele><time>2026-03-06T21:04:30.000Z</time></trkpt>
        <trkpt lat="28.672412" lon="104.185192"><ele>981.68207</ele><time>2026-03-06T21:04:35.000Z</time></trkpt>
        <trkpt lat="28.67236" lon="104.18523"><ele>980.8305</ele><time>2026-03-06T21:04:40.000Z</time></trkpt>
        <trkpt lat="28.672325" lon="104.185273"><ele>980.4229</ele><time>2026-03-06T21:04:44.000Z</time></trkpt>
        <trkpt lat="28.6723" lon="104.185324"><ele>979.8306</ele><time>2026-03-06T21:04:48.000Z</time></trkpt>
        <trkpt lat="28.672286" lon="104.185387"><ele>979.0628</ele><time>2026-03-06T21:04:53.000Z</time></trkpt>
        <trkpt lat="28.672264" lon="104.185441"><ele>979.01263</ele><time>2026-03-06T21:04:58.000Z</time></trkpt>
        <trkpt lat="28.672238" lon="104.185491"><ele>978.7982</ele><time>2026-03-06T21:05:03.000Z</time></trkpt>
        <trkpt lat="28.672216" lon="104.185541"><ele>978.51654</ele><time>2026-03-06T21:05:07.000Z</time></trkpt>
        <trkpt lat="28.672187" lon="104.185586"><ele>978.1696</ele><time>2026-03-06T21:05:11.000Z</time></trkpt>
        <trkpt lat="28.672149" lon="104.185623"><ele>977.58075</ele><time>2026-03-06T21:05:15.000Z</time></trkpt>
        <trkpt lat="28.672099" lon="104.185658"><ele>976.9047</ele><time>2026-03-06T21:05:20.000Z</time></trkpt>
        <trkpt lat="28.672059" lon="104.185688"><ele>976.14307</ele><time>2026-03-06T21:05:24.000Z</time></trkpt>
        <trkpt lat="28.672042" lon="104.185735"><ele>975.2399</ele><time>2026-03-06T21:05:28.000Z</time></trkpt>
        <trkpt lat="28.67205" lon="104.185786"><ele>974.01355</ele><time>2026-03-06T21:05:32.000Z</time></trkpt>
        <trkpt lat="28.672077" lon="104.185837"><ele>973.33954</ele><time>2026-03-06T21:05:36.000Z</time></trkpt>
        <trkpt lat="28.672105" lon="104.185887"><ele>972.63776</ele><time>2026-03-06T21:05:40.000Z</time></trkpt>
        <trkpt lat="28.672125" lon="104.185932"><ele>971.99634</ele><time>2026-03-06T21:05:43.000Z</time></trkpt>
        <trkpt lat="28.672159" lon="104.185993"><ele>971.7275</ele><time>2026-03-06T21:05:48.000Z</time></trkpt>
        <trkpt lat="28.67219" lon="104.186043"><ele>971.75574</ele><time>2026-03-06T21:05:52.000Z</time></trkpt>
        <trkpt lat="28.672221" lon="104.18609"><ele>971.3129</ele><time>2026-03-06T21:05:56.000Z</time></trkpt>
        <trkpt lat="28.672239" lon="104.186151"><ele>969.86066</ele><time>2026-03-06T21:06:01.000Z</time></trkpt>
        <trkpt lat="28.672229" lon="104.186193"><ele>969.0705</ele><time>2026-03-06T21:06:04.000Z</time></trkpt>
        <trkpt lat="28.672194" lon="104.186222"><ele>968.48883</ele><time>2026-03-06T21:06:07.000Z</time></trkpt>
        <trkpt lat="28.672154" lon="104.186212"><ele>968.343</ele><time>2026-03-06T21:06:10.000Z</time></trkpt>
        <trkpt lat="28.672109" lon="104.186179"><ele>969.11395</ele><time>2026-03-06T21:06:13.000Z</time></trkpt>
        <trkpt lat="28.672057" lon="104.186139"><ele>970.31104</ele><time>2026-03-06T21:06:17.000Z</time></trkpt>
        <trkpt lat="28.672012" lon="104.186101"><ele>970.83185</ele><time>2026-03-06T21:06:21.000Z</time></trkpt>
        <trkpt lat="28.671961" lon="104.186058"><ele>971.0817</ele><time>2026-03-06T21:06:26.000Z</time></trkpt>
        <trkpt lat="28.671915" lon="104.18602"><ele>970.8461</ele><time>2026-03-06T21:06:31.000Z</time></trkpt>
        <trkpt lat="28.671873" lon="104.186021"><ele>970.7122</ele><time>2026-03-06T21:06:35.000Z</time></trkpt>
        <trkpt lat="28.671833" lon="104.186047"><ele>971.3329</ele><time>2026-03-06T21:06:39.000Z</time></trkpt>
        <trkpt lat="28.671796" lon="104.186099"><ele>971.68463</ele><time>2026-03-06T21:06:46.000Z</time></trkpt>
        <trkpt lat="28.671776" lon="104.186157"><ele>972.08307</ele><time>2026-03-06T21:06:51.000Z</time></trkpt>
        <trkpt lat="28.671754" lon="104.186211"><ele>971.97034</ele><time>2026-03-06T21:06:56.000Z</time></trkpt>
        <trkpt lat="28.671745" lon="104.186274"><ele>972.37744</ele><time>2026-03-06T21:07:00.000Z</time></trkpt>
        <trkpt lat="28.671746" lon="104.18634"><ele>973.06573</ele><time>2026-03-06T21:07:04.000Z</time></trkpt>
        <trkpt lat="28.671741" lon="104.186391"><ele>974.2604</ele><time>2026-03-06T21:07:07.000Z</time></trkpt>
        <trkpt lat="28.671723" lon="104.186452"><ele>974.31903</ele><time>2026-03-06T21:07:12.000Z</time></trkpt>
        <trkpt lat="28.671688" lon="104.186471"><ele>974.4687</ele><time>2026-03-06T21:07:15.000Z</time></trkpt>
        <trkpt lat="28.671637" lon="104.186493"><ele>973.8276</ele><time>2026-03-06T21:07:19.000Z</time></trkpt>
        <trkpt lat="28.671582" lon="104.186501"><ele>972.63416</ele><time>2026-03-06T21:07:23.000Z</time></trkpt>
        <trkpt lat="28.671524" lon="104.186512"><ele>973.3428</ele><time>2026-03-06T21:07:28.000Z</time></trkpt>
        <trkpt lat="28.671472" lon="104.18652"><ele>973.54803</ele><time>2026-03-06T21:07:34.000Z</time></trkpt>
        <trkpt lat="28.671438" lon="104.186544"><ele>972.78796</ele><time>2026-03-06T21:07:37.000Z</time></trkpt>
        <trkpt lat="28.6714" lon="104.18658"><ele>971.3764</ele><time>2026-03-06T21:07:41.000Z</time></trkpt>
        <trkpt lat="28.671361" lon="104.186621"><ele>970.0038</ele><time>2026-03-06T21:07:45.000Z</time></trkpt>
        <trkpt lat="28.671322" lon="104.186658"><ele>969.45654</ele><time>2026-03-06T21:07:50.000Z</time></trkpt>
        <trkpt lat="28.671291" lon="104.1867"><ele>968.23676</ele><time>2026-03-06T21:07:54.000Z</time></trkpt>
        <trkpt lat="28.671253" lon="104.186743"><ele>967.6334</ele><time>2026-03-06T21:07:58.000Z</time></trkpt>
        <trkpt lat="28.671207" lon="104.186793"><ele>967.59076</ele><time>2026-03-06T21:08:03.000Z</time></trkpt>
        <trkpt lat="28.671184" lon="104.18684"><ele>967.58594</ele><time>2026-03-06T21:08:07.000Z</time></trkpt>
        <trkpt lat="28.671168" lon="104.186901"><ele>967.62726</ele><time>2026-03-06T21:08:12.000Z</time></trkpt>
        <trkpt lat="28.67117" lon="104.186969"><ele>966.42</ele><time>2026-03-06T21:08:17.000Z</time></trkpt>
        <trkpt lat="28.67118" lon="104.187018"><ele>965.84467</ele><time>2026-03-06T21:08:20.000Z</time></trkpt>
        <trkpt lat="28.671196" lon="104.18707"><ele>965.3116</ele><time>2026-03-06T21:08:23.000Z</time></trkpt>
        <trkpt lat="28.671214" lon="104.187122"><ele>965.0936</ele><time>2026-03-06T21:08:26.000Z</time></trkpt>
        <trkpt lat="28.671225" lon="104.187178"><ele>964.8476</ele><time>2026-03-06T21:08:29.000Z</time></trkpt>
        <trkpt lat="28.671219" lon="104.187244"><ele>964.9256</ele><time>2026-03-06T21:08:33.000Z</time></trkpt>
        <trkpt lat="28.671192" lon="104.187294"><ele>964.3726</ele><time>2026-03-06T21:08:37.000Z</time></trkpt>
        <trkpt lat="28.671157" lon="104.187329"><ele>964.6257</ele><time>2026-03-06T21:08:40.000Z</time></trkpt>
        <trkpt lat="28.67111" lon="104.187371"><ele>964.9078</ele><time>2026-03-06T21:08:44.000Z</time></trkpt>
        <trkpt lat="28.671065" lon="104.187405"><ele>964.67126</ele><time>2026-03-06T21:08:48.000Z</time></trkpt>
        <trkpt lat="28.67103" lon="104.187443"><ele>964.32904</ele><time>2026-03-06T21:08:52.000Z</time></trkpt>
        <trkpt lat="28.671009" lon="104.187489"><ele>964.57965</ele><time>2026-03-06T21:08:56.000Z</time></trkpt>
        <trkpt lat="28.671008" lon="104.187548"><ele>966.06445</ele><time>2026-03-06T21:09:00.000Z</time></trkpt>
        <trkpt lat="28.671023" lon="104.187614"><ele>966.3915</ele><time>2026-03-06T21:09:04.000Z</time></trkpt>
        <trkpt lat="28.671034" lon="104.187675"><ele>967.86084</ele><time>2026-03-06T21:09:08.000Z</time></trkpt>
        <trkpt lat="28.671066" lon="104.187721"><ele>968.6895</ele><time>2026-03-06T21:09:12.000Z</time></trkpt>
        <trkpt lat="28.671086" lon="104.187774"><ele>968.2497</ele><time>2026-03-06T21:09:17.000Z</time></trkpt>
        <trkpt lat="28.671097" lon="104.187821"><ele>967.3961</ele><time>2026-03-06T21:09:21.000Z</time></trkpt>
        <trkpt lat="28.671102" lon="104.187872"><ele>966.5501</ele><time>2026-03-06T21:09:25.000Z</time></trkpt>
        <trkpt lat="28.671106" lon="104.187943"><ele>967.518</ele><time>2026-03-06T21:09:30.000Z</time></trkpt>
        <trkpt lat="28.671124" lon="104.188003"><ele>966.57666</ele><time>2026-03-06T21:09:35.000Z</time></trkpt>
        <trkpt lat="28.671135" lon="104.188054"><ele>966.65924</ele><time>2026-03-06T21:09:39.000Z</time></trkpt>
        <trkpt lat="28.67113" lon="104.188116"><ele>969.0367</ele><time>2026-03-06T21:09:43.000Z</time></trkpt>
        <trkpt lat="28.67111" lon="104.188184"><ele>969.03375</ele><time>2026-03-06T21:09:48.000Z</time></trkpt>
        <trkpt lat="28.671066" lon="104.18823"><ele>968.993</ele><time>2026-03-06T21:09:52.000Z</time></trkpt>
        <trkpt lat="28.671016" lon="104.188255"><ele>968.4914</ele><time>2026-03-06T21:09:56.000Z</time></trkpt>
        <trkpt lat="28.670967" lon="104.188271"><ele>967.98676</ele><time>2026-03-06T21:10:00.000Z</time></trkpt>
        <trkpt lat="28.670916" lon="104.188287"><ele>968.7595</ele><time>2026-03-06T21:10:04.000Z</time></trkpt>
        <trkpt lat="28.670867" lon="104.188309"><ele>969.2357</ele><time>2026-03-06T21:10:08.000Z</time></trkpt>
        <trkpt lat="28.67082" lon="104.188327"><ele>969.24713</ele><time>2026-03-06T21:10:12.000Z</time></trkpt>
        <trkpt lat="28.670763" lon="104.188346"><ele>967.83954</ele><time>2026-03-06T21:10:21.000Z</time></trkpt>
        <trkpt lat="28.670721" lon="104.188357"><ele>968.6322</ele><time>2026-03-06T21:10:25.000Z</time></trkpt>
        <trkpt lat="28.670678" lon="104.188393"><ele>968.55194</ele><time>2026-03-06T21:10:29.000Z</time></trkpt>
        <trkpt lat="28.670655" lon="104.188449"><ele>967.8368</ele><time>2026-03-06T21:10:35.000Z</time></trkpt>
        <trkpt lat="28.670682" lon="104.188487"><ele>967.91284</ele><time>2026-03-06T21:10:39.000Z</time></trkpt>
        <trkpt lat="28.670725" lon="104.188512"><ele>967.82196</ele><time>2026-03-06T21:10:43.000Z</time></trkpt>
        <trkpt lat="28.670782" lon="104.188535"><ele>968.5701</ele><time>2026-03-06T21:10:49.000Z</time></trkpt>
        <trkpt lat="28.67074" lon="104.188531"><ele>968.4949</ele><time>2026-03-06T21:11:10.000Z</time></trkpt>
        <trkpt lat="28.67069" lon="104.188506"><ele>968.7277</ele><time>2026-03-06T21:11:15.000Z</time></trkpt>
        <trkpt lat="28.670647" lon="104.18849"><ele>968.89246</ele><time>2026-03-06T21:11:19.000Z</time></trkpt>
        <trkpt lat="28.6706" lon="104.188468"><ele>968.0796</ele><time>2026-03-06T21:11:23.000Z</time></trkpt>
        <trkpt lat="28.670548" lon="104.188455"><ele>968.5746</ele><time>2026-03-06T21:11:27.000Z</time></trkpt>
        <trkpt lat="28.670488" lon="104.188431"><ele>967.2905</ele><time>2026-03-06T21:11:31.000Z</time></trkpt>
        <trkpt lat="28.67043" lon="104.188417"><ele>966.6808</ele><time>2026-03-06T21:11:35.000Z</time></trkpt>
        <trkpt lat="28.670381" lon="104.188409"><ele>966.88904</ele><time>2026-03-06T21:11:39.000Z</time></trkpt>
        <trkpt lat="28.670327" lon="104.188401"><ele>966.6795</ele><time>2026-03-06T21:11:44.000Z</time></trkpt>
        <trkpt lat="28.670281" lon="104.188381"><ele>964.9757</ele><time>2026-03-06T21:11:49.000Z</time></trkpt>
        <trkpt lat="28.670237" lon="104.188372"><ele>963.9557</ele><time>2026-03-06T21:11:53.000Z</time></trkpt>
        <trkpt lat="28.670181" lon="104.188371"><ele>964.00635</ele><time>2026-03-06T21:11:57.000Z</time></trkpt>
        <trkpt lat="28.670127" lon="104.188374"><ele>963.863</ele><time>2026-03-06T21:12:01.000Z</time></trkpt>
        <trkpt lat="28.670075" lon="104.188384"><ele>963.40533</ele><time>2026-03-06T21:12:05.000Z</time></trkpt>
        <trkpt lat="28.67002" lon="104.188394"><ele>962.90765</ele><time>2026-03-06T21:12:09.000Z</time></trkpt>
        <trkpt lat="28.669977" lon="104.188404"><ele>962.75507</ele><time>2026-03-06T21:12:12.000Z</time></trkpt>
        <trkpt lat="28.66992" lon="104.188404"><ele>961.9591</ele><time>2026-03-06T21:12:16.000Z</time></trkpt>
        <trkpt lat="28.669865" lon="104.188394"><ele>961.68</ele><time>2026-03-06T21:12:20.000Z</time></trkpt>
        <trkpt lat="28.669811" lon="104.188383"><ele>960.7488</ele><time>2026-03-06T21:12:24.000Z</time></trkpt>
        <trkpt lat="28.669764" lon="104.18837"><ele>960.4244</ele><time>2026-03-06T21:12:28.000Z</time></trkpt>
        <trkpt lat="28.66972" lon="104.188356"><ele>960.2211</ele><time>2026-03-06T21:12:32.000Z</time></trkpt>
        <trkpt lat="28.669677" lon="104.188329"><ele>960.00165</ele><time>2026-03-06T21:12:37.000Z</time></trkpt>
        <trkpt lat="28.669645" lon="104.188302"><ele>960.29083</ele><time>2026-03-06T21:12:40.000Z</time></trkpt>
        <trkpt lat="28.669596" lon="104.188274"><ele>960.5771</ele><time>2026-03-06T21:12:44.000Z</time></trkpt>
        <trkpt lat="28.669549" lon="104.188242"><ele>960.86334</ele><time>2026-03-06T21:12:48.000Z</time></trkpt>
        <trkpt lat="28.669503" lon="104.188202"><ele>961.28314</ele><time>2026-03-06T21:12:52.000Z</time></trkpt>
        <trkpt lat="28.66946" lon="104.188164"><ele>961.5969</ele><time>2026-03-06T21:12:56.000Z</time></trkpt>
        <trkpt lat="28.669416" lon="104.188138"><ele>960.91693</ele><time>2026-03-06T21:13:00.000Z</time></trkpt>
        <trkpt lat="28.669371" lon="104.188114"><ele>959.7266</ele><time>2026-03-06T21:13:04.000Z</time></trkpt>
        <trkpt lat="28.66932" lon="104.188087"><ele>959.831</ele><time>2026-03-06T21:13:08.000Z</time></trkpt>
        <trkpt lat="28.669269" lon="104.188055"><ele>960.2783</ele><time>2026-03-06T21:13:12.000Z</time></trkpt>
        <trkpt lat="28.669219" lon="104.188028"><ele>960.3598</ele><time>2026-03-06T21:13:16.000Z</time></trkpt>
        <trkpt lat="28.669171" lon="104.188002"><ele>959.94763</ele><time>2026-03-06T21:13:20.000Z</time></trkpt>
        <trkpt lat="28.669132" lon="104.187979"><ele>959.6426</ele><time>2026-03-06T21:13:23.000Z</time></trkpt>
        <trkpt lat="28.669083" lon="104.187954"><ele>959.2452</ele><time>2026-03-06T21:13:27.000Z</time></trkpt>
        <trkpt lat="28.669037" lon="104.187932"><ele>959.3013</ele><time>2026-03-06T21:13:31.000Z</time></trkpt>
        <trkpt lat="28.668989" lon="104.187907"><ele>958.99384</ele><time>2026-03-06T21:13:35.000Z</time></trkpt>
        <trkpt lat="28.668934" lon="104.187878"><ele>959.20685</ele><time>2026-03-06T21:13:39.000Z</time></trkpt>
        <trkpt lat="28.668879" lon="104.187866"><ele>958.95325</ele><time>2026-03-06T21:13:43.000Z</time></trkpt>
        <trkpt lat="28.668826" lon="104.187849"><ele>958.7989</ele><time>2026-03-06T21:13:47.000Z</time></trkpt>
        <trkpt lat="28.668779" lon="104.187819"><ele>958.08026</ele><time>2026-03-06T21:13:51.000Z</time></trkpt>
        <trkpt lat="28.668735" lon="104.187785"><ele>958.2201</ele><time>2026-03-06T21:13:55.000Z</time></trkpt>
        <trkpt lat="28.668694" lon="104.18775"><ele>957.8196</ele><time>2026-03-06T21:13:59.000Z</time></trkpt>
        <trkpt lat="28.668651" lon="104.187722"><ele>956.1638</ele><time>2026-03-06T21:14:03.000Z</time></trkpt>
        <trkpt lat="28.668615" lon="104.187698"><ele>955.6889</ele><time>2026-03-06T21:14:06.000Z</time></trkpt>
        <trkpt lat="28.668575" lon="104.187674"><ele>956.0226</ele><time>2026-03-06T21:14:09.000Z</time></trkpt>
        <trkpt lat="28.668511" lon="104.187647"><ele>957.4823</ele><time>2026-03-06T21:14:14.000Z</time></trkpt>
        <trkpt lat="28.668464" lon="104.187629"><ele>957.50446</ele><time>2026-03-06T21:14:18.000Z</time></trkpt>
        <trkpt lat="28.668414" lon="104.187604"><ele>956.7128</ele><time>2026-03-06T21:14:22.000Z</time></trkpt>
        <trkpt lat="28.668369" lon="104.187569"><ele>956.61475</ele><time>2026-03-06T21:14:26.000Z</time></trkpt>
        <trkpt lat="28.668322" lon="104.187541"><ele>956.5508</ele><time>2026-03-06T21:14:30.000Z</time></trkpt>
        <trkpt lat="28.668278" lon="104.187521"><ele>957.25494</ele><time>2026-03-06T21:14:33.000Z</time></trkpt>
        <trkpt lat="28.668234" lon="104.187501"><ele>957.52563</ele><time>2026-03-06T21:14:36.000Z</time></trkpt>
        <trkpt lat="28.668176" lon="104.187471"><ele>957.69867</ele><time>2026-03-06T21:14:41.000Z</time></trkpt>
        <trkpt lat="28.668137" lon="104.187453"><ele>958.2422</ele><time>2026-03-06T21:14:44.000Z</time></trkpt>
        <trkpt lat="28.668097" lon="104.187434"><ele>959.07935</ele><time>2026-03-06T21:14:47.000Z</time></trkpt>
        <trkpt lat="28.668045" lon="104.187413"><ele>959.54126</ele><time>2026-03-06T21:14:51.000Z</time></trkpt>
        <trkpt lat="28.668002" lon="104.187396"><ele>959.4885</ele><time>2026-03-06T21:14:54.000Z</time></trkpt>
        <trkpt lat="28.667953" lon="104.187372"><ele>959.49</ele><time>2026-03-06T21:14:58.000Z</time></trkpt>
        <trkpt lat="28.6679" lon="104.187343"><ele>959.9543</ele><time>2026-03-06T21:15:02.000Z</time></trkpt>
        <trkpt lat="28.667857" lon="104.187313"><ele>959.9403</ele><time>2026-03-06T21:15:06.000Z</time></trkpt>
        <trkpt lat="28.667809" lon="104.187283"><ele>960.11676</ele><time>2026-03-06T21:15:10.000Z</time></trkpt>
        <trkpt lat="28.667768" lon="104.187264"><ele>960.3206</ele><time>2026-03-06T21:15:13.000Z</time></trkpt>
        <trkpt lat="28.667716" lon="104.187238"><ele>959.8924</ele><time>2026-03-06T21:15:17.000Z</time></trkpt>
        <trkpt lat="28.667665" lon="104.187213"><ele>960.3268</ele><time>2026-03-06T21:15:21.000Z</time></trkpt>
        <trkpt lat="28.667619" lon="104.187186"><ele>960.8503</ele><time>2026-03-06T21:15:25.000Z</time></trkpt>
        <trkpt lat="28.66758" lon="104.187164"><ele>961.55493</ele><time>2026-03-06T21:15:28.000Z</time></trkpt>
        <trkpt lat="28.66754" lon="104.187145"><ele>962.2743</ele><time>2026-03-06T21:15:31.000Z</time></trkpt>
        <trkpt lat="28.667489" lon="104.187116"><ele>962.4761</ele><time>2026-03-06T21:15:35.000Z</time></trkpt>
        <trkpt lat="28.667442" lon="104.187081"><ele>961.8152</ele><time>2026-03-06T21:15:39.000Z</time></trkpt>
        <trkpt lat="28.667398" lon="104.187044"><ele>961.7315</ele><time>2026-03-06T21:15:43.000Z</time></trkpt>
        <trkpt lat="28.667355" lon="104.187006"><ele>961.4319</ele><time>2026-03-06T21:15:47.000Z</time></trkpt>
        <trkpt lat="28.66732" lon="104.186963"><ele>961.45013</ele><time>2026-03-06T21:15:51.000Z</time></trkpt>
        <trkpt lat="28.667287" lon="104.186917"><ele>961.83514</ele><time>2026-03-06T21:15:55.000Z</time></trkpt>
        <trkpt lat="28.66726" lon="104.186866"><ele>962.1207</ele><time>2026-03-06T21:15:59.000Z</time></trkpt>
        <trkpt lat="28.667226" lon="104.186815"><ele>962.87195</ele><time>2026-03-06T21:16:03.000Z</time></trkpt>
        <trkpt lat="28.667187" lon="104.186759"><ele>962.4603</ele><time>2026-03-06T21:16:08.000Z</time></trkpt>
        <trkpt lat="28.667165" lon="104.186719"><ele>962.795</ele><time>2026-03-06T21:16:11.000Z</time></trkpt>
        <trkpt lat="28.667131" lon="104.18667"><ele>963.31616</ele><time>2026-03-06T21:16:15.000Z</time></trkpt>
        <trkpt lat="28.667093" lon="104.186619"><ele>963.0949</ele><time>2026-03-06T21:16:19.000Z</time></trkpt>
        <trkpt lat="28.667057" lon="104.186577"><ele>962.4841</ele><time>2026-03-06T21:16:23.000Z</time></trkpt>
        <trkpt lat="28.667013" lon="104.186538"><ele>961.8655</ele><time>2026-03-06T21:16:27.000Z</time></trkpt>
        <trkpt lat="28.666971" lon="104.186518"><ele>961.56915</ele><time>2026-03-06T21:16:30.000Z</time></trkpt>
        <trkpt lat="28.66692" lon="104.186505"><ele>961.3915</ele><time>2026-03-06T21:16:34.000Z</time></trkpt>
        <trkpt lat="28.666876" lon="104.186508"><ele>961.25745</ele><time>2026-03-06T21:16:37.000Z</time></trkpt>
        <trkpt lat="28.666827" lon="104.186518"><ele>961.2186</ele><time>2026-03-06T21:16:40.000Z</time></trkpt>
        <trkpt lat="28.666764" lon="104.18652"><ele>961.0976</ele><time>2026-03-06T21:16:44.000Z</time></trkpt>
        <trkpt lat="28.666708" lon="104.186502"><ele>960.76276</ele><time>2026-03-06T21:16:48.000Z</time></trkpt>
        <trkpt lat="28.666672" lon="104.186453"><ele>960.0173</ele><time>2026-03-06T21:16:52.000Z</time></trkpt>
        <trkpt lat="28.666656" lon="104.186389"><ele>959.0627</ele><time>2026-03-06T21:16:56.000Z</time></trkpt>
        <trkpt lat="28.666653" lon="104.186334"><ele>958.77704</ele><time>2026-03-06T21:16:59.000Z</time></trkpt>
        <trkpt lat="28.666648" lon="104.186255"><ele>957.76227</ele><time>2026-03-06T21:17:04.000Z</time></trkpt>
        <trkpt lat="28.666651" lon="104.186188"><ele>956.0436</ele><time>2026-03-06T21:17:08.000Z</time></trkpt>
        <trkpt lat="28.666652" lon="104.186133"><ele>956.3838</ele><time>2026-03-06T21:17:11.000Z</time></trkpt>
        <trkpt lat="28.666658" lon="104.18608"><ele>956.9106</ele><time>2026-03-06T21:17:14.000Z</time></trkpt>
        <trkpt lat="28.666664" lon="104.186017"><ele>957.618</ele><time>2026-03-06T21:17:18.000Z</time></trkpt>
        <trkpt lat="28.666625" lon="104.185963"><ele>956.5447</ele><time>2026-03-06T21:17:30.000Z</time></trkpt>
        <trkpt lat="28.666605" lon="104.185932"><ele>957.2167</ele><time>2026-03-06T21:17:34.000Z</time></trkpt>
        <trkpt lat="28.666589" lon="104.185875"><ele>957.49243</ele><time>2026-03-06T21:17:38.000Z</time></trkpt>
        <trkpt lat="28.666562" lon="104.185826"><ele>956.90857</ele><time>2026-03-06T21:17:42.000Z</time></trkpt>
        <trkpt lat="28.666522" lon="104.185774"><ele>955.9787</ele><time>2026-03-06T21:17:47.000Z</time></trkpt>
        <trkpt lat="28.666494" lon="104.185723"><ele>954.7632</ele><time>2026-03-06T21:17:51.000Z</time></trkpt>
        <trkpt lat="28.666476" lon="104.185667"><ele>953.1828</ele><time>2026-03-06T21:17:55.000Z</time></trkpt>
        <trkpt lat="28.666467" lon="104.185615"><ele>952.64874</ele><time>2026-03-06T21:17:58.000Z</time></trkpt>
        <trkpt lat="28.666463" lon="104.185549"><ele>952.4712</ele><time>2026-03-06T21:18:02.000Z</time></trkpt>
        <trkpt lat="28.666468" lon="104.185493"><ele>952.46606</ele><time>2026-03-06T21:18:05.000Z</time></trkpt>
        <trkpt lat="28.666474" lon="104.185424"><ele>952.1762</ele><time>2026-03-06T21:18:09.000Z</time></trkpt>
        <trkpt lat="28.666473" lon="104.185362"><ele>950.9368</ele><time>2026-03-06T21:18:13.000Z</time></trkpt>
        <trkpt lat="28.666467" lon="104.185303"><ele>950.4342</ele><time>2026-03-06T21:18:17.000Z</time></trkpt>
        <trkpt lat="28.66646" lon="104.185239"><ele>949.62054</ele><time>2026-03-06T21:18:21.000Z</time></trkpt>
        <trkpt lat="28.666457" lon="104.185188"><ele>949.6156</ele><time>2026-03-06T21:18:24.000Z</time></trkpt>
        <trkpt lat="28.666447" lon="104.185125"><ele>949.74646</ele><time>2026-03-06T21:18:28.000Z</time></trkpt>
        <trkpt lat="28.666433" lon="104.185067"><ele>949.5519</ele><time>2026-03-06T21:18:32.000Z</time></trkpt>
        <trkpt lat="28.666419" lon="104.185013"><ele>949.0797</ele><time>2026-03-06T21:18:36.000Z</time></trkpt>
        <trkpt lat="28.666405" lon="104.184964"><ele>949.1229</ele><time>2026-03-06T21:18:39.000Z</time></trkpt>
        <trkpt lat="28.666388" lon="104.184905"><ele>948.51215</ele><time>2026-03-06T21:18:43.000Z</time></trkpt>
        <trkpt lat="28.666375" lon="104.184856"><ele>948.37085</ele><time>2026-03-06T21:18:46.000Z</time></trkpt>
        <trkpt lat="28.66636" lon="104.184792"><ele>946.8112</ele><time>2026-03-06T21:18:50.000Z</time></trkpt>
        <trkpt lat="28.666344" lon="104.184739"><ele>946.3605</ele><time>2026-03-06T21:18:53.000Z</time></trkpt>
        <trkpt lat="28.666331" lon="104.184685"><ele>946.269</ele><time>2026-03-06T21:18:56.000Z</time></trkpt>
        <trkpt lat="28.666315" lon="104.184618"><ele>945.66016</ele><time>2026-03-06T21:19:00.000Z</time></trkpt>
        <trkpt lat="28.666306" lon="104.184568"><ele>945.8268</ele><time>2026-03-06T21:19:03.000Z</time></trkpt>
        <trkpt lat="28.666293" lon="104.184502"><ele>945.50946</ele><time>2026-03-06T21:19:07.000Z</time></trkpt>
        <trkpt lat="28.666278" lon="104.184453"><ele>945.53125</ele><time>2026-03-06T21:19:10.000Z</time></trkpt>
        <trkpt lat="28.666259" lon="104.184391"><ele>944.3416</ele><time>2026-03-06T21:19:14.000Z</time></trkpt>
        <trkpt lat="28.66624" lon="104.184328"><ele>943.6118</ele><time>2026-03-06T21:19:18.000Z</time></trkpt>
        <trkpt lat="28.666227" lon="104.184279"><ele>942.964</ele><time>2026-03-06T21:19:21.000Z</time></trkpt>
        <trkpt lat="28.666212" lon="104.184214"><ele>942.8108</ele><time>2026-03-06T21:19:25.000Z</time></trkpt>
        <trkpt lat="28.666202" lon="104.184151"><ele>942.75256</ele><time>2026-03-06T21:19:29.000Z</time></trkpt>
        <trkpt lat="28.66619" lon="104.184087"><ele>942.639</ele><time>2026-03-06T21:19:33.000Z</time></trkpt>
        <trkpt lat="28.666174" lon="104.184027"><ele>942.65106</ele><time>2026-03-06T21:19:37.000Z</time></trkpt>
        <trkpt lat="28.666154" lon="104.18397"><ele>942.797</ele><time>2026-03-06T21:19:41.000Z</time></trkpt>
        <trkpt lat="28.66614" lon="104.18391"><ele>942.9275</ele><time>2026-03-06T21:19:45.000Z</time></trkpt>
        <trkpt lat="28.666129" lon="104.18386"><ele>942.5297</ele><time>2026-03-06T21:19:48.000Z</time></trkpt>
        <trkpt lat="28.666119" lon="104.183796"><ele>941.7016</ele><time>2026-03-06T21:19:52.000Z</time></trkpt>
        <trkpt lat="28.666105" lon="104.18374"><ele>940.84247</ele><time>2026-03-06T21:19:56.000Z</time></trkpt>
        <trkpt lat="28.666093" lon="104.183682"><ele>939.51697</ele><time>2026-03-06T21:20:00.000Z</time></trkpt>
        <trkpt lat="28.666085" lon="104.183624"><ele>938.28577</ele><time>2026-03-06T21:20:04.000Z</time></trkpt>
        <trkpt lat="28.666074" lon="104.183564"><ele>937.2259</ele><time>2026-03-06T21:20:08.000Z</time></trkpt>
        <trkpt lat="28.666055" lon="104.18352"><ele>937.7864</ele><time>2026-03-06T21:20:11.000Z</time></trkpt>
        <trkpt lat="28.666032" lon="104.183464"><ele>937.22815</ele><time>2026-03-06T21:20:15.000Z</time></trkpt>
        <trkpt lat="28.666007" lon="104.183414"><ele>937.3094</ele><time>2026-03-06T21:20:19.000Z</time></trkpt>
        <trkpt lat="28.665977" lon="104.183366"><ele>937.90924</ele><time>2026-03-06T21:20:23.000Z</time></trkpt>
        <trkpt lat="28.665942" lon="104.18332"><ele>938.3804</ele><time>2026-03-06T21:20:27.000Z</time></trkpt>
        <trkpt lat="28.665916" lon="104.183267"><ele>937.4594</ele><time>2026-03-06T21:20:31.000Z</time></trkpt>
        <trkpt lat="28.665874" lon="104.183225"><ele>938.06287</ele><time>2026-03-06T21:20:35.000Z</time></trkpt>
        <trkpt lat="28.665838" lon="104.183182"><ele>939.5385</ele><time>2026-03-06T21:20:39.000Z</time></trkpt>
        <trkpt lat="28.665809" lon="104.183136"><ele>940.13464</ele><time>2026-03-06T21:20:43.000Z</time></trkpt>
        <trkpt lat="28.66578" lon="104.183087"><ele>939.92706</ele><time>2026-03-06T21:20:47.000Z</time></trkpt>
        <trkpt lat="28.665753" lon="104.183028"><ele>938.73834</ele><time>2026-03-06T21:20:52.000Z</time></trkpt>
        <trkpt lat="28.66573" lon="104.182977"><ele>938.16095</ele><time>2026-03-06T21:20:56.000Z</time></trkpt>
        <trkpt lat="28.665704" lon="104.182929"><ele>937.34485</ele><time>2026-03-06T21:21:00.000Z</time></trkpt>
        <trkpt lat="28.665678" lon="104.182873"><ele>937.19946</ele><time>2026-03-06T21:21:04.000Z</time></trkpt>
        <trkpt lat="28.66565" lon="104.182819"><ele>937.42413</ele><time>2026-03-06T21:21:08.000Z</time></trkpt>
        <trkpt lat="28.665622" lon="104.182765"><ele>937.595</ele><time>2026-03-06T21:21:12.000Z</time></trkpt>
        <trkpt lat="28.665592" lon="104.182715"><ele>937.32635</ele><time>2026-03-06T21:21:16.000Z</time></trkpt>
        <trkpt lat="28.665567" lon="104.182664"><ele>937.2072</ele><time>2026-03-06T21:21:20.000Z</time></trkpt>
        <trkpt lat="28.66555" lon="104.18262"><ele>937.59973</ele><time>2026-03-06T21:21:23.000Z</time></trkpt>
        <trkpt lat="28.665539" lon="104.182553"><ele>937.4646</ele><time>2026-03-06T21:21:28.000Z</time></trkpt>
        <trkpt lat="28.66558" lon="104.182514"><ele>937.4993</ele><time>2026-03-06T21:21:35.000Z</time></trkpt>
        <trkpt lat="28.665644" lon="104.182496"><ele>936.52246</ele><time>2026-03-06T21:21:43.000Z</time></trkpt>
        <trkpt lat="28.665602" lon="104.182489"><ele>932.1202</ele><time>2026-03-06T21:25:15.000Z</time></trkpt>
        <trkpt lat="28.665562" lon="104.182516"><ele>933.88324</ele><time>2026-03-06T21:25:31.000Z</time></trkpt>
        <trkpt lat="28.665528" lon="104.182527"><ele>934.24915</ele><time>2026-03-06T21:25:35.000Z</time></trkpt>
        <trkpt lat="28.665479" lon="104.182498"><ele>933.9056</ele><time>2026-03-06T21:25:42.000Z</time></trkpt>
        <trkpt lat="28.665447" lon="104.182447"><ele>932.12384</ele><time>2026-03-06T21:25:53.000Z</time></trkpt>
        <trkpt lat="28.665436" lon="104.182397"><ele>932.8465</ele><time>2026-03-06T21:25:59.000Z</time></trkpt>
        <trkpt lat="28.665413" lon="104.182352"><ele>932.9931</ele><time>2026-03-06T21:26:04.000Z</time></trkpt>
        <trkpt lat="28.665383" lon="104.182298"><ele>932.58997</ele><time>2026-03-06T21:26:10.000Z</time></trkpt>
        <trkpt lat="28.66537" lon="104.18225"><ele>932.2355</ele><time>2026-03-06T21:26:13.000Z</time></trkpt>
        <trkpt lat="28.665337" lon="104.182188"><ele>932.41516</ele><time>2026-03-06T21:26:18.000Z</time></trkpt>
        <trkpt lat="28.665309" lon="104.182142"><ele>932.92035</ele><time>2026-03-06T21:26:22.000Z</time></trkpt>
        <trkpt lat="28.665277" lon="104.182088"><ele>933.1764</ele><time>2026-03-06T21:26:28.000Z</time></trkpt>
        <trkpt lat="28.665251" lon="104.182044"><ele>933.6655</ele><time>2026-03-06T21:26:32.000Z</time></trkpt>
        <trkpt lat="28.665223" lon="104.181992"><ele>934.94904</ele><time>2026-03-06T21:26:37.000Z</time></trkpt>
        <trkpt lat="28.665187" lon="104.181956"><ele>934.46246</ele><time>2026-03-06T21:26:41.000Z</time></trkpt>
        <trkpt lat="28.665145" lon="104.181905"><ele>932.1798</ele><time>2026-03-06T21:26:56.000Z</time></trkpt>
        <trkpt lat="28.665132" lon="104.181871"><ele>931.6515</ele><time>2026-03-06T21:27:00.000Z</time></trkpt>
        <trkpt lat="28.665111" lon="104.181816"><ele>932.77277</ele><time>2026-03-06T21:27:03.000Z</time></trkpt>
        <trkpt lat="28.66508" lon="104.18176"><ele>933.2785</ele><time>2026-03-06T21:27:07.000Z</time></trkpt>
        <trkpt lat="28.665044" lon="104.181711"><ele>934.3176</ele><time>2026-03-06T21:27:11.000Z</time></trkpt>
        <trkpt lat="28.665009" lon="104.181659"><ele>934.6829</ele><time>2026-03-06T21:27:15.000Z</time></trkpt>
        <trkpt lat="28.664968" lon="104.181613"><ele>934.67505</ele><time>2026-03-06T21:27:19.000Z</time></trkpt>
        <trkpt lat="28.664926" lon="104.181572"><ele>933.991</ele><time>2026-03-06T21:27:23.000Z</time></trkpt>
        <trkpt lat="28.664894" lon="104.181536"><ele>933.876</ele><time>2026-03-06T21:27:26.000Z</time></trkpt>
        <trkpt lat="28.664863" lon="104.181486"><ele>933.0007</ele><time>2026-03-06T21:27:30.000Z</time></trkpt>
        <trkpt lat="28.664838" lon="104.181435"><ele>932.1972</ele><time>2026-03-06T21:27:34.000Z</time></trkpt>
        <trkpt lat="28.66482" lon="104.181389"><ele>931.6633</ele><time>2026-03-06T21:27:37.000Z</time></trkpt>
        <trkpt lat="28.664797" lon="104.181329"><ele>932.022</ele><time>2026-03-06T21:27:41.000Z</time></trkpt>
        <trkpt lat="28.664776" lon="104.18127"><ele>932.37054</ele><time>2026-03-06T21:27:45.000Z</time></trkpt>
        <trkpt lat="28.664751" lon="104.181219"><ele>932.8494</ele><time>2026-03-06T21:27:49.000Z</time></trkpt>
        <trkpt lat="28.664723" lon="104.181168"><ele>933.2314</ele><time>2026-03-06T21:27:53.000Z</time></trkpt>
        <trkpt lat="28.664695" lon="104.181117"><ele>933.31195</ele><time>2026-03-06T21:27:57.000Z</time></trkpt>
        <trkpt lat="28.664662" lon="104.181073"><ele>933.1438</ele><time>2026-03-06T21:28:01.000Z</time></trkpt>
        <trkpt lat="28.664623" lon="104.181031"><ele>932.8995</ele><time>2026-03-06T21:28:05.000Z</time></trkpt>
        <trkpt lat="28.664586" lon="104.180987"><ele>931.79047</ele><time>2026-03-06T21:28:09.000Z</time></trkpt>
        <trkpt lat="28.664552" lon="104.18094"><ele>931.1482</ele><time>2026-03-06T21:28:13.000Z</time></trkpt>
        <trkpt lat="28.664519" lon="104.180893"><ele>930.8297</ele><time>2026-03-06T21:28:17.000Z</time></trkpt>
        <trkpt lat="28.664493" lon="104.180838"><ele>931.01447</ele><time>2026-03-06T21:28:23.000Z</time></trkpt>
        <trkpt lat="28.664482" lon="104.180787"><ele>931.0996</ele><time>2026-03-06T21:28:28.000Z</time></trkpt>
        <trkpt lat="28.664463" lon="104.180732"><ele>931.42566</ele><time>2026-03-06T21:28:33.000Z</time></trkpt>
        <trkpt lat="28.664442" lon="104.180685"><ele>931.1929</ele><time>2026-03-06T21:28:36.000Z</time></trkpt>
        <trkpt lat="28.664412" lon="104.180632"><ele>931.07074</ele><time>2026-03-06T21:28:40.000Z</time></trkpt>
        <trkpt lat="28.664375" lon="104.180589"><ele>929.9483</ele><time>2026-03-06T21:28:44.000Z</time></trkpt>
        <trkpt lat="28.664334" lon="104.180546"><ele>929.189</ele><time>2026-03-06T21:28:48.000Z</time></trkpt>
        <trkpt lat="28.664289" lon="104.180505"><ele>928.17017</ele><time>2026-03-06T21:28:52.000Z</time></trkpt>
        <trkpt lat="28.664259" lon="104.180466"><ele>927.3822</ele><time>2026-03-06T21:28:56.000Z</time></trkpt>
        <trkpt lat="28.664231" lon="104.180412"><ele>926.4242</ele><time>2026-03-06T21:29:00.000Z</time></trkpt>
        <trkpt lat="28.664205" lon="104.180363"><ele>925.8878</ele><time>2026-03-06T21:29:04.000Z</time></trkpt>
        <trkpt lat="28.664205" lon="104.180303"><ele>925.70154</ele><time>2026-03-06T21:29:08.000Z</time></trkpt>
        <trkpt lat="28.664212" lon="104.180245"><ele>926.20715</ele><time>2026-03-06T21:29:12.000Z</time></trkpt>
        <trkpt lat="28.664224" lon="104.180197"><ele>926.5794</ele><time>2026-03-06T21:29:15.000Z</time></trkpt>
        <trkpt lat="28.664229" lon="104.180147"><ele>926.612</ele><time>2026-03-06T21:29:18.000Z</time></trkpt>
        <trkpt lat="28.664238" lon="104.180096"><ele>926.63617</ele><time>2026-03-06T21:29:21.000Z</time></trkpt>
        <trkpt lat="28.664246" lon="104.180042"><ele>927.0043</ele><time>2026-03-06T21:29:24.000Z</time></trkpt>
        <trkpt lat="28.66425" lon="104.179979"><ele>927.23376</ele><time>2026-03-06T21:29:28.000Z</time></trkpt>
        <trkpt lat="28.664242" lon="104.179931"><ele>927.0944</ele><time>2026-03-06T21:29:31.000Z</time></trkpt>
        <trkpt lat="28.664243" lon="104.17987"><ele>926.2528</ele><time>2026-03-06T21:29:35.000Z</time></trkpt>
        <trkpt lat="28.664239" lon="104.17981"><ele>925.9128</ele><time>2026-03-06T21:29:39.000Z</time></trkpt>
        <trkpt lat="28.664238" lon="104.17976"><ele>925.93665</ele><time>2026-03-06T21:29:42.000Z</time></trkpt>
        <trkpt lat="28.664236" lon="104.179709"><ele>925.7133</ele><time>2026-03-06T21:29:45.000Z</time></trkpt>
        <trkpt lat="28.664239" lon="104.179643"><ele>925.4964</ele><time>2026-03-06T21:29:49.000Z</time></trkpt>
        <trkpt lat="28.664237" lon="104.179578"><ele>924.58997</ele><time>2026-03-06T21:29:53.000Z</time></trkpt>
        <trkpt lat="28.664229" lon="104.179514"><ele>923.8932</ele><time>2026-03-06T21:29:57.000Z</time></trkpt>
        <trkpt lat="28.664231" lon="104.17945"><ele>922.70544</ele><time>2026-03-06T21:30:01.000Z</time></trkpt>
        <trkpt lat="28.66423" lon="104.179399"><ele>922.53143</ele><time>2026-03-06T21:30:04.000Z</time></trkpt>
        <trkpt lat="28.66423" lon="104.179347"><ele>922.03186</ele><time>2026-03-06T21:30:07.000Z</time></trkpt>
        <trkpt lat="28.664228" lon="104.179279"><ele>920.9966</ele><time>2026-03-06T21:30:11.000Z</time></trkpt>
        <trkpt lat="28.664239" lon="104.179216"><ele>920.11084</ele><time>2026-03-06T21:30:15.000Z</time></trkpt>
        <trkpt lat="28.664263" lon="104.17916"><ele>919.26544</ele><time>2026-03-06T21:30:19.000Z</time></trkpt>
        <trkpt lat="28.664279" lon="104.1791"><ele>918.5588</ele><time>2026-03-06T21:30:23.000Z</time></trkpt>
        <trkpt lat="28.664289" lon="104.179052"><ele>918.67377</ele><time>2026-03-06T21:30:26.000Z</time></trkpt>
        <trkpt lat="28.6643" lon="104.178987"><ele>919.2348</ele><time>2026-03-06T21:30:30.000Z</time></trkpt>
        <trkpt lat="28.664318" lon="104.178923"><ele>919.4637</ele><time>2026-03-06T21:30:34.000Z</time></trkpt>
        <trkpt lat="28.66433" lon="104.178873"><ele>919.82495</ele><time>2026-03-06T21:30:37.000Z</time></trkpt>
        <trkpt lat="28.66434" lon="104.178809"><ele>920.14813</ele><time>2026-03-06T21:30:41.000Z</time></trkpt>
        <trkpt lat="28.664343" lon="104.178742"><ele>919.6115</ele><time>2026-03-06T21:30:45.000Z</time></trkpt>
        <trkpt lat="28.664345" lon="104.178679"><ele>919.5415</ele><time>2026-03-06T21:30:49.000Z</time></trkpt>
        <trkpt lat="28.664348" lon="104.178613"><ele>919.32806</ele><time>2026-03-06T21:30:53.000Z</time></trkpt>
        <trkpt lat="28.664358" lon="104.178557"><ele>918.99005</ele><time>2026-03-06T21:30:57.000Z</time></trkpt>
        <trkpt lat="28.664363" lon="104.178503"><ele>918.92584</ele><time>2026-03-06T21:31:01.000Z</time></trkpt>
        <trkpt lat="28.664357" lon="104.178444"><ele>918.35266</ele><time>2026-03-06T21:31:05.000Z</time></trkpt>
        <trkpt lat="28.664353" lon="104.178383"><ele>918.1268</ele><time>2026-03-06T21:31:09.000Z</time></trkpt>
        <trkpt lat="28.664356" lon="104.178318"><ele>917.4619</ele><time>2026-03-06T21:31:13.000Z</time></trkpt>
        <trkpt lat="28.664362" lon="104.178252"><ele>916.16473</ele><time>2026-03-06T21:31:17.000Z</time></trkpt>
        <trkpt lat="28.664373" lon="104.178202"><ele>915.1708</ele><time>2026-03-06T21:31:20.000Z</time></trkpt>
        <trkpt lat="28.664382" lon="104.17815"><ele>914.3589</ele><time>2026-03-06T21:31:23.000Z</time></trkpt>
        <trkpt lat="28.664381" lon="104.178081"><ele>913.22174</ele><time>2026-03-06T21:31:27.000Z</time></trkpt>
        <trkpt lat="28.664388" lon="104.178016"><ele>912.9732</ele><time>2026-03-06T21:31:31.000Z</time></trkpt>
        <trkpt lat="28.664394" lon="104.177953"><ele>912.50616</ele><time>2026-03-06T21:31:35.000Z</time></trkpt>
        <trkpt lat="28.664401" lon="104.17789"><ele>912.3201</ele><time>2026-03-06T21:31:39.000Z</time></trkpt>
        <trkpt lat="28.664401" lon="104.17784"><ele>911.7881</ele><time>2026-03-06T21:31:42.000Z</time></trkpt>
        <trkpt lat="28.664397" lon="104.177779"><ele>911.4319</ele><time>2026-03-06T21:31:46.000Z</time></trkpt>
        <trkpt lat="28.664384" lon="104.177715"><ele>910.74475</ele><time>2026-03-06T21:31:50.000Z</time></trkpt>
        <trkpt lat="28.664389" lon="104.177653"><ele>909.71515</ele><time>2026-03-06T21:31:54.000Z</time></trkpt>
        <trkpt lat="28.664387" lon="104.177591"><ele>909.5142</ele><time>2026-03-06T21:31:58.000Z</time></trkpt>
        <trkpt lat="28.664383" lon="104.177539"><ele>908.80853</ele><time>2026-03-06T21:32:01.000Z</time></trkpt>
        <trkpt lat="28.664373" lon="104.177488"><ele>908.3842</ele><time>2026-03-06T21:32:04.000Z</time></trkpt>
        <trkpt lat="28.664361" lon="104.177421"><ele>907.32556</ele><time>2026-03-06T21:32:08.000Z</time></trkpt>
        <trkpt lat="28.664353" lon="104.177371"><ele>906.80316</ele><time>2026-03-06T21:32:11.000Z</time></trkpt>
        <trkpt lat="28.664342" lon="104.177306"><ele>906.2494</ele><time>2026-03-06T21:32:15.000Z</time></trkpt>
        <trkpt lat="28.664334" lon="104.177242"><ele>905.5415</ele><time>2026-03-06T21:32:19.000Z</time></trkpt>
        <trkpt lat="28.664333" lon="104.177176"><ele>904.84406</ele><time>2026-03-06T21:32:23.000Z</time></trkpt>
        <trkpt lat="28.664332" lon="104.177112"><ele>904.6647</ele><time>2026-03-06T21:32:27.000Z</time></trkpt>
        <trkpt lat="28.664337" lon="104.177048"><ele>904.8755</ele><time>2026-03-06T21:32:31.000Z</time></trkpt>
        <trkpt lat="28.664342" lon="104.176997"><ele>905.0415</ele><time>2026-03-06T21:32:34.000Z</time></trkpt>
        <trkpt lat="28.664363" lon="104.176936"><ele>904.13513</ele><time>2026-03-06T21:32:38.000Z</time></trkpt>
        <trkpt lat="28.664373" lon="104.176887"><ele>903.3874</ele><time>2026-03-06T21:32:41.000Z</time></trkpt>
        <trkpt lat="28.664377" lon="104.176834"><ele>903.5542</ele><time>2026-03-06T21:32:44.000Z</time></trkpt>
        <trkpt lat="28.664381" lon="104.176781"><ele>903.587</ele><time>2026-03-06T21:32:47.000Z</time></trkpt>
        <trkpt lat="28.664386" lon="104.176712"><ele>903.2864</ele><time>2026-03-06T21:32:51.000Z</time></trkpt>
        <trkpt lat="28.664388" lon="104.176661"><ele>902.8426</ele><time>2026-03-06T21:32:54.000Z</time></trkpt>
        <trkpt lat="28.664392" lon="104.176609"><ele>902.4594</ele><time>2026-03-06T21:32:57.000Z</time></trkpt>
        <trkpt lat="28.664399" lon="104.176545"><ele>902.71173</ele><time>2026-03-06T21:33:01.000Z</time></trkpt>
        <trkpt lat="28.664399" lon="104.176495"><ele>902.5344</ele><time>2026-03-06T21:33:04.000Z</time></trkpt>
        <trkpt lat="28.664394" lon="104.176434"><ele>901.7096</ele><time>2026-03-06T21:33:08.000Z</time></trkpt>
        <trkpt lat="28.664393" lon="104.176384"><ele>901.9502</ele><time>2026-03-06T21:33:11.000Z</time></trkpt>
        <trkpt lat="28.664397" lon="104.17632"><ele>901.6993</ele><time>2026-03-06T21:33:15.000Z</time></trkpt>
        <trkpt lat="28.664396" lon="104.176254"><ele>901.6261</ele><time>2026-03-06T21:33:19.000Z</time></trkpt>
        <trkpt lat="28.664401" lon="104.176192"><ele>900.45715</ele><time>2026-03-06T21:33:23.000Z</time></trkpt>
        <trkpt lat="28.664401" lon="104.176142"><ele>899.9194</ele><time>2026-03-06T21:33:26.000Z</time></trkpt>
        <trkpt lat="28.6644" lon="104.176075"><ele>899.47595</ele><time>2026-03-06T21:33:30.000Z</time></trkpt>
        <trkpt lat="28.664403" lon="104.176009"><ele>898.7904</ele><time>2026-03-06T21:33:34.000Z</time></trkpt>
        <trkpt lat="28.664408" lon="104.175957"><ele>898.0778</ele><time>2026-03-06T21:33:37.000Z</time></trkpt>
        <trkpt lat="28.664413" lon="104.175891"><ele>897.03345</ele><time>2026-03-06T21:33:41.000Z</time></trkpt>
        <trkpt lat="28.664432" lon="104.175847"><ele>896.33295</ele><time>2026-03-06T21:33:44.000Z</time></trkpt>
        <trkpt lat="28.664439" lon="104.1758"><ele>895.4068</ele><time>2026-03-06T21:33:47.000Z</time></trkpt>
        <trkpt lat="28.664437" lon="104.175739"><ele>894.5598</ele><time>2026-03-06T21:33:51.000Z</time></trkpt>
        <trkpt lat="28.664438" lon="104.175688"><ele>894.006</ele><time>2026-03-06T21:33:54.000Z</time></trkpt>
        <trkpt lat="28.664443" lon="104.175626"><ele>893.38776</ele><time>2026-03-06T21:33:58.000Z</time></trkpt>
        <trkpt lat="28.664438" lon="104.175567"><ele>892.7786</ele><time>2026-03-06T21:34:02.000Z</time></trkpt>
        <trkpt lat="28.664425" lon="104.175508"><ele>892.26056</ele><time>2026-03-06T21:34:06.000Z</time></trkpt>
        <trkpt lat="28.664416" lon="104.175443"><ele>891.76184</ele><time>2026-03-06T21:34:10.000Z</time></trkpt>
        <trkpt lat="28.664408" lon="104.175384"><ele>891.2337</ele><time>2026-03-06T21:34:14.000Z</time></trkpt>
        <trkpt lat="28.664396" lon="104.175337"><ele>891.01215</ele><time>2026-03-06T21:34:17.000Z</time></trkpt>
        <trkpt lat="28.664353" lon="104.175289"><ele>890.8819</ele><time>2026-03-06T21:34:23.000Z</time></trkpt>
        <trkpt lat="28.664365" lon="104.175251"><ele>891.46533</ele><time>2026-03-06T21:34:55.000Z</time></trkpt>
        <trkpt lat="28.664332" lon="104.175286"><ele>891.4834</ele><time>2026-03-06T21:35:35.000Z</time></trkpt>
        <trkpt lat="28.664299" lon="104.175306"><ele>891.50885</ele><time>2026-03-06T21:35:38.000Z</time></trkpt>
        <trkpt lat="28.664264" lon="104.175341"><ele>891.4101</ele><time>2026-03-06T21:35:41.000Z</time></trkpt>
        <trkpt lat="28.664216" lon="104.175366"><ele>890.65375</ele><time>2026-03-06T21:35:45.000Z</time></trkpt>
        <trkpt lat="28.66416" lon="104.175373"><ele>889.602</ele><time>2026-03-06T21:35:51.000Z</time></trkpt>
        <trkpt lat="28.664122" lon="104.175378"><ele>889.3912</ele><time>2026-03-06T21:35:54.000Z</time></trkpt>
        <trkpt lat="28.664122" lon="104.175433"><ele>889.8902</ele><time>2026-03-06T21:36:20.000Z</time></trkpt>
        <trkpt lat="28.664154" lon="104.175365"><ele>898.0514</ele><time>2026-03-06T21:36:30.000Z</time></trkpt>
        <trkpt lat="28.664138" lon="104.175392"><ele>894.6493</ele><time>2026-03-06T21:36:31.000Z</time></trkpt>
        <trkpt lat="28.664136" lon="104.175371"><ele>892.05005</ele><time>2026-03-06T21:36:36.000Z</time></trkpt>
        <trkpt lat="28.6641" lon="104.175332"><ele>889.87836</ele><time>2026-03-06T21:36:51.000Z</time></trkpt>
        <trkpt lat="28.664124" lon="104.175377"><ele>889.6918</ele><time>2026-03-06T21:37:39.000Z</time></trkpt>
        <trkpt lat="28.664115" lon="104.17533"><ele>889.7987</ele><time>2026-03-06T21:37:55.000Z</time></trkpt>
        <trkpt lat="28.664108" lon="104.175375"><ele>889.5435</ele><time>2026-03-06T21:38:08.000Z</time></trkpt>
        <trkpt lat="28.664085" lon="104.175303"><ele>889.66895</ele><time>2026-03-06T21:38:21.000Z</time></trkpt>
        <trkpt lat="28.664099" lon="104.175348"><ele>889.71625</ele><time>2026-03-06T21:38:22.000Z</time></trkpt>
        <trkpt lat="28.664116" lon="104.175384"><ele>889.85376</ele><time>2026-03-06T21:38:23.000Z</time></trkpt>
        <trkpt lat="28.664127" lon="104.175359"><ele>889.8327</ele><time>2026-03-06T21:38:24.000Z</time></trkpt>
        <trkpt lat="28.664148" lon="104.175347"><ele>889.95087</ele><time>2026-03-06T21:38:25.000Z</time></trkpt>
        <trkpt lat="28.664183" lon="104.175345"><ele>890.11115</ele><time>2026-03-06T21:38:26.000Z</time></trkpt>
        <trkpt lat="28.664289" lon="104.175322"><ele>891.36646</ele><time>2026-03-06T21:38:35.000Z</time></trkpt>
        <trkpt lat="28.664332" lon="104.175299"><ele>892.53253</ele><time>2026-03-06T21:38:39.000Z</time></trkpt>
        <trkpt lat="28.664368" lon="104.175253"><ele>891.9929</ele><time>2026-03-06T21:38:44.000Z</time></trkpt>
        <trkpt lat="28.664373" lon="104.175202"><ele>891.55066</ele><time>2026-03-06T21:38:48.000Z</time></trkpt>
        <trkpt lat="28.664368" lon="104.17514"><ele>890.7865</ele><time>2026-03-06T21:38:52.000Z</time></trkpt>
        <trkpt lat="28.66436" lon="104.175076"><ele>890.419</ele><time>2026-03-06T21:38:56.000Z</time></trkpt>
        <trkpt lat="28.664347" lon="104.17502"><ele>890.4698</ele><time>2026-03-06T21:39:00.000Z</time></trkpt>
        <trkpt lat="28.664338" lon="104.174962"><ele>890.6647</ele><time>2026-03-06T21:39:04.000Z</time></trkpt>
        <trkpt lat="28.664341" lon="104.174905"><ele>889.9229</ele><time>2026-03-06T21:39:08.000Z</time></trkpt>
        <trkpt lat="28.664347" lon="104.174846"><ele>889.73694</ele><time>2026-03-06T21:39:12.000Z</time></trkpt>
        <trkpt lat="28.664344" lon="104.174778"><ele>889.6155</ele><time>2026-03-06T21:39:17.000Z</time></trkpt>
        <trkpt lat="28.664329" lon="104.174732"><ele>889.6298</ele><time>2026-03-06T21:39:20.000Z</time></trkpt>
        <trkpt lat="28.664305" lon="104.174675"><ele>889.7254</ele><time>2026-03-06T21:39:24.000Z</time></trkpt>
        <trkpt lat="28.664286" lon="104.174616"><ele>889.4394</ele><time>2026-03-06T21:39:28.000Z</time></trkpt>
        <trkpt lat="28.664271" lon="104.174568"><ele>889.15936</ele><time>2026-03-06T21:39:31.000Z</time></trkpt>
        <trkpt lat="28.66425" lon="104.174523"><ele>889.22156</ele><time>2026-03-06T21:39:34.000Z</time></trkpt>
        <trkpt lat="28.66422" lon="104.174471"><ele>888.61584</ele><time>2026-03-06T21:39:38.000Z</time></trkpt>
        <trkpt lat="28.664196" lon="104.174412"><ele>887.54034</ele><time>2026-03-06T21:39:42.000Z</time></trkpt>
        <trkpt lat="28.664158" lon="104.174354"><ele>886.60345</ele><time>2026-03-06T21:39:48.000Z</time></trkpt>
        <trkpt lat="28.664145" lon="104.174314"><ele>886.1463</ele><time>2026-03-06T21:39:51.000Z</time></trkpt>
        <trkpt lat="28.664113" lon="104.174263"><ele>885.6386</ele><time>2026-03-06T21:39:55.000Z</time></trkpt>
        <trkpt lat="28.664091" lon="104.174219"><ele>884.9643</ele><time>2026-03-06T21:39:58.000Z</time></trkpt>
        <trkpt lat="28.664063" lon="104.174168"><ele>884.97546</ele><time>2026-03-06T21:40:02.000Z</time></trkpt>
        <trkpt lat="28.664037" lon="104.174126"><ele>885.2976</ele><time>2026-03-06T21:40:05.000Z</time></trkpt>
        <trkpt lat="28.664" lon="104.174072"><ele>885.07635</ele><time>2026-03-06T21:40:09.000Z</time></trkpt>
        <trkpt lat="28.663971" lon="104.174018"><ele>885.05707</ele><time>2026-03-06T21:40:13.000Z</time></trkpt>
        <trkpt lat="28.663935" lon="104.173969"><ele>884.60956</ele><time>2026-03-06T21:40:17.000Z</time></trkpt>
        <trkpt lat="28.663898" lon="104.173921"><ele>883.5726</ele><time>2026-03-06T21:40:21.000Z</time></trkpt>
        <trkpt lat="28.663856" lon="104.173877"><ele>883.7416</ele><time>2026-03-06T21:40:25.000Z</time></trkpt>
        <trkpt lat="28.663816" lon="104.173834"><ele>883.2411</ele><time>2026-03-06T21:40:29.000Z</time></trkpt>
        <trkpt lat="28.66379" lon="104.173795"><ele>882.6993</ele><time>2026-03-06T21:40:32.000Z</time></trkpt>
        <trkpt lat="28.663763" lon="104.173737"><ele>882.38715</ele><time>2026-03-06T21:40:36.000Z</time></trkpt>
        <trkpt lat="28.66375" lon="104.17367"><ele>881.9465</ele><time>2026-03-06T21:40:40.000Z</time></trkpt>
        <trkpt lat="28.663745" lon="104.173601"><ele>881.77405</ele><time>2026-03-06T21:40:44.000Z</time></trkpt>
        <trkpt lat="28.663747" lon="104.173545"><ele>881.76685</ele><time>2026-03-06T21:40:47.000Z</time></trkpt>
        <trkpt lat="28.663755" lon="104.173479"><ele>881.09436</ele><time>2026-03-06T21:40:51.000Z</time></trkpt>
        <trkpt lat="28.663761" lon="104.173412"><ele>880.54193</ele><time>2026-03-06T21:40:55.000Z</time></trkpt>
        <trkpt lat="28.663759" lon="104.173347"><ele>880.2203</ele><time>2026-03-06T21:40:59.000Z</time></trkpt>
        <trkpt lat="28.663756" lon="104.173282"><ele>880.0394</ele><time>2026-03-06T21:41:03.000Z</time></trkpt>
        <trkpt lat="28.663755" lon="104.173232"><ele>879.7321</ele><time>2026-03-06T21:41:06.000Z</time></trkpt>
        <trkpt lat="28.663751" lon="104.173181"><ele>878.9926</ele><time>2026-03-06T21:41:09.000Z</time></trkpt>
        <trkpt lat="28.663747" lon="104.17313"><ele>877.9162</ele><time>2026-03-06T21:41:12.000Z</time></trkpt>
        <trkpt lat="28.663742" lon="104.173063"><ele>876.62537</ele><time>2026-03-06T21:41:16.000Z</time></trkpt>
        <trkpt lat="28.663741" lon="104.172996"><ele>875.89404</ele><time>2026-03-06T21:41:20.000Z</time></trkpt>
        <trkpt lat="28.663734" lon="104.172946"><ele>875.6302</ele><time>2026-03-06T21:41:23.000Z</time></trkpt>
        <trkpt lat="28.663722" lon="104.17288"><ele>875.1179</ele><time>2026-03-06T21:41:27.000Z</time></trkpt>
        <trkpt lat="28.663711" lon="104.172815"><ele>873.9978</ele><time>2026-03-06T21:41:31.000Z</time></trkpt>
        <trkpt lat="28.663696" lon="104.17275"><ele>872.9771</ele><time>2026-03-06T21:41:35.000Z</time></trkpt>
        <trkpt lat="28.663673" lon="104.172692"><ele>872.1159</ele><time>2026-03-06T21:41:39.000Z</time></trkpt>
        <trkpt lat="28.663644" lon="104.172637"><ele>871.4961</ele><time>2026-03-06T21:41:43.000Z</time></trkpt>
        <trkpt lat="28.66361" lon="104.172585"><ele>871.13293</ele><time>2026-03-06T21:41:47.000Z</time></trkpt>
        <trkpt lat="28.663578" lon="104.172527"><ele>871.51697</ele><time>2026-03-06T21:41:51.000Z</time></trkpt>
        <trkpt lat="28.663543" lon="104.172473"><ele>870.94934</ele><time>2026-03-06T21:41:55.000Z</time></trkpt>
        <trkpt lat="28.663517" lon="104.172417"><ele>870.99603</ele><time>2026-03-06T21:41:59.000Z</time></trkpt>
        <trkpt lat="28.663491" lon="104.172355"><ele>870.3462</ele><time>2026-03-06T21:42:04.000Z</time></trkpt>
        <trkpt lat="28.663471" lon="104.172305"><ele>869.8405</ele><time>2026-03-06T21:42:08.000Z</time></trkpt>
        <trkpt lat="28.663465" lon="104.172259"><ele>869.88544</ele><time>2026-03-06T21:42:11.000Z</time></trkpt>
        <trkpt lat="28.663455" lon="104.172195"><ele>869.05054</ele><time>2026-03-06T21:42:15.000Z</time></trkpt>
        <trkpt lat="28.663456" lon="104.172127"><ele>868.2805</ele><time>2026-03-06T21:42:19.000Z</time></trkpt>
        <trkpt lat="28.663466" lon="104.172059"><ele>867.7379</ele><time>2026-03-06T21:42:23.000Z</time></trkpt>
        <trkpt lat="28.663479" lon="104.171992"><ele>867.20996</ele><time>2026-03-06T21:42:27.000Z</time></trkpt>
        <trkpt lat="28.663489" lon="104.171927"><ele>866.80347</ele><time>2026-03-06T21:42:31.000Z</time></trkpt>
        <trkpt lat="28.663499" lon="104.171866"><ele>866.3015</ele><time>2026-03-06T21:42:35.000Z</time></trkpt>
        <trkpt lat="28.66351" lon="104.171809"><ele>865.971</ele><time>2026-03-06T21:42:39.000Z</time></trkpt>
        <trkpt lat="28.663513" lon="104.171751"><ele>865.80554</ele><time>2026-03-06T21:42:43.000Z</time></trkpt>
        <trkpt lat="28.663515" lon="104.171693"><ele>865.99243</ele><time>2026-03-06T21:42:47.000Z</time></trkpt>
        <trkpt lat="28.663522" lon="104.17163"><ele>865.95294</ele><time>2026-03-06T21:42:51.000Z</time></trkpt>
        <trkpt lat="28.663541" lon="104.171567"><ele>866.19794</ele><time>2026-03-06T21:42:55.000Z</time></trkpt>
        <trkpt lat="28.663556" lon="104.171506"><ele>865.87585</ele><time>2026-03-06T21:42:59.000Z</time></trkpt>
        <trkpt lat="28.663577" lon="104.17146"><ele>865.51666</ele><time>2026-03-06T21:43:02.000Z</time></trkpt>
        <trkpt lat="28.6636" lon="104.1714"><ele>864.6376</ele><time>2026-03-06T21:43:06.000Z</time></trkpt>
        <trkpt lat="28.663623" lon="104.171342"><ele>864.07135</ele><time>2026-03-06T21:43:10.000Z</time></trkpt>
        <trkpt lat="28.663639" lon="104.171294"><ele>863.1082</ele><time>2026-03-06T21:43:13.000Z</time></trkpt>
        <trkpt lat="28.663655" lon="104.171231"><ele>862.3107</ele><time>2026-03-06T21:43:17.000Z</time></trkpt>
        <trkpt lat="28.663662" lon="104.171167"><ele>861.7081</ele><time>2026-03-06T21:43:21.000Z</time></trkpt>
        <trkpt lat="28.663662" lon="104.171102"><ele>861.324</ele><time>2026-03-06T21:43:25.000Z</time></trkpt>
        <trkpt lat="28.663655" lon="104.171037"><ele>861.0078</ele><time>2026-03-06T21:43:29.000Z</time></trkpt>
        <trkpt lat="28.663635" lon="104.170975"><ele>860.8916</ele><time>2026-03-06T21:43:33.000Z</time></trkpt>
        <trkpt lat="28.663617" lon="104.170916"><ele>860.4226</ele><time>2026-03-06T21:43:37.000Z</time></trkpt>
        <trkpt lat="28.663597" lon="104.170857"><ele>860.17975</ele><time>2026-03-06T21:43:41.000Z</time></trkpt>
        <trkpt lat="28.663571" lon="104.170801"><ele>859.9133</ele><time>2026-03-06T21:43:45.000Z</time></trkpt>
        <trkpt lat="28.663543" lon="104.170744"><ele>859.3217</ele><time>2026-03-06T21:43:49.000Z</time></trkpt>
        <trkpt lat="28.663519" lon="104.170687"><ele>858.8428</ele><time>2026-03-06T21:43:53.000Z</time></trkpt>
        <trkpt lat="28.663493" lon="104.170628"><ele>858.14655</ele><time>2026-03-06T21:43:57.000Z</time></trkpt>
        <trkpt lat="28.663462" lon="104.170574"><ele>857.442</ele><time>2026-03-06T21:44:01.000Z</time></trkpt>
        <trkpt lat="28.663433" lon="104.170536"><ele>857.0868</ele><time>2026-03-06T21:44:04.000Z</time></trkpt>
        <trkpt lat="28.663397" lon="104.170483"><ele>856.8259</ele><time>2026-03-06T21:44:08.000Z</time></trkpt>
        <trkpt lat="28.663369" lon="104.170444"><ele>856.4849</ele><time>2026-03-06T21:44:11.000Z</time></trkpt>
        <trkpt lat="28.663334" lon="104.170389"><ele>855.76447</ele><time>2026-03-06T21:44:15.000Z</time></trkpt>
        <trkpt lat="28.663293" lon="104.170343"><ele>855.01636</ele><time>2026-03-06T21:44:19.000Z</time></trkpt>
        <trkpt lat="28.663253" lon="104.170323"><ele>854.70483</ele><time>2026-03-06T21:44:22.000Z</time></trkpt>
        <trkpt lat="28.663199" lon="104.170306"><ele>853.61145</ele><time>2026-03-06T21:44:26.000Z</time></trkpt>
        <trkpt lat="28.663141" lon="104.170302"><ele>853.25464</ele><time>2026-03-06T21:44:30.000Z</time></trkpt>
        <trkpt lat="28.663101" lon="104.170284"><ele>852.4597</ele><time>2026-03-06T21:44:33.000Z</time></trkpt>
        <trkpt lat="28.663064" lon="104.170239"><ele>852.08105</ele><time>2026-03-06T21:44:37.000Z</time></trkpt>
        <trkpt lat="28.663047" lon="104.170192"><ele>851.50385</ele><time>2026-03-06T21:44:40.000Z</time></trkpt>
        <trkpt lat="28.663042" lon="104.170138"><ele>851.1279</ele><time>2026-03-06T21:44:43.000Z</time></trkpt>
        <trkpt lat="28.663044" lon="104.170081"><ele>850.6019</ele><time>2026-03-06T21:44:46.000Z</time></trkpt>
        <trkpt lat="28.66304" lon="104.17001"><ele>849.7029</ele><time>2026-03-06T21:44:50.000Z</time></trkpt>
        <trkpt lat="28.663038" lon="104.169943"><ele>849.40393</ele><time>2026-03-06T21:44:54.000Z</time></trkpt>
        <trkpt lat="28.663035" lon="104.169876"><ele>848.4317</ele><time>2026-03-06T21:44:58.000Z</time></trkpt>
        <trkpt lat="28.663037" lon="104.169813"><ele>847.87024</ele><time>2026-03-06T21:45:02.000Z</time></trkpt>
        <trkpt lat="28.663037" lon="104.169752"><ele>847.0628</ele><time>2026-03-06T21:45:06.000Z</time></trkpt>
        <trkpt lat="28.663045" lon="104.169705"><ele>846.2982</ele><time>2026-03-06T21:45:09.000Z</time></trkpt>
        <trkpt lat="28.663058" lon="104.169656"><ele>845.6802</ele><time>2026-03-06T21:45:12.000Z</time></trkpt>
        <trkpt lat="28.663073" lon="104.169605"><ele>845.509</ele><time>2026-03-06T21:45:15.000Z</time></trkpt>
        <trkpt lat="28.663082" lon="104.169554"><ele>845.4899</ele><time>2026-03-06T21:45:18.000Z</time></trkpt>
        <trkpt lat="28.663088" lon="104.169501"><ele>845.5278</ele><time>2026-03-06T21:45:21.000Z</time></trkpt>
        <trkpt lat="28.663094" lon="104.169437"><ele>845.66095</ele><time>2026-03-06T21:45:25.000Z</time></trkpt>
        <trkpt lat="28.663085" lon="104.16939"><ele>845.58826</ele><time>2026-03-06T21:45:28.000Z</time></trkpt>
        <trkpt lat="28.663067" lon="104.169328"><ele>845.9259</ele><time>2026-03-06T21:45:32.000Z</time></trkpt>
        <trkpt lat="28.663043" lon="104.169269"><ele>845.9495</ele><time>2026-03-06T21:45:36.000Z</time></trkpt>
        <trkpt lat="28.663024" lon="104.169211"><ele>846.1695</ele><time>2026-03-06T21:45:40.000Z</time></trkpt>
        <trkpt lat="28.66301" lon="104.169149"><ele>846.06964</ele><time>2026-03-06T21:45:44.000Z</time></trkpt>
        <trkpt lat="28.662991" lon="104.169086"><ele>845.3967</ele><time>2026-03-06T21:45:48.000Z</time></trkpt>
        <trkpt lat="28.662972" lon="104.169023"><ele>844.4371</ele><time>2026-03-06T21:45:52.000Z</time></trkpt>
        <trkpt lat="28.662963" lon="104.16896"><ele>843.43024</ele><time>2026-03-06T21:45:56.000Z</time></trkpt>
        <trkpt lat="28.66297" lon="104.168912"><ele>842.90106</ele><time>2026-03-06T21:45:59.000Z</time></trkpt>
        <trkpt lat="28.662994" lon="104.16885"><ele>841.92957</ele><time>2026-03-06T21:46:03.000Z</time></trkpt>
        <trkpt lat="28.663022" lon="104.168807"><ele>840.80725</ele><time>2026-03-06T21:46:06.000Z</time></trkpt>
        <trkpt lat="28.663054" lon="104.168765"><ele>839.93</ele><time>2026-03-06T21:46:09.000Z</time></trkpt>
        <trkpt lat="28.66308" lon="104.168704"><ele>838.9831</ele><time>2026-03-06T21:46:13.000Z</time></trkpt>
        <trkpt lat="28.663099" lon="104.168656"><ele>838.70905</ele><time>2026-03-06T21:46:16.000Z</time></trkpt>
        <trkpt lat="28.663111" lon="104.168605"><ele>838.581</ele><time>2026-03-06T21:46:19.000Z</time></trkpt>
        <trkpt lat="28.663116" lon="104.168539"><ele>838.1066</ele><time>2026-03-06T21:46:23.000Z</time></trkpt>
        <trkpt lat="28.663112" lon="104.168474"><ele>837.7552</ele><time>2026-03-06T21:46:27.000Z</time></trkpt>
        <trkpt lat="28.663119" lon="104.168412"><ele>837.1052</ele><time>2026-03-06T21:46:31.000Z</time></trkpt>
        <trkpt lat="28.663141" lon="104.168351"><ele>836.12805</ele><time>2026-03-06T21:46:35.000Z</time></trkpt>
        <trkpt lat="28.663168" lon="104.168292"><ele>835.609</ele><time>2026-03-06T21:46:39.000Z</time></trkpt>
        <trkpt lat="28.66319" lon="104.168232"><ele>835.6795</ele><time>2026-03-06T21:46:43.000Z</time></trkpt>
        <trkpt lat="28.663202" lon="104.168171"><ele>835.5472</ele><time>2026-03-06T21:46:47.000Z</time></trkpt>
        <trkpt lat="28.663202" lon="104.168106"><ele>835.3228</ele><time>2026-03-06T21:46:51.000Z</time></trkpt>
        <trkpt lat="28.663191" lon="104.168043"><ele>834.8298</ele><time>2026-03-06T21:46:55.000Z</time></trkpt>
        <trkpt lat="28.663178" lon="104.167979"><ele>834.33563</ele><time>2026-03-06T21:46:59.000Z</time></trkpt>
        <trkpt lat="28.66316" lon="104.167921"><ele>833.19507</ele><time>2026-03-06T21:47:03.000Z</time></trkpt>
        <trkpt lat="28.663141" lon="104.167862"><ele>832.193</ele><time>2026-03-06T21:47:07.000Z</time></trkpt>
        <trkpt lat="28.663119" lon="104.167807"><ele>831.4077</ele><time>2026-03-06T21:47:11.000Z</time></trkpt>
        <trkpt lat="28.663093" lon="104.167756"><ele>830.5643</ele><time>2026-03-06T21:47:15.000Z</time></trkpt>
        <trkpt lat="28.663061" lon="104.167706"><ele>830.15424</ele><time>2026-03-06T21:47:19.000Z</time></trkpt>
        <trkpt lat="28.663034" lon="104.167658"><ele>829.7129</ele><time>2026-03-06T21:47:23.000Z</time></trkpt>
        <trkpt lat="28.663017" lon="104.167614"><ele>828.9612</ele><time>2026-03-06T21:47:26.000Z</time></trkpt>
        <trkpt lat="28.66301" lon="104.167549"><ele>828.104</ele><time>2026-03-06T21:47:30.000Z</time></trkpt>
        <trkpt lat="28.663023" lon="104.167484"><ele>827.5062</ele><time>2026-03-06T21:47:34.000Z</time></trkpt>
        <trkpt lat="28.66304" lon="104.16742"><ele>826.8453</ele><time>2026-03-06T21:47:38.000Z</time></trkpt>
        <trkpt lat="28.663061" lon="104.16736"><ele>826.5768</ele><time>2026-03-06T21:47:42.000Z</time></trkpt>
        <trkpt lat="28.663077" lon="104.167311"><ele>826.5754</ele><time>2026-03-06T21:47:45.000Z</time></trkpt>
        <trkpt lat="28.66311" lon="104.167255"><ele>826.2266</ele><time>2026-03-06T21:47:49.000Z</time></trkpt>
        <trkpt lat="28.663152" lon="104.167233"><ele>826.31226</ele><time>2026-03-06T21:47:52.000Z</time></trkpt>
        <trkpt lat="28.66321" lon="104.167222"><ele>826.23785</ele><time>2026-03-06T21:47:56.000Z</time></trkpt>
        <trkpt lat="28.663265" lon="104.167207"><ele>826.2929</ele><time>2026-03-06T21:48:00.000Z</time></trkpt>
        <trkpt lat="28.663321" lon="104.167186"><ele>826.3829</ele><time>2026-03-06T21:48:04.000Z</time></trkpt>
        <trkpt lat="28.663365" lon="104.167155"><ele>826.5579</ele><time>2026-03-06T21:48:08.000Z</time></trkpt>
        <trkpt lat="28.663391" lon="104.167108"><ele>827.8899</ele><time>2026-03-06T21:48:12.000Z</time></trkpt>
        <trkpt lat="28.663387" lon="104.167043"><ele>828.79913</ele><time>2026-03-06T21:48:16.000Z</time></trkpt>
        <trkpt lat="28.663385" lon="104.16698"><ele>829.0579</ele><time>2026-03-06T21:48:20.000Z</time></trkpt>
        <trkpt lat="28.663386" lon="104.166921"><ele>828.649</ele><time>2026-03-06T21:48:24.000Z</time></trkpt>
        <trkpt lat="28.663407" lon="104.166866"><ele>829.1282</ele><time>2026-03-06T21:48:28.000Z</time></trkpt>
        <trkpt lat="28.663401" lon="104.166832"><ele>828.6636</ele><time>2026-03-06T21:48:30.000Z</time></trkpt>
        <trkpt lat="28.663388" lon="104.166768"><ele>827.7241</ele><time>2026-03-06T21:48:34.000Z</time></trkpt>
        <trkpt lat="28.663379" lon="104.166702"><ele>827.1591</ele><time>2026-03-06T21:48:38.000Z</time></trkpt>
        <trkpt lat="28.663352" lon="104.166659"><ele>825.89026</ele><time>2026-03-06T21:48:41.000Z</time></trkpt>
        <trkpt lat="28.663338" lon="104.166609"><ele>825.3981</ele><time>2026-03-06T21:48:44.000Z</time></trkpt>
        <trkpt lat="28.663325" lon="104.166545"><ele>825.49176</ele><time>2026-03-06T21:48:48.000Z</time></trkpt>
        <trkpt lat="28.663302" lon="104.166487"><ele>825.6707</ele><time>2026-03-06T21:48:52.000Z</time></trkpt>
        <trkpt lat="28.66325" lon="104.166454"><ele>825.07056</ele><time>2026-03-06T21:48:57.000Z</time></trkpt>
        <trkpt lat="28.663199" lon="104.166442"><ele>824.843</ele><time>2026-03-06T21:49:01.000Z</time></trkpt>
        <trkpt lat="28.663143" lon="104.166426"><ele>823.6846</ele><time>2026-03-06T21:49:05.000Z</time></trkpt>
        <trkpt lat="28.663095" lon="104.16639"><ele>823.5299</ele><time>2026-03-06T21:49:09.000Z</time></trkpt>
        <trkpt lat="28.663068" lon="104.166349"><ele>823.1425</ele><time>2026-03-06T21:49:12.000Z</time></trkpt>
        <trkpt lat="28.663058" lon="104.166297"><ele>822.22845</ele><time>2026-03-06T21:49:15.000Z</time></trkpt>
        <trkpt lat="28.663056" lon="104.166227"><ele>821.1783</ele><time>2026-03-06T21:49:19.000Z</time></trkpt>
        <trkpt lat="28.663066" lon="104.166156"><ele>820.3875</ele><time>2026-03-06T21:49:23.000Z</time></trkpt>
        <trkpt lat="28.663086" lon="104.166093"><ele>820.2359</ele><time>2026-03-06T21:49:27.000Z</time></trkpt>
        <trkpt lat="28.66311" lon="104.166034"><ele>820.462</ele><time>2026-03-06T21:49:31.000Z</time></trkpt>
        <trkpt lat="28.663133" lon="104.16598"><ele>820.2257</ele><time>2026-03-06T21:49:35.000Z</time></trkpt>
        <trkpt lat="28.663152" lon="104.165923"><ele>820.5191</ele><time>2026-03-06T21:49:39.000Z</time></trkpt>
        <trkpt lat="28.663156" lon="104.165867"><ele>820.4046</ele><time>2026-03-06T21:49:43.000Z</time></trkpt>
        <trkpt lat="28.663169" lon="104.165809"><ele>819.89844</ele><time>2026-03-06T21:49:47.000Z</time></trkpt>
        <trkpt lat="28.663181" lon="104.165746"><ele>819.1205</ele><time>2026-03-06T21:49:51.000Z</time></trkpt>
        <trkpt lat="28.663183" lon="104.165685"><ele>818.3885</ele><time>2026-03-06T21:49:55.000Z</time></trkpt>
        <trkpt lat="28.663186" lon="104.165626"><ele>817.20447</ele><time>2026-03-06T21:49:59.000Z</time></trkpt>
        <trkpt lat="28.663194" lon="104.165566"><ele>816.8567</ele><time>2026-03-06T21:50:03.000Z</time></trkpt>
        <trkpt lat="28.663207" lon="104.165506"><ele>816.16656</ele><time>2026-03-06T21:50:07.000Z</time></trkpt>
        <trkpt lat="28.663202" lon="104.165445"><ele>815.6567</ele><time>2026-03-06T21:50:11.000Z</time></trkpt>
        <trkpt lat="28.663175" lon="104.165392"><ele>815.548</ele><time>2026-03-06T21:50:15.000Z</time></trkpt>
        <trkpt lat="28.663142" lon="104.165342"><ele>814.7701</ele><time>2026-03-06T21:50:19.000Z</time></trkpt>
        <trkpt lat="28.663097" lon="104.165301"><ele>813.33936</ele><time>2026-03-06T21:50:23.000Z</time></trkpt>
        <trkpt lat="28.663044" lon="104.165274"><ele>812.0059</ele><time>2026-03-06T21:50:27.000Z</time></trkpt>
        <trkpt lat="28.662994" lon="104.165242"><ele>811.13617</ele><time>2026-03-06T21:50:31.000Z</time></trkpt>
        <trkpt lat="28.662948" lon="104.165207"><ele>809.14624</ele><time>2026-03-06T21:50:35.000Z</time></trkpt>
        <trkpt lat="28.662904" lon="104.165169"><ele>807.73315</ele><time>2026-03-06T21:50:39.000Z</time></trkpt>
        <trkpt lat="28.662859" lon="104.165137"><ele>806.6122</ele><time>2026-03-06T21:50:43.000Z</time></trkpt>
        <trkpt lat="28.662811" lon="104.165112"><ele>804.827</ele><time>2026-03-06T21:50:47.000Z</time></trkpt>
        <trkpt lat="28.662765" lon="104.165079"><ele>803.3105</ele><time>2026-03-06T21:50:51.000Z</time></trkpt>
        <trkpt lat="28.662723" lon="104.165042"><ele>802.2446</ele><time>2026-03-06T21:50:55.000Z</time></trkpt>
        <trkpt lat="28.662681" lon="104.165"><ele>802.10693</ele><time>2026-03-06T21:50:59.000Z</time></trkpt>
        <trkpt lat="28.662655" lon="104.164958"><ele>801.96136</ele><time>2026-03-06T21:51:02.000Z</time></trkpt>
        <trkpt lat="28.662619" lon="104.164915"><ele>801.56494</ele><time>2026-03-06T21:51:06.000Z</time></trkpt>
        <trkpt lat="28.662614" lon="104.164846"><ele>802.52924</ele><time>2026-03-06T21:51:25.000Z</time></trkpt>
        <trkpt lat="28.662619" lon="104.164806"><ele>802.7647</ele><time>2026-03-06T21:51:30.000Z</time></trkpt>
        <trkpt lat="28.662595" lon="104.164748"><ele>802.9492</ele><time>2026-03-06T21:51:35.000Z</time></trkpt>
        <trkpt lat="28.662564" lon="104.164693"><ele>802.9354</ele><time>2026-03-06T21:51:40.000Z</time></trkpt>
        <trkpt lat="28.662539" lon="104.16463"><ele>802.3688</ele><time>2026-03-06T21:51:48.000Z</time></trkpt>
        <trkpt lat="28.662519" lon="104.16459"><ele>802.2746</ele><time>2026-03-06T21:51:52.000Z</time></trkpt>
        <trkpt lat="28.662502" lon="104.164536"><ele>802.62787</ele><time>2026-03-06T21:51:56.000Z</time></trkpt>
        <trkpt lat="28.662498" lon="104.16447"><ele>803.0114</ele><time>2026-03-06T21:52:01.000Z</time></trkpt>
        <trkpt lat="28.662494" lon="104.164412"><ele>802.6146</ele><time>2026-03-06T21:52:06.000Z</time></trkpt>
        <trkpt lat="28.66246" lon="104.164374"><ele>801.89856</ele><time>2026-03-06T21:52:26.000Z</time></trkpt>
        <trkpt lat="28.662435" lon="104.164343"><ele>802.00256</ele><time>2026-03-06T21:52:31.000Z</time></trkpt>
        <trkpt lat="28.662412" lon="104.164297"><ele>802.12195</ele><time>2026-03-06T21:52:35.000Z</time></trkpt>
        <trkpt lat="28.662383" lon="104.164238"><ele>802.0802</ele><time>2026-03-06T21:52:39.000Z</time></trkpt>
        <trkpt lat="28.662347" lon="104.164178"><ele>802.0917</ele><time>2026-03-06T21:52:44.000Z</time></trkpt>
        <trkpt lat="28.662299" lon="104.164152"><ele>802.3315</ele><time>2026-03-06T21:52:50.000Z</time></trkpt>
        <trkpt lat="28.662265" lon="104.164112"><ele>802.4998</ele><time>2026-03-06T21:52:56.000Z</time></trkpt>
        <trkpt lat="28.662237" lon="104.164069"><ele>802.70905</ele><time>2026-03-06T21:53:00.000Z</time></trkpt>
        <trkpt lat="28.662208" lon="104.164018"><ele>803.29584</ele><time>2026-03-06T21:53:04.000Z</time></trkpt>
        <trkpt lat="28.662178" lon="104.163967"><ele>803.3117</ele><time>2026-03-06T21:53:08.000Z</time></trkpt>
        <trkpt lat="28.66215" lon="104.163912"><ele>803.0056</ele><time>2026-03-06T21:53:12.000Z</time></trkpt>
        <trkpt lat="28.662111" lon="104.163859"><ele>802.91766</ele><time>2026-03-06T21:53:16.000Z</time></trkpt>
        <trkpt lat="28.662076" lon="104.163809"><ele>802.7893</ele><time>2026-03-06T21:53:20.000Z</time></trkpt>
        <trkpt lat="28.662079" lon="104.163748"><ele>802.6294</ele><time>2026-03-06T21:53:33.000Z</time></trkpt>
        <trkpt lat="28.662124" lon="104.163776"><ele>802.02856</ele><time>2026-03-06T21:53:39.000Z</time></trkpt>
        <trkpt lat="28.662117" lon="104.163734"><ele>801.7616</ele><time>2026-03-06T21:56:58.000Z</time></trkpt>
        <trkpt lat="28.662073" lon="104.163721"><ele>800.86255</ele><time>2026-03-06T21:57:19.000Z</time></trkpt>
        <trkpt lat="28.662046" lon="104.163715"><ele>801.3316</ele><time>2026-03-06T21:57:22.000Z</time></trkpt>
        <trkpt lat="28.662003" lon="104.163682"><ele>801.645</ele><time>2026-03-06T21:57:27.000Z</time></trkpt>
        <trkpt lat="28.661978" lon="104.163638"><ele>801.8171</ele><time>2026-03-06T21:57:30.000Z</time></trkpt>
        <trkpt lat="28.661943" lon="104.163581"><ele>801.71515</ele><time>2026-03-06T21:57:35.000Z</time></trkpt>
        <trkpt lat="28.661906" lon="104.163536"><ele>801.30396</ele><time>2026-03-06T21:57:39.000Z</time></trkpt>
        <trkpt lat="28.66186" lon="104.163492"><ele>801.4089</ele><time>2026-03-06T21:57:44.000Z</time></trkpt>
        <trkpt lat="28.661822" lon="104.163454"><ele>801.8596</ele><time>2026-03-06T21:57:48.000Z</time></trkpt>
        <trkpt lat="28.661782" lon="104.163422"><ele>801.6967</ele><time>2026-03-06T21:57:52.000Z</time></trkpt>
        <trkpt lat="28.66174" lon="104.1634"><ele>801.31946</ele><time>2026-03-06T21:57:56.000Z</time></trkpt>
        <trkpt lat="28.661688" lon="104.163399"><ele>801.5123</ele><time>2026-03-06T21:58:00.000Z</time></trkpt>
        <trkpt lat="28.661635" lon="104.163407"><ele>801.21515</ele><time>2026-03-06T21:58:04.000Z</time></trkpt>
        <trkpt lat="28.661587" lon="104.163423"><ele>799.9241</ele><time>2026-03-06T21:58:08.000Z</time></trkpt>
        <trkpt lat="28.66155" lon="104.163447"><ele>799.4572</ele><time>2026-03-06T21:58:11.000Z</time></trkpt>
        <trkpt lat="28.661509" lon="104.163488"><ele>799.3325</ele><time>2026-03-06T21:58:15.000Z</time></trkpt>
        <trkpt lat="28.661478" lon="104.163541"><ele>798.37537</ele><time>2026-03-06T21:58:19.000Z</time></trkpt>
        <trkpt lat="28.661446" lon="104.163593"><ele>798.69336</ele><time>2026-03-06T21:58:23.000Z</time></trkpt>
        <trkpt lat="28.661412" lon="104.163626"><ele>799.0805</ele><time>2026-03-06T21:58:26.000Z</time></trkpt>
        <trkpt lat="28.661366" lon="104.163634"><ele>799.45013</ele><time>2026-03-06T21:58:29.000Z</time></trkpt>
        <trkpt lat="28.661326" lon="104.163598"><ele>799.71155</ele><time>2026-03-06T21:58:33.000Z</time></trkpt>
        <trkpt lat="28.661309" lon="104.163525"><ele>799.3669</ele><time>2026-03-06T21:58:40.000Z</time></trkpt>
        <trkpt lat="28.661318" lon="104.163474"><ele>798.85846</ele><time>2026-03-06T21:58:43.000Z</time></trkpt>
        <trkpt lat="28.661332" lon="104.163407"><ele>798.19855</ele><time>2026-03-06T21:58:47.000Z</time></trkpt>
        <trkpt lat="28.661337" lon="104.16334"><ele>797.4158</ele><time>2026-03-06T21:58:51.000Z</time></trkpt>
        <trkpt lat="28.66133" lon="104.163279"><ele>796.66797</ele><time>2026-03-06T21:58:55.000Z</time></trkpt>
        <trkpt lat="28.661312" lon="104.163219"><ele>795.8277</ele><time>2026-03-06T21:58:59.000Z</time></trkpt>
        <trkpt lat="28.66128" lon="104.163168"><ele>794.81824</ele><time>2026-03-06T21:59:03.000Z</time></trkpt>
        <trkpt lat="28.661241" lon="104.16312"><ele>794.01337</ele><time>2026-03-06T21:59:07.000Z</time></trkpt>
        <trkpt lat="28.661205" lon="104.163067"><ele>793.0593</ele><time>2026-03-06T21:59:11.000Z</time></trkpt>
        <trkpt lat="28.661182" lon="104.163007"><ele>792.19324</ele><time>2026-03-06T21:59:15.000Z</time></trkpt>
        <trkpt lat="28.66116" lon="104.162947"><ele>791.7397</ele><time>2026-03-06T21:59:19.000Z</time></trkpt>
        <trkpt lat="28.66114" lon="104.162885"><ele>791.8678</ele><time>2026-03-06T21:59:23.000Z</time></trkpt>
        <trkpt lat="28.661122" lon="104.162822"><ele>791.295</ele><time>2026-03-06T21:59:27.000Z</time></trkpt>
        <trkpt lat="28.661099" lon="104.162768"><ele>791.39166</ele><time>2026-03-06T21:59:31.000Z</time></trkpt>
        <trkpt lat="28.661063" lon="104.16272"><ele>792.9049</ele><time>2026-03-06T21:59:42.000Z</time></trkpt>
        <trkpt lat="28.661053" lon="104.162689"><ele>792.2951</ele><time>2026-03-06T21:59:45.000Z</time></trkpt>
        <trkpt lat="28.661066" lon="104.162625"><ele>792.49915</ele><time>2026-03-06T21:59:49.000Z</time></trkpt>
        <trkpt lat="28.661066" lon="104.162558"><ele>792.0031</ele><time>2026-03-06T21:59:53.000Z</time></trkpt>
        <trkpt lat="28.66105" lon="104.162502"><ele>791.91364</ele><time>2026-03-06T21:59:56.000Z</time></trkpt>
        <trkpt lat="28.661013" lon="104.162455"><ele>792.1944</ele><time>2026-03-06T22:00:00.000Z</time></trkpt>
        <trkpt lat="28.660964" lon="104.162432"><ele>792.284</ele><time>2026-03-06T22:00:04.000Z</time></trkpt>
        <trkpt lat="28.660906" lon="104.162403"><ele>792.1266</ele><time>2026-03-06T22:00:09.000Z</time></trkpt>
        <trkpt lat="28.660856" lon="104.16238"><ele>791.79456</ele><time>2026-03-06T22:00:13.000Z</time></trkpt>
        <trkpt lat="28.660812" lon="104.162344"><ele>791.253</ele><time>2026-03-06T22:00:17.000Z</time></trkpt>
        <trkpt lat="28.660773" lon="104.162297"><ele>790.97565</ele><time>2026-03-06T22:00:21.000Z</time></trkpt>
        <trkpt lat="28.660748" lon="104.162238"><ele>790.8338</ele><time>2026-03-06T22:00:25.000Z</time></trkpt>
        <trkpt lat="28.660734" lon="104.162173"><ele>790.2673</ele><time>2026-03-06T22:00:29.000Z</time></trkpt>
        <trkpt lat="28.66073" lon="104.162104"><ele>789.60364</ele><time>2026-03-06T22:00:33.000Z</time></trkpt>
        <trkpt lat="28.660726" lon="104.162051"><ele>789.20795</ele><time>2026-03-06T22:00:36.000Z</time></trkpt>
        <trkpt lat="28.66071" lon="104.162"><ele>788.72925</ele><time>2026-03-06T22:00:39.000Z</time></trkpt>
        <trkpt lat="28.66069" lon="104.16195"><ele>787.7236</ele><time>2026-03-06T22:00:42.000Z</time></trkpt>
        <trkpt lat="28.660666" lon="104.161903"><ele>786.58777</ele><time>2026-03-06T22:00:45.000Z</time></trkpt>
        <trkpt lat="28.660649" lon="104.161843"><ele>784.8692</ele><time>2026-03-06T22:00:49.000Z</time></trkpt>
        <trkpt lat="28.660636" lon="104.161782"><ele>783.5739</ele><time>2026-03-06T22:00:53.000Z</time></trkpt>
        <trkpt lat="28.660629" lon="104.16172"><ele>782.4126</ele><time>2026-03-06T22:00:57.000Z</time></trkpt>
        <trkpt lat="28.660614" lon="104.16166"><ele>781.97485</ele><time>2026-03-06T22:01:01.000Z</time></trkpt>
        <trkpt lat="28.660604" lon="104.161597"><ele>780.7999</ele><time>2026-03-06T22:01:05.000Z</time></trkpt>
        <trkpt lat="28.66059" lon="104.161535"><ele>780.0106</ele><time>2026-03-06T22:01:09.000Z</time></trkpt>
        <trkpt lat="28.660584" lon="104.16147"><ele>779.13654</ele><time>2026-03-06T22:01:13.000Z</time></trkpt>
        <trkpt lat="28.660566" lon="104.161408"><ele>778.75183</ele><time>2026-03-06T22:01:17.000Z</time></trkpt>
        <trkpt lat="28.660549" lon="104.161346"><ele>777.8086</ele><time>2026-03-06T22:01:21.000Z</time></trkpt>
        <trkpt lat="28.660537" lon="104.161297"><ele>777.58765</ele><time>2026-03-06T22:01:24.000Z</time></trkpt>
        <trkpt lat="28.660523" lon="104.161233"><ele>777.1996</ele><time>2026-03-06T22:01:28.000Z</time></trkpt>
        <trkpt lat="28.660511" lon="104.16117"><ele>776.9358</ele><time>2026-03-06T22:01:32.000Z</time></trkpt>
        <trkpt lat="28.660501" lon="104.161108"><ele>776.4655</ele><time>2026-03-06T22:01:36.000Z</time></trkpt>
        <trkpt lat="28.660489" lon="104.161049"><ele>775.4064</ele><time>2026-03-06T22:01:40.000Z</time></trkpt>
        <trkpt lat="28.660478" lon="104.160989"><ele>774.2821</ele><time>2026-03-06T22:01:44.000Z</time></trkpt>
        <trkpt lat="28.660478" lon="104.160926"><ele>772.73846</ele><time>2026-03-06T22:01:48.000Z</time></trkpt>
        <trkpt lat="28.660476" lon="104.160861"><ele>771.26746</ele><time>2026-03-06T22:01:52.000Z</time></trkpt>
        <trkpt lat="28.660471" lon="104.160796"><ele>769.8351</ele><time>2026-03-06T22:01:56.000Z</time></trkpt>
        <trkpt lat="28.660477" lon="104.160746"><ele>768.5669</ele><time>2026-03-06T22:01:59.000Z</time></trkpt>
        <trkpt lat="28.660497" lon="104.160685"><ele>766.7383</ele><time>2026-03-06T22:02:03.000Z</time></trkpt>
        <trkpt lat="28.660525" lon="104.160644"><ele>765.576</ele><time>2026-03-06T22:02:06.000Z</time></trkpt>
        <trkpt lat="28.660576" lon="104.160609"><ele>764.3393</ele><time>2026-03-06T22:02:10.000Z</time></trkpt>
        <trkpt lat="28.66064" lon="104.160589"><ele>761.3583</ele><time>2026-03-06T22:02:24.000Z</time></trkpt>
        <trkpt lat="28.660676" lon="104.160577"><ele>761.13275</ele><time>2026-03-06T22:02:28.000Z</time></trkpt>
        <trkpt lat="28.660725" lon="104.16055"><ele>760.29803</ele><time>2026-03-06T22:02:33.000Z</time></trkpt>
        <trkpt lat="28.660772" lon="104.160507"><ele>759.61523</ele><time>2026-03-06T22:02:45.000Z</time></trkpt>
        <trkpt lat="28.660803" lon="104.160496"><ele>759.0695</ele><time>2026-03-06T22:02:48.000Z</time></trkpt>
        <trkpt lat="28.660848" lon="104.160486"><ele>757.8039</ele><time>2026-03-06T22:02:52.000Z</time></trkpt>
        <trkpt lat="28.660897" lon="104.160468"><ele>756.94305</ele><time>2026-03-06T22:02:56.000Z</time></trkpt>
        <trkpt lat="28.660951" lon="104.160448"><ele>756.3448</ele><time>2026-03-06T22:03:00.000Z</time></trkpt>
        <trkpt lat="28.66101" lon="104.160429"><ele>755.99963</ele><time>2026-03-06T22:03:04.000Z</time></trkpt>
        <trkpt lat="28.661064" lon="104.160407"><ele>755.629</ele><time>2026-03-06T22:03:08.000Z</time></trkpt>
        <trkpt lat="28.661117" lon="104.160392"><ele>755.59644</ele><time>2026-03-06T22:03:12.000Z</time></trkpt>
        <trkpt lat="28.661171" lon="104.160374"><ele>755.50946</ele><time>2026-03-06T22:03:16.000Z</time></trkpt>
        <trkpt lat="28.66122" lon="104.160351"><ele>754.89386</ele><time>2026-03-06T22:03:20.000Z</time></trkpt>
        <trkpt lat="28.661234" lon="104.160306"><ele>753.5753</ele><time>2026-03-06T22:03:24.000Z</time></trkpt>
        <trkpt lat="28.661204" lon="104.160281"><ele>752.7124</ele><time>2026-03-06T22:03:27.000Z</time></trkpt>
        <trkpt lat="28.661149" lon="104.160282"><ele>751.8996</ele><time>2026-03-06T22:03:31.000Z</time></trkpt>
        <trkpt lat="28.661085" lon="104.160307"><ele>751.9091</ele><time>2026-03-06T22:03:35.000Z</time></trkpt>
        <trkpt lat="28.66103" lon="104.160337"><ele>752.3798</ele><time>2026-03-06T22:03:39.000Z</time></trkpt>
        <trkpt lat="28.660986" lon="104.160362"><ele>753.0737</ele><time>2026-03-06T22:03:42.000Z</time></trkpt>
        <trkpt lat="28.660934" lon="104.160382"><ele>754.1883</ele><time>2026-03-06T22:03:46.000Z</time></trkpt>
        <trkpt lat="28.660891" lon="104.160393"><ele>754.5747</ele><time>2026-03-06T22:03:49.000Z</time></trkpt>
        <trkpt lat="28.660848" lon="104.160409"><ele>754.88403</ele><time>2026-03-06T22:03:52.000Z</time></trkpt>
        <trkpt lat="28.660792" lon="104.160427"><ele>754.96216</ele><time>2026-03-06T22:03:56.000Z</time></trkpt>
        <trkpt lat="28.660736" lon="104.160436"><ele>754.7621</ele><time>2026-03-06T22:04:00.000Z</time></trkpt>
        <trkpt lat="28.660684" lon="104.160445"><ele>754.2103</ele><time>2026-03-06T22:04:04.000Z</time></trkpt>
        <trkpt lat="28.660624" lon="104.160454"><ele>753.6105</ele><time>2026-03-06T22:04:09.000Z</time></trkpt>
        <trkpt lat="28.660574" lon="104.160465"><ele>753.45215</ele><time>2026-03-06T22:04:13.000Z</time></trkpt>
        <trkpt lat="28.660525" lon="104.160482"><ele>753.44507</ele><time>2026-03-06T22:04:17.000Z</time></trkpt>
        <trkpt lat="28.660477" lon="104.160505"><ele>753.61884</ele><time>2026-03-06T22:04:20.000Z</time></trkpt>
        <trkpt lat="28.660433" lon="104.160537"><ele>753.7095</ele><time>2026-03-06T22:04:24.000Z</time></trkpt>
        <trkpt lat="28.660392" lon="104.160562"><ele>754.2647</ele><time>2026-03-06T22:04:27.000Z</time></trkpt>
        <trkpt lat="28.660339" lon="104.160573"><ele>754.7488</ele><time>2026-03-06T22:04:31.000Z</time></trkpt>
        <trkpt lat="28.660279" lon="104.160571"><ele>755.0503</ele><time>2026-03-06T22:04:36.000Z</time></trkpt>
        <trkpt lat="28.660234" lon="104.160558"><ele>755.089</ele><time>2026-03-06T22:04:39.000Z</time></trkpt>
        <trkpt lat="28.660183" lon="104.160531"><ele>754.6655</ele><time>2026-03-06T22:04:43.000Z</time></trkpt>
        <trkpt lat="28.660145" lon="104.1605"><ele>753.928</ele><time>2026-03-06T22:04:46.000Z</time></trkpt>
        <trkpt lat="28.660094" lon="104.160445"><ele>752.39</ele><time>2026-03-06T22:04:51.000Z</time></trkpt>
        <trkpt lat="28.660067" lon="104.16039"><ele>750.7604</ele><time>2026-03-06T22:04:55.000Z</time></trkpt>
        <trkpt lat="28.660029" lon="104.160344"><ele>748.4976</ele><time>2026-03-06T22:04:59.000Z</time></trkpt>
        <trkpt lat="28.65999" lon="104.160301"><ele>746.33307</ele><time>2026-03-06T22:05:03.000Z</time></trkpt>
        <trkpt lat="28.659944" lon="104.160264"><ele>744.3451</ele><time>2026-03-06T22:05:07.000Z</time></trkpt>
        <trkpt lat="28.659895" lon="104.160229"><ele>743.1839</ele><time>2026-03-06T22:05:11.000Z</time></trkpt>
        <trkpt lat="28.659848" lon="104.1602"><ele>741.9539</ele><time>2026-03-06T22:05:15.000Z</time></trkpt>
        <trkpt lat="28.659797" lon="104.160182"><ele>741.69885</ele><time>2026-03-06T22:05:19.000Z</time></trkpt>
        <trkpt lat="28.659744" lon="104.160175"><ele>741.2745</ele><time>2026-03-06T22:05:23.000Z</time></trkpt>
        <trkpt lat="28.659687" lon="104.160167"><ele>741.0102</ele><time>2026-03-06T22:05:27.000Z</time></trkpt>
        <trkpt lat="28.659631" lon="104.160171"><ele>740.94476</ele><time>2026-03-06T22:05:31.000Z</time></trkpt>
        <trkpt lat="28.659576" lon="104.160181"><ele>740.6604</ele><time>2026-03-06T22:05:35.000Z</time></trkpt>
        <trkpt lat="28.659521" lon="104.16019"><ele>740.8329</ele><time>2026-03-06T22:05:39.000Z</time></trkpt>
        <trkpt lat="28.659467" lon="104.160194"><ele>741.4336</ele><time>2026-03-06T22:05:43.000Z</time></trkpt>
        <trkpt lat="28.659417" lon="104.160208"><ele>741.59564</ele><time>2026-03-06T22:05:47.000Z</time></trkpt>
        <trkpt lat="28.659377" lon="104.160222"><ele>741.9658</ele><time>2026-03-06T22:05:50.000Z</time></trkpt>
        <trkpt lat="28.659321" lon="104.16023"><ele>742.63727</ele><time>2026-03-06T22:05:54.000Z</time></trkpt>
        <trkpt lat="28.659265" lon="104.160213"><ele>742.9457</ele><time>2026-03-06T22:05:58.000Z</time></trkpt>
        <trkpt lat="28.659212" lon="104.160194"><ele>743.3486</ele><time>2026-03-06T22:06:02.000Z</time></trkpt>
        <trkpt lat="28.659168" lon="104.160178"><ele>743.4284</ele><time>2026-03-06T22:06:05.000Z</time></trkpt>
        <trkpt lat="28.659112" lon="104.160161"><ele>742.66235</ele><time>2026-03-06T22:06:09.000Z</time></trkpt>
        <trkpt lat="28.659059" lon="104.160143"><ele>742.67413</ele><time>2026-03-06T22:06:13.000Z</time></trkpt>
        <trkpt lat="28.659017" lon="104.160118"><ele>742.725</ele><time>2026-03-06T22:06:16.000Z</time></trkpt>
        <trkpt lat="28.658965" lon="104.160094"><ele>741.87866</ele><time>2026-03-06T22:06:20.000Z</time></trkpt>
        <trkpt lat="28.658923" lon="104.160075"><ele>741.6204</ele><time>2026-03-06T22:06:23.000Z</time></trkpt>
        <trkpt lat="28.658873" lon="104.160039"><ele>741.05994</ele><time>2026-03-06T22:06:26.000Z</time></trkpt>
        <trkpt lat="28.65883" lon="104.160003"><ele>740.3045</ele><time>2026-03-06T22:06:30.000Z</time></trkpt>
        <trkpt lat="28.658794" lon="104.159957"><ele>739.64716</ele><time>2026-03-06T22:06:34.000Z</time></trkpt>
        <trkpt lat="28.658774" lon="104.159901"><ele>738.9639</ele><time>2026-03-06T22:06:38.000Z</time></trkpt>
        <trkpt lat="28.658769" lon="104.159838"><ele>738.578</ele><time>2026-03-06T22:06:43.000Z</time></trkpt>
        <trkpt lat="28.658773" lon="104.159774"><ele>737.61505</ele><time>2026-03-06T22:06:47.000Z</time></trkpt>
        <trkpt lat="28.658779" lon="104.159711"><ele>736.36194</ele><time>2026-03-06T22:06:51.000Z</time></trkpt>
        <trkpt lat="28.658776" lon="104.159652"><ele>734.85205</ele><time>2026-03-06T22:06:55.000Z</time></trkpt>
        <trkpt lat="28.65877" lon="104.159579"><ele>732.8023</ele><time>2026-03-06T22:06:59.000Z</time></trkpt>
        <trkpt lat="28.658755" lon="104.159512"><ele>730.1518</ele><time>2026-03-06T22:07:04.000Z</time></trkpt>
        <trkpt lat="28.65874" lon="104.159459"><ele>728.8917</ele><time>2026-03-06T22:07:08.000Z</time></trkpt>
        <trkpt lat="28.658726" lon="104.159403"><ele>727.9126</ele><time>2026-03-06T22:07:12.000Z</time></trkpt>
        <trkpt lat="28.658707" lon="104.159349"><ele>727.0873</ele><time>2026-03-06T22:07:16.000Z</time></trkpt>
        <trkpt lat="28.658675" lon="104.159303"><ele>725.783</ele><time>2026-03-06T22:07:20.000Z</time></trkpt>
        <trkpt lat="28.658631" lon="104.159268"><ele>724.8966</ele><time>2026-03-06T22:07:25.000Z</time></trkpt>
        <trkpt lat="28.658576" lon="104.159246"><ele>722.21875</ele><time>2026-03-06T22:07:53.000Z</time></trkpt>
        <trkpt lat="28.65859" lon="104.159294"><ele>722.36444</ele><time>2026-03-06T22:08:01.000Z</time></trkpt>
        <trkpt lat="28.658547" lon="104.159301"><ele>722.32184</ele><time>2026-03-06T22:08:10.000Z</time></trkpt>
        <trkpt lat="28.658492" lon="104.159292"><ele>721.7142</ele><time>2026-03-06T22:08:19.000Z</time></trkpt>
        <trkpt lat="28.658451" lon="104.159315"><ele>721.94385</ele><time>2026-03-06T22:08:24.000Z</time></trkpt>
        <trkpt lat="28.6584" lon="104.159344"><ele>722.37756</ele><time>2026-03-06T22:08:29.000Z</time></trkpt>
        <trkpt lat="28.65835" lon="104.159354"><ele>722.6787</ele><time>2026-03-06T22:08:32.000Z</time></trkpt>
        <trkpt lat="28.658296" lon="104.159361"><ele>722.6794</ele><time>2026-03-06T22:08:36.000Z</time></trkpt>
        <trkpt lat="28.658243" lon="104.159358"><ele>722.55994</ele><time>2026-03-06T22:08:40.000Z</time></trkpt>
        <trkpt lat="28.65819" lon="104.159348"><ele>722.6773</ele><time>2026-03-06T22:08:44.000Z</time></trkpt>
        <trkpt lat="28.658145" lon="104.159313"><ele>723.27765</ele><time>2026-03-06T22:09:28.000Z</time></trkpt>
        <trkpt lat="28.658114" lon="104.159319"><ele>722.5113</ele><time>2026-03-06T22:09:33.000Z</time></trkpt>
        <trkpt lat="28.658067" lon="104.159315"><ele>722.28864</ele><time>2026-03-06T22:09:36.000Z</time></trkpt>
        <trkpt lat="28.658007" lon="104.159309"><ele>721.926</ele><time>2026-03-06T22:09:40.000Z</time></trkpt>
        <trkpt lat="28.657951" lon="104.15929"><ele>721.68536</ele><time>2026-03-06T22:09:45.000Z</time></trkpt>
        <trkpt lat="28.657905" lon="104.159275"><ele>721.13556</ele><time>2026-03-06T22:09:49.000Z</time></trkpt>
        <trkpt lat="28.657893" lon="104.159235"><ele>720.32086</ele><time>2026-03-06T22:09:53.000Z</time></trkpt>
        <trkpt lat="28.657919" lon="104.159184"><ele>719.4521</ele><time>2026-03-06T22:09:57.000Z</time></trkpt>
        <trkpt lat="28.657992" lon="104.159167"><ele>716.3305</ele><time>2026-03-06T22:10:17.000Z</time></trkpt>
        <trkpt lat="28.65804" lon="104.159171"><ele>715.575</ele><time>2026-03-06T22:10:22.000Z</time></trkpt>
        <trkpt lat="28.658088" lon="104.159161"><ele>715.4143</ele><time>2026-03-06T22:10:26.000Z</time></trkpt>
        <trkpt lat="28.658136" lon="104.159145"><ele>715.2485</ele><time>2026-03-06T22:10:30.000Z</time></trkpt>
        <trkpt lat="28.658184" lon="104.159129"><ele>715.18</ele><time>2026-03-06T22:10:34.000Z</time></trkpt>
        <trkpt lat="28.658234" lon="104.159107"><ele>714.8453</ele><time>2026-03-06T22:10:37.000Z</time></trkpt>
        <trkpt lat="28.658284" lon="104.159088"><ele>713.9922</ele><time>2026-03-06T22:10:41.000Z</time></trkpt>
        <trkpt lat="28.658336" lon="104.159065"><ele>713.5192</ele><time>2026-03-06T22:10:45.000Z</time></trkpt>
        <trkpt lat="28.658369" lon="104.15902"><ele>712.4618</ele><time>2026-03-06T22:10:49.000Z</time></trkpt>
        <trkpt lat="28.658362" lon="104.158976"><ele>711.9908</ele><time>2026-03-06T22:10:52.000Z</time></trkpt>
        <trkpt lat="28.658317" lon="104.158946"><ele>712.19885</ele><time>2026-03-06T22:10:56.000Z</time></trkpt>
        <trkpt lat="28.658258" lon="104.15895"><ele>711.9135</ele><time>2026-03-06T22:11:00.000Z</time></trkpt>
        <trkpt lat="28.658198" lon="104.158969"><ele>711.48486</ele><time>2026-03-06T22:11:05.000Z</time></trkpt>
        <trkpt lat="28.658141" lon="104.158998"><ele>710.75073</ele><time>2026-03-06T22:11:09.000Z</time></trkpt>
        <trkpt lat="28.658087" lon="104.159025"><ele>709.952</ele><time>2026-03-06T22:11:13.000Z</time></trkpt>
        <trkpt lat="28.658047" lon="104.159018"><ele>709.16016</ele><time>2026-03-06T22:11:16.000Z</time></trkpt>
        <trkpt lat="28.658038" lon="104.158979"><ele>708.27466</ele><time>2026-03-06T22:11:19.000Z</time></trkpt>
        <trkpt lat="28.658067" lon="104.158928"><ele>707.13434</ele><time>2026-03-06T22:11:23.000Z</time></trkpt>
        <trkpt lat="28.658118" lon="104.158884"><ele>705.48267</ele><time>2026-03-06T22:11:27.000Z</time></trkpt>
        <trkpt lat="28.658176" lon="104.158853"><ele>704.5097</ele><time>2026-03-06T22:11:31.000Z</time></trkpt>
        <trkpt lat="28.658226" lon="104.158823"><ele>704.2222</ele><time>2026-03-06T22:11:35.000Z</time></trkpt>
        <trkpt lat="28.658269" lon="104.15878"><ele>703.82574</ele><time>2026-03-06T22:11:39.000Z</time></trkpt>
        <trkpt lat="28.658308" lon="104.158741"><ele>703.2677</ele><time>2026-03-06T22:11:43.000Z</time></trkpt>
        <trkpt lat="28.658338" lon="104.158697"><ele>702.84375</ele><time>2026-03-06T22:11:47.000Z</time></trkpt>
        <trkpt lat="28.658366" lon="104.158651"><ele>702.2241</ele><time>2026-03-06T22:11:51.000Z</time></trkpt>
        <trkpt lat="28.658401" lon="104.158611"><ele>701.0326</ele><time>2026-03-06T22:11:55.000Z</time></trkpt>
        <trkpt lat="28.658439" lon="104.158573"><ele>699.798</ele><time>2026-03-06T22:11:59.000Z</time></trkpt>
        <trkpt lat="28.658479" lon="104.158535"><ele>699.09814</ele><time>2026-03-06T22:12:03.000Z</time></trkpt>
        <trkpt lat="28.658518" lon="104.158494"><ele>698.4865</ele><time>2026-03-06T22:12:07.000Z</time></trkpt>
        <trkpt lat="28.658558" lon="104.158452"><ele>697.74115</ele><time>2026-03-06T22:12:11.000Z</time></trkpt>
        <trkpt lat="28.6586" lon="104.158413"><ele>697.33844</ele><time>2026-03-06T22:12:15.000Z</time></trkpt>
        <trkpt lat="28.658641" lon="104.158378"><ele>697.1881</ele><time>2026-03-06T22:12:19.000Z</time></trkpt>
        <trkpt lat="28.658683" lon="104.158345"><ele>697.52936</ele><time>2026-03-06T22:12:23.000Z</time></trkpt>
        <trkpt lat="28.658727" lon="104.158314"><ele>697.6461</ele><time>2026-03-06T22:12:27.000Z</time></trkpt>
        <trkpt lat="28.658772" lon="104.158288"><ele>697.82367</ele><time>2026-03-06T22:12:31.000Z</time></trkpt>
        <trkpt lat="28.658814" lon="104.158259"><ele>698.10156</ele><time>2026-03-06T22:12:35.000Z</time></trkpt>
        <trkpt lat="28.658851" lon="104.158224"><ele>698.46094</ele><time>2026-03-06T22:12:39.000Z</time></trkpt>
        <trkpt lat="28.658891" lon="104.15819"><ele>698.5276</ele><time>2026-03-06T22:12:43.000Z</time></trkpt>
        <trkpt lat="28.658922" lon="104.158147"><ele>698.3391</ele><time>2026-03-06T22:12:47.000Z</time></trkpt>
        <trkpt lat="28.658946" lon="104.158097"><ele>698.4144</ele><time>2026-03-06T22:12:51.000Z</time></trkpt>
        <trkpt lat="28.658971" lon="104.158049"><ele>697.502</ele><time>2026-03-06T22:12:55.000Z</time></trkpt>
        <trkpt lat="28.659" lon="104.158006"><ele>696.6629</ele><time>2026-03-06T22:12:59.000Z</time></trkpt>
        <trkpt lat="28.659025" lon="104.15796"><ele>696.0707</ele><time>2026-03-06T22:13:03.000Z</time></trkpt>
        <trkpt lat="28.659052" lon="104.157906"><ele>695.75604</ele><time>2026-03-06T22:13:07.000Z</time></trkpt>
        <trkpt lat="28.659084" lon="104.157854"><ele>695.16144</ele><time>2026-03-06T22:13:11.000Z</time></trkpt>
        <trkpt lat="28.659115" lon="104.1578"><ele>694.24194</ele><time>2026-03-06T22:13:15.000Z</time></trkpt>
        <trkpt lat="28.659147" lon="104.157748"><ele>693.5134</ele><time>2026-03-06T22:13:19.000Z</time></trkpt>
        <trkpt lat="28.659183" lon="104.157702"><ele>693.26385</ele><time>2026-03-06T22:13:23.000Z</time></trkpt>
        <trkpt lat="28.659216" lon="104.157655"><ele>693.13354</ele><time>2026-03-06T22:13:27.000Z</time></trkpt>
        <trkpt lat="28.659244" lon="104.157606"><ele>692.56445</ele><time>2026-03-06T22:13:31.000Z</time></trkpt>
        <trkpt lat="28.659275" lon="104.15756"><ele>692.62103</ele><time>2026-03-06T22:13:35.000Z</time></trkpt>
        <trkpt lat="28.659311" lon="104.157517"><ele>692.4676</ele><time>2026-03-06T22:13:39.000Z</time></trkpt>
        <trkpt lat="28.659341" lon="104.157469"><ele>692.51245</ele><time>2026-03-06T22:13:43.000Z</time></trkpt>
        <trkpt lat="28.659353" lon="104.157413"><ele>691.7687</ele><time>2026-03-06T22:13:47.000Z</time></trkpt>
        <trkpt lat="28.659353" lon="104.157353"><ele>690.36255</ele><time>2026-03-06T22:13:51.000Z</time></trkpt>
        <trkpt lat="28.659352" lon="104.157291"><ele>688.90393</ele><time>2026-03-06T22:13:55.000Z</time></trkpt>
        <trkpt lat="28.659355" lon="104.157232"><ele>687.90814</ele><time>2026-03-06T22:13:59.000Z</time></trkpt>
        <trkpt lat="28.65936" lon="104.157171"><ele>686.9863</ele><time>2026-03-06T22:14:03.000Z</time></trkpt>
        <trkpt lat="28.659375" lon="104.15711"><ele>686.75775</ele><time>2026-03-06T22:14:07.000Z</time></trkpt>
        <trkpt lat="28.659385" lon="104.15705"><ele>685.9315</ele><time>2026-03-06T22:14:11.000Z</time></trkpt>
        <trkpt lat="28.659397" lon="104.156989"><ele>684.719</ele><time>2026-03-06T22:14:15.000Z</time></trkpt>
        <trkpt lat="28.659397" lon="104.156928"><ele>683.9465</ele><time>2026-03-06T22:14:19.000Z</time></trkpt>
        <trkpt lat="28.659405" lon="104.156868"><ele>682.89276</ele><time>2026-03-06T22:14:23.000Z</time></trkpt>
        <trkpt lat="28.659423" lon="104.156793"><ele>682.57355</ele><time>2026-03-06T22:14:37.000Z</time></trkpt>
        <trkpt lat="28.659433" lon="104.156755"><ele>682.21124</ele><time>2026-03-06T22:14:41.000Z</time></trkpt>
        <trkpt lat="28.659446" lon="104.156696"><ele>681.6192</ele><time>2026-03-06T22:14:45.000Z</time></trkpt>
        <trkpt lat="28.659454" lon="104.156629"><ele>681.1151</ele><time>2026-03-06T22:14:49.000Z</time></trkpt>
        <trkpt lat="28.659453" lon="104.156565"><ele>680.50244</ele><time>2026-03-06T22:14:53.000Z</time></trkpt>
        <trkpt lat="28.65945" lon="104.156502"><ele>679.90894</ele><time>2026-03-06T22:14:57.000Z</time></trkpt>
        <trkpt lat="28.659458" lon="104.15644"><ele>678.7937</ele><time>2026-03-06T22:15:01.000Z</time></trkpt>
        <trkpt lat="28.659467" lon="104.15638"><ele>677.9325</ele><time>2026-03-06T22:15:05.000Z</time></trkpt>
        <trkpt lat="28.659474" lon="104.156321"><ele>676.9912</ele><time>2026-03-06T22:15:09.000Z</time></trkpt>
        <trkpt lat="28.659478" lon="104.156259"><ele>676.1223</ele><time>2026-03-06T22:15:13.000Z</time></trkpt>
        <trkpt lat="28.659476" lon="104.156197"><ele>675.68</ele><time>2026-03-06T22:15:17.000Z</time></trkpt>
        <trkpt lat="28.65947" lon="104.156137"><ele>675.38794</ele><time>2026-03-06T22:15:21.000Z</time></trkpt>
        <trkpt lat="28.659462" lon="104.156079"><ele>675.44965</ele><time>2026-03-06T22:15:25.000Z</time></trkpt>
        <trkpt lat="28.659455" lon="104.156018"><ele>675.3782</ele><time>2026-03-06T22:15:29.000Z</time></trkpt>
        <trkpt lat="28.65944" lon="104.155966"><ele>674.77716</ele><time>2026-03-06T22:15:33.000Z</time></trkpt>
        <trkpt lat="28.659428" lon="104.155911"><ele>674.1052</ele><time>2026-03-06T22:15:37.000Z</time></trkpt>
        <trkpt lat="28.659418" lon="104.155852"><ele>673.04706</ele><time>2026-03-06T22:15:41.000Z</time></trkpt>
        <trkpt lat="28.659407" lon="104.155792"><ele>672.6184</ele><time>2026-03-06T22:15:45.000Z</time></trkpt>
        <trkpt lat="28.6594" lon="104.155733"><ele>672.277</ele><time>2026-03-06T22:15:49.000Z</time></trkpt>
        <trkpt lat="28.659406" lon="104.155666"><ele>671.1241</ele><time>2026-03-06T22:16:05.000Z</time></trkpt>
        <trkpt lat="28.659426" lon="104.155627"><ele>670.93945</ele><time>2026-03-06T22:16:10.000Z</time></trkpt>
        <trkpt lat="28.659455" lon="104.155582"><ele>671.13586</ele><time>2026-03-06T22:16:14.000Z</time></trkpt>
        <trkpt lat="28.659485" lon="104.155536"><ele>670.8396</ele><time>2026-03-06T22:16:18.000Z</time></trkpt>
        <trkpt lat="28.659518" lon="104.155488"><ele>670.46747</ele><time>2026-03-06T22:16:22.000Z</time></trkpt>
        <trkpt lat="28.6595" lon="104.155444"><ele>670.03766</ele><time>2026-03-06T22:16:27.000Z</time></trkpt>
        <trkpt lat="28.659454" lon="104.155448"><ele>669.3203</ele><time>2026-03-06T22:16:31.000Z</time></trkpt>
        <trkpt lat="28.659408" lon="104.155485"><ele>668.69574</ele><time>2026-03-06T22:16:35.000Z</time></trkpt>
        <trkpt lat="28.659368" lon="104.155534"><ele>668.59216</ele><time>2026-03-06T22:16:39.000Z</time></trkpt>
        <trkpt lat="28.659341" lon="104.155594"><ele>668.18713</ele><time>2026-03-06T22:16:43.000Z</time></trkpt>
        <trkpt lat="28.659327" lon="104.155656"><ele>667.82416</ele><time>2026-03-06T22:16:47.000Z</time></trkpt>
        <trkpt lat="28.65933" lon="104.155718"><ele>667.18396</ele><time>2026-03-06T22:16:51.000Z</time></trkpt>
        <trkpt lat="28.659338" lon="104.155777"><ele>666.8833</ele><time>2026-03-06T22:16:55.000Z</time></trkpt>
        <trkpt lat="28.659337" lon="104.155838"><ele>666.7207</ele><time>2026-03-06T22:16:59.000Z</time></trkpt>
        <trkpt lat="28.659342" lon="104.155896"><ele>666.4903</ele><time>2026-03-06T22:17:03.000Z</time></trkpt>
        <trkpt lat="28.659346" lon="104.155956"><ele>667.02936</ele><time>2026-03-06T22:17:07.000Z</time></trkpt>
        <trkpt lat="28.659344" lon="104.15602"><ele>668.12573</ele><time>2026-03-06T22:17:11.000Z</time></trkpt>
        <trkpt lat="28.659337" lon="104.156083"><ele>669.009</ele><time>2026-03-06T22:17:15.000Z</time></trkpt>
        <trkpt lat="28.659306" lon="104.156135"><ele>668.81256</ele><time>2026-03-06T22:17:20.000Z</time></trkpt>
        <trkpt lat="28.659265" lon="104.15612"><ele>668.2984</ele><time>2026-03-06T22:17:24.000Z</time></trkpt>
        <trkpt lat="28.65925" lon="104.156062"><ele>667.4815</ele><time>2026-03-06T22:17:28.000Z</time></trkpt>
        <trkpt lat="28.659244" lon="104.155989"><ele>666.61304</ele><time>2026-03-06T22:17:32.000Z</time></trkpt>
        <trkpt lat="28.659242" lon="104.155922"><ele>665.71954</ele><time>2026-03-06T22:17:36.000Z</time></trkpt>
        <trkpt lat="28.659239" lon="104.155858"><ele>665.08514</ele><time>2026-03-06T22:17:40.000Z</time></trkpt>
        <trkpt lat="28.659244" lon="104.155793"><ele>664.2476</ele><time>2026-03-06T22:17:44.000Z</time></trkpt>
        <trkpt lat="28.65925" lon="104.155736"><ele>663.3694</ele><time>2026-03-06T22:17:48.000Z</time></trkpt>
        <trkpt lat="28.659251" lon="104.155676"><ele>662.61707</ele><time>2026-03-06T22:17:52.000Z</time></trkpt>
        <trkpt lat="28.65925" lon="104.155615"><ele>661.72925</ele><time>2026-03-06T22:17:56.000Z</time></trkpt>
        <trkpt lat="28.659249" lon="104.155557"><ele>660.9856</ele><time>2026-03-06T22:18:00.000Z</time></trkpt>
        <trkpt lat="28.659253" lon="104.1555"><ele>660.458</ele><time>2026-03-06T22:18:04.000Z</time></trkpt>
        <trkpt lat="28.659257" lon="104.155442"><ele>660.1404</ele><time>2026-03-06T22:18:08.000Z</time></trkpt>
        <trkpt lat="28.659268" lon="104.155379"><ele>659.7742</ele><time>2026-03-06T22:18:12.000Z</time></trkpt>
        <trkpt lat="28.659286" lon="104.155316"><ele>659.48755</ele><time>2026-03-06T22:18:16.000Z</time></trkpt>
        <trkpt lat="28.659305" lon="104.155258"><ele>658.63904</ele><time>2026-03-06T22:18:20.000Z</time></trkpt>
        <trkpt lat="28.659314" lon="104.155198"><ele>657.6738</ele><time>2026-03-06T22:18:24.000Z</time></trkpt>
        <trkpt lat="28.659319" lon="104.155139"><ele>656.5458</ele><time>2026-03-06T22:18:28.000Z</time></trkpt>
        <trkpt lat="28.659324" lon="104.155079"><ele>655.1717</ele><time>2026-03-06T22:18:32.000Z</time></trkpt>
        <trkpt lat="28.659327" lon="104.155024"><ele>654.0413</ele><time>2026-03-06T22:18:36.000Z</time></trkpt>
        <trkpt lat="28.659343" lon="104.154973"><ele>653.3727</ele><time>2026-03-06T22:18:40.000Z</time></trkpt>
        <trkpt lat="28.659363" lon="104.154916"><ele>652.67426</ele><time>2026-03-06T22:18:44.000Z</time></trkpt>
        <trkpt lat="28.65937" lon="104.154857"><ele>651.9337</ele><time>2026-03-06T22:18:48.000Z</time></trkpt>
        <trkpt lat="28.659378" lon="104.154801"><ele>651.3601</ele><time>2026-03-06T22:18:52.000Z</time></trkpt>
        <trkpt lat="28.659387" lon="104.154745"><ele>650.4276</ele><time>2026-03-06T22:18:57.000Z</time></trkpt>
        <trkpt lat="28.659404" lon="104.154705"><ele>649.7281</ele><time>2026-03-06T22:19:00.000Z</time></trkpt>
        <trkpt lat="28.659429" lon="104.154665"><ele>649.13434</ele><time>2026-03-06T22:19:03.000Z</time></trkpt>
        <trkpt lat="28.65946" lon="104.154616"><ele>648.3482</ele><time>2026-03-06T22:19:07.000Z</time></trkpt>
        <trkpt lat="28.659498" lon="104.154578"><ele>647.3659</ele><time>2026-03-06T22:19:11.000Z</time></trkpt>
        <trkpt lat="28.659544" lon="104.154548"><ele>646.74194</ele><time>2026-03-06T22:19:16.000Z</time></trkpt>
        <trkpt lat="28.65953" lon="104.154571"><ele>646.6077</ele><time>2026-03-06T22:19:22.000Z</time></trkpt>
        <trkpt lat="28.659489" lon="104.154627"><ele>647.53894</ele><time>2026-03-06T22:19:32.000Z</time></trkpt>
        <trkpt lat="28.659446" lon="104.154672"><ele>648.4444</ele><time>2026-03-06T22:19:47.000Z</time></trkpt>
        <trkpt lat="28.659416" lon="104.154708"><ele>649.21625</ele><time>2026-03-06T22:19:56.000Z</time></trkpt>
        <trkpt lat="28.659444" lon="104.154669"><ele>648.6583</ele><time>2026-03-06T22:20:31.000Z</time></trkpt>
        <trkpt lat="28.65947" lon="104.154632"><ele>648.3438</ele><time>2026-03-06T22:20:35.000Z</time></trkpt>
        <trkpt lat="28.65951" lon="104.154598"><ele>648.09894</ele><time>2026-03-06T22:20:39.000Z</time></trkpt>
        <trkpt lat="28.659559" lon="104.154567"><ele>647.45575</ele><time>2026-03-06T22:20:43.000Z</time></trkpt>
        <trkpt lat="28.659609" lon="104.154548"><ele>646.5158</ele><time>2026-03-06T22:20:47.000Z</time></trkpt>
        <trkpt lat="28.659663" lon="104.154536"><ele>646.13104</ele><time>2026-03-06T22:20:51.000Z</time></trkpt>
        <trkpt lat="28.659721" lon="104.15453"><ele>645.78906</ele><time>2026-03-06T22:20:55.000Z</time></trkpt>
        <trkpt lat="28.659774" lon="104.154538"><ele>645.6454</ele><time>2026-03-06T22:20:59.000Z</time></trkpt>
        <trkpt lat="28.659831" lon="104.154543"><ele>645.3556</ele><time>2026-03-06T22:21:03.000Z</time></trkpt>
        <trkpt lat="28.659886" lon="104.154546"><ele>644.97894</ele><time>2026-03-06T22:21:07.000Z</time></trkpt>
        <trkpt lat="28.659938" lon="104.15455"><ele>644.69086</ele><time>2026-03-06T22:21:11.000Z</time></trkpt>
        <trkpt lat="28.659989" lon="104.154561"><ele>644.29913</ele><time>2026-03-06T22:21:15.000Z</time></trkpt>
        <trkpt lat="28.66004" lon="104.154557"><ele>643.2461</ele><time>2026-03-06T22:21:19.000Z</time></trkpt>
        <trkpt lat="28.660082" lon="104.154528"><ele>642.0871</ele><time>2026-03-06T22:21:23.000Z</time></trkpt>
        <trkpt lat="28.660088" lon="104.154469"><ele>641.18805</ele><time>2026-03-06T22:21:28.000Z</time></trkpt>
        <trkpt lat="28.660049" lon="104.154431"><ele>640.8539</ele><time>2026-03-06T22:21:32.000Z</time></trkpt>
        <trkpt lat="28.659994" lon="104.154403"><ele>640.8625</ele><time>2026-03-06T22:21:36.000Z</time></trkpt>
        <trkpt lat="28.659931" lon="104.1544"><ele>640.9689</ele><time>2026-03-06T22:21:40.000Z</time></trkpt>
        <trkpt lat="28.659872" lon="104.154392"><ele>640.6429</ele><time>2026-03-06T22:21:44.000Z</time></trkpt>
        <trkpt lat="28.659816" lon="104.154379"><ele>640.59717</ele><time>2026-03-06T22:21:48.000Z</time></trkpt>
        <trkpt lat="28.659766" lon="104.154367"><ele>640.54016</ele><time>2026-03-06T22:21:52.000Z</time></trkpt>
        <trkpt lat="28.659717" lon="104.154351"><ele>640.36566</ele><time>2026-03-06T22:21:56.000Z</time></trkpt>
        <trkpt lat="28.659666" lon="104.15434"><ele>639.74567</ele><time>2026-03-06T22:22:00.000Z</time></trkpt>
        <trkpt lat="28.659617" lon="104.154321"><ele>638.7619</ele><time>2026-03-06T22:22:04.000Z</time></trkpt>
        <trkpt lat="28.659571" lon="104.15429"><ele>638.31854</ele><time>2026-03-06T22:22:08.000Z</time></trkpt>
        <trkpt lat="28.659546" lon="104.154249"><ele>637.9104</ele><time>2026-03-06T22:22:11.000Z</time></trkpt>
        <trkpt lat="28.659528" lon="104.154201"><ele>637.4532</ele><time>2026-03-06T22:22:14.000Z</time></trkpt>
        <trkpt lat="28.659515" lon="104.154135"><ele>636.4979</ele><time>2026-03-06T22:22:18.000Z</time></trkpt>
        <trkpt lat="28.659498" lon="104.154074"><ele>635.8155</ele><time>2026-03-06T22:22:22.000Z</time></trkpt>
        <trkpt lat="28.659465" lon="104.154032"><ele>634.80414</ele><time>2026-03-06T22:22:26.000Z</time></trkpt>
        <trkpt lat="28.659424" lon="104.154002"><ele>633.3753</ele><time>2026-03-06T22:22:30.000Z</time></trkpt>
        <trkpt lat="28.659372" lon="104.153989"><ele>632.55994</ele><time>2026-03-06T22:22:34.000Z</time></trkpt>
        <trkpt lat="28.65932" lon="104.15399"><ele>631.91187</ele><time>2026-03-06T22:22:38.000Z</time></trkpt>
        <trkpt lat="28.659262" lon="104.15398"><ele>631.4941</ele><time>2026-03-06T22:22:43.000Z</time></trkpt>
        <trkpt lat="28.659216" lon="104.153982"><ele>631.0266</ele><time>2026-03-06T22:22:47.000Z</time></trkpt>
        <trkpt lat="28.659159" lon="104.153988"><ele>630.08234</ele><time>2026-03-06T22:22:52.000Z</time></trkpt>
        <trkpt lat="28.659127" lon="104.154021"><ele>629.2658</ele><time>2026-03-06T22:22:56.000Z</time></trkpt>
        <trkpt lat="28.659104" lon="104.154071"><ele>629.08014</ele><time>2026-03-06T22:23:00.000Z</time></trkpt>
        <trkpt lat="28.659091" lon="104.154127"><ele>629.2702</ele><time>2026-03-06T22:23:04.000Z</time></trkpt>
        <trkpt lat="28.659081" lon="104.154183"><ele>629.9671</ele><time>2026-03-06T22:23:08.000Z</time></trkpt>
        <trkpt lat="28.65907" lon="104.154246"><ele>630.6126</ele><time>2026-03-06T22:23:12.000Z</time></trkpt>
        <trkpt lat="28.659053" lon="104.154306"><ele>630.652</ele><time>2026-03-06T22:23:16.000Z</time></trkpt>
        <trkpt lat="28.659017" lon="104.15435"><ele>630.65247</ele><time>2026-03-06T22:23:20.000Z</time></trkpt>
        <trkpt lat="28.658971" lon="104.154387"><ele>630.9124</ele><time>2026-03-06T22:23:24.000Z</time></trkpt>
        <trkpt lat="28.658915" lon="104.154403"><ele>630.75195</ele><time>2026-03-06T22:23:28.000Z</time></trkpt>
        <trkpt lat="28.658857" lon="104.154411"><ele>630.48883</ele><time>2026-03-06T22:23:32.000Z</time></trkpt>
        <trkpt lat="28.658802" lon="104.154423"><ele>629.804</ele><time>2026-03-06T22:23:36.000Z</time></trkpt>
        <trkpt lat="28.65875" lon="104.154437"><ele>629.31537</ele><time>2026-03-06T22:23:40.000Z</time></trkpt>
        <trkpt lat="28.658698" lon="104.154446"><ele>628.81946</ele><time>2026-03-06T22:23:44.000Z</time></trkpt>
        <trkpt lat="28.658642" lon="104.154444"><ele>628.5795</ele><time>2026-03-06T22:23:48.000Z</time></trkpt>
        <trkpt lat="28.658585" lon="104.154432"><ele>627.6495</ele><time>2026-03-06T22:23:52.000Z</time></trkpt>
        <trkpt lat="28.658534" lon="104.154399"><ele>626.8528</ele><time>2026-03-06T22:23:56.000Z</time></trkpt>
        <trkpt lat="28.658484" lon="104.154359"><ele>625.4872</ele><time>2026-03-06T22:24:02.000Z</time></trkpt>
        <trkpt lat="28.658449" lon="104.15432"><ele>624.63</ele><time>2026-03-06T22:24:06.000Z</time></trkpt>
        <trkpt lat="28.658414" lon="104.154276"><ele>624.0891</ele><time>2026-03-06T22:24:10.000Z</time></trkpt>
        <trkpt lat="28.658374" lon="104.154237"><ele>623.50995</ele><time>2026-03-06T22:24:14.000Z</time></trkpt>
        <trkpt lat="28.658327" lon="104.154203"><ele>623.9165</ele><time>2026-03-06T22:24:18.000Z</time></trkpt>
        <trkpt lat="28.658277" lon="104.154173"><ele>623.98785</ele><time>2026-03-06T22:24:22.000Z</time></trkpt>
        <trkpt lat="28.658223" lon="104.154155"><ele>623.57263</ele><time>2026-03-06T22:24:26.000Z</time></trkpt>
        <trkpt lat="28.658171" lon="104.154138"><ele>622.9627</ele><time>2026-03-06T22:24:30.000Z</time></trkpt>
        <trkpt lat="28.65812" lon="104.154134"><ele>622.5638</ele><time>2026-03-06T22:24:34.000Z</time></trkpt>
        <trkpt lat="28.658067" lon="104.154143"><ele>622.1221</ele><time>2026-03-06T22:24:38.000Z</time></trkpt>
        <trkpt lat="28.658017" lon="104.154162"><ele>621.9082</ele><time>2026-03-06T22:24:42.000Z</time></trkpt>
        <trkpt lat="28.657967" lon="104.154184"><ele>621.6665</ele><time>2026-03-06T22:24:46.000Z</time></trkpt>
        <trkpt lat="28.657917" lon="104.154209"><ele>621.4476</ele><time>2026-03-06T22:24:50.000Z</time></trkpt>
        <trkpt lat="28.65787" lon="104.15424"><ele>621.35565</ele><time>2026-03-06T22:24:54.000Z</time></trkpt>
        <trkpt lat="28.657827" lon="104.154276"><ele>621.0792</ele><time>2026-03-06T22:24:58.000Z</time></trkpt>
        <trkpt lat="28.657791" lon="104.15432"><ele>620.7014</ele><time>2026-03-06T22:25:02.000Z</time></trkpt>
        <trkpt lat="28.65775" lon="104.154358"><ele>620.61426</ele><time>2026-03-06T22:25:06.000Z</time></trkpt>
        <trkpt lat="28.6577" lon="104.154375"><ele>620.8516</ele><time>2026-03-06T22:25:10.000Z</time></trkpt>
        <trkpt lat="28.657648" lon="104.154363"><ele>620.8418</ele><time>2026-03-06T22:25:14.000Z</time></trkpt>
        <trkpt lat="28.657596" lon="104.154336"><ele>620.7352</ele><time>2026-03-06T22:25:18.000Z</time></trkpt>
        <trkpt lat="28.657541" lon="104.15431"><ele>620.04456</ele><time>2026-03-06T22:25:37.000Z</time></trkpt>
        <trkpt lat="28.657513" lon="104.1543"><ele>619.943</ele><time>2026-03-06T22:25:41.000Z</time></trkpt>
        <trkpt lat="28.657461" lon="104.154292"><ele>619.36676</ele><time>2026-03-06T22:25:45.000Z</time></trkpt>
        <trkpt lat="28.657403" lon="104.154291"><ele>619.08435</ele><time>2026-03-06T22:25:49.000Z</time></trkpt>
        <trkpt lat="28.657349" lon="104.15428"><ele>619.07404</ele><time>2026-03-06T22:25:53.000Z</time></trkpt>
        <trkpt lat="28.657298" lon="104.154267"><ele>618.7011</ele><time>2026-03-06T22:25:57.000Z</time></trkpt>
        <trkpt lat="28.657246" lon="104.154257"><ele>618.24414</ele><time>2026-03-06T22:26:01.000Z</time></trkpt>
        <trkpt lat="28.657204" lon="104.154247"><ele>618.914</ele><time>2026-03-06T22:26:04.000Z</time></trkpt>
        <trkpt lat="28.657153" lon="104.154236"><ele>618.3098</ele><time>2026-03-06T22:26:08.000Z</time></trkpt>
        <trkpt lat="28.657103" lon="104.154217"><ele>617.7781</ele><time>2026-03-06T22:26:12.000Z</time></trkpt>
        <trkpt lat="28.657057" lon="104.154185"><ele>617.3126</ele><time>2026-03-06T22:26:16.000Z</time></trkpt>
        <trkpt lat="28.657007" lon="104.154168"><ele>617.48096</ele><time>2026-03-06T22:26:20.000Z</time></trkpt>
        <trkpt lat="28.656954" lon="104.154154"><ele>617.1718</ele><time>2026-03-06T22:26:24.000Z</time></trkpt>
        <trkpt lat="28.656903" lon="104.154148"><ele>616.7799</ele><time>2026-03-06T22:26:28.000Z</time></trkpt>
        <trkpt lat="28.656855" lon="104.154144"><ele>616.646</ele><time>2026-03-06T22:26:32.000Z</time></trkpt>
        <trkpt lat="28.656793" lon="104.154146"><ele>616.89795</ele><time>2026-03-06T22:26:43.000Z</time></trkpt>
        <trkpt lat="28.656753" lon="104.154151"><ele>616.6565</ele><time>2026-03-06T22:26:47.000Z</time></trkpt>
        <trkpt lat="28.656706" lon="104.154155"><ele>616.20337</ele><time>2026-03-06T22:26:51.000Z</time></trkpt>
        <trkpt lat="28.656648" lon="104.154186"><ele>616.6008</ele><time>2026-03-06T22:27:29.000Z</time></trkpt>
        <trkpt lat="28.656622" lon="104.154186"><ele>616.1477</ele><time>2026-03-06T22:27:32.000Z</time></trkpt>
        <trkpt lat="28.656581" lon="104.15419"><ele>615.8193</ele><time>2026-03-06T22:27:35.000Z</time></trkpt>
        <trkpt lat="28.65652" lon="104.154187"><ele>615.5782</ele><time>2026-03-06T22:27:39.000Z</time></trkpt>
        <trkpt lat="28.656445" lon="104.154183"><ele>615.5271</ele><time>2026-03-06T22:27:45.000Z</time></trkpt>
        <trkpt lat="28.656391" lon="104.154175"><ele>615.5597</ele><time>2026-03-06T22:27:49.000Z</time></trkpt>
        <trkpt lat="28.656347" lon="104.154166"><ele>615.3563</ele><time>2026-03-06T22:27:52.000Z</time></trkpt>
        <trkpt lat="28.656293" lon="104.154139"><ele>615.2108</ele><time>2026-03-06T22:27:56.000Z</time></trkpt>
        <trkpt lat="28.656247" lon="104.154096"><ele>614.6627</ele><time>2026-03-06T22:28:00.000Z</time></trkpt>
        <trkpt lat="28.65622" lon="104.154052"><ele>614.1556</ele><time>2026-03-06T22:28:03.000Z</time></trkpt>
        <trkpt lat="28.656188" lon="104.153998"><ele>613.5986</ele><time>2026-03-06T22:28:07.000Z</time></trkpt>
        <trkpt lat="28.656159" lon="104.153945"><ele>612.5757</ele><time>2026-03-06T22:28:11.000Z</time></trkpt>
        <trkpt lat="28.656132" lon="104.153893"><ele>611.13513</ele><time>2026-03-06T22:28:15.000Z</time></trkpt>
        <trkpt lat="28.65609" lon="104.153865"><ele>609.7366</ele><time>2026-03-06T22:28:19.000Z</time></trkpt>
        <trkpt lat="28.656043" lon="104.153849"><ele>608.37646</ele><time>2026-03-06T22:28:23.000Z</time></trkpt>
        <trkpt lat="28.655991" lon="104.153857"><ele>607.9416</ele><time>2026-03-06T22:28:27.000Z</time></trkpt>
        <trkpt lat="28.655942" lon="104.153884"><ele>608.0554</ele><time>2026-03-06T22:28:31.000Z</time></trkpt>
        <trkpt lat="28.65589" lon="104.153911"><ele>608.1021</ele><time>2026-03-06T22:28:35.000Z</time></trkpt>
        <trkpt lat="28.655839" lon="104.153938"><ele>608.1498</ele><time>2026-03-06T22:28:39.000Z</time></trkpt>
        <trkpt lat="28.655786" lon="104.153945"><ele>608.5588</ele><time>2026-03-06T22:28:44.000Z</time></trkpt>
        <trkpt lat="28.655737" lon="104.153956"><ele>608.9057</ele><time>2026-03-06T22:28:48.000Z</time></trkpt>
        <trkpt lat="28.655684" lon="104.153964"><ele>609.0248</ele><time>2026-03-06T22:28:52.000Z</time></trkpt>
        <trkpt lat="28.655639" lon="104.153963"><ele>609.39417</ele><time>2026-03-06T22:28:55.000Z</time></trkpt>
        <trkpt lat="28.6556" lon="104.153965"><ele>609.53424</ele><time>2026-03-06T22:28:57.000Z</time></trkpt>
        <trkpt lat="28.65554" lon="104.153966"><ele>610.25055</ele><time>2026-03-06T22:29:01.000Z</time></trkpt>
        <trkpt lat="28.655489" lon="104.153957"><ele>611.2925</ele><time>2026-03-06T22:29:05.000Z</time></trkpt>
        <trkpt lat="28.655442" lon="104.153935"><ele>611.5103</ele><time>2026-03-06T22:29:09.000Z</time></trkpt>
        <trkpt lat="28.655391" lon="104.153923"><ele>611.03107</ele><time>2026-03-06T22:29:13.000Z</time></trkpt>
        <trkpt lat="28.655337" lon="104.153928"><ele>610.2858</ele><time>2026-03-06T22:29:17.000Z</time></trkpt>
        <trkpt lat="28.655284" lon="104.15392"><ele>610.26697</ele><time>2026-03-06T22:29:21.000Z</time></trkpt>
        <trkpt lat="28.655235" lon="104.153921"><ele>609.73584</ele><time>2026-03-06T22:29:25.000Z</time></trkpt>
        <trkpt lat="28.655189" lon="104.15391"><ele>608.87067</ele><time>2026-03-06T22:29:29.000Z</time></trkpt>
        <trkpt lat="28.655139" lon="104.153891"><ele>608.12103</ele><time>2026-03-06T22:29:33.000Z</time></trkpt>
        <trkpt lat="28.655089" lon="104.153871"><ele>608.0093</ele><time>2026-03-06T22:29:37.000Z</time></trkpt>
        <trkpt lat="28.655035" lon="104.153859"><ele>607.95013</ele><time>2026-03-06T22:29:41.000Z</time></trkpt>
        <trkpt lat="28.654984" lon="104.153852"><ele>607.5475</ele><time>2026-03-06T22:29:45.000Z</time></trkpt>
        <trkpt lat="28.654935" lon="104.153839"><ele>607.14325</ele><time>2026-03-06T22:29:49.000Z</time></trkpt>
        <trkpt lat="28.654888" lon="104.153818"><ele>607.0131</ele><time>2026-03-06T22:29:54.000Z</time></trkpt>
        <trkpt lat="28.654843" lon="104.153788"><ele>606.6349</ele><time>2026-03-06T22:29:58.000Z</time></trkpt>
        <trkpt lat="28.654792" lon="104.153763"><ele>606.4474</ele><time>2026-03-06T22:30:02.000Z</time></trkpt>
        <trkpt lat="28.654744" lon="104.153726"><ele>606.7289</ele><time>2026-03-06T22:30:07.000Z</time></trkpt>
        <trkpt lat="28.654706" lon="104.153697"><ele>605.72644</ele><time>2026-03-06T22:30:11.000Z</time></trkpt>
        <trkpt lat="28.654663" lon="104.153666"><ele>605.01184</ele><time>2026-03-06T22:30:15.000Z</time></trkpt>
        <trkpt lat="28.654625" lon="104.153632"><ele>604.6676</ele><time>2026-03-06T22:30:19.000Z</time></trkpt>
        <trkpt lat="28.65459" lon="104.153583"><ele>604.07544</ele><time>2026-03-06T22:30:23.000Z</time></trkpt>
        <trkpt lat="28.654555" lon="104.15354"><ele>602.49915</ele><time>2026-03-06T22:30:27.000Z</time></trkpt>
        <trkpt lat="28.654518" lon="104.153493"><ele>601.5404</ele><time>2026-03-06T22:30:31.000Z</time></trkpt>
        <trkpt lat="28.654479" lon="104.153449"><ele>600.81476</ele><time>2026-03-06T22:30:35.000Z</time></trkpt>
        <trkpt lat="28.654439" lon="104.153409"><ele>599.7719</ele><time>2026-03-06T22:30:39.000Z</time></trkpt>
        <trkpt lat="28.654402" lon="104.153367"><ele>598.88605</ele><time>2026-03-06T22:30:43.000Z</time></trkpt>
        <trkpt lat="28.654364" lon="104.153324"><ele>598.25793</ele><time>2026-03-06T22:30:47.000Z</time></trkpt>
        <trkpt lat="28.65433" lon="104.153277"><ele>597.7767</ele><time>2026-03-06T22:30:51.000Z</time></trkpt>
        <trkpt lat="28.654296" lon="104.153227"><ele>597.37317</ele><time>2026-03-06T22:30:55.000Z</time></trkpt>
        <trkpt lat="28.654259" lon="104.153185"><ele>596.96014</ele><time>2026-03-06T22:30:59.000Z</time></trkpt>
        <trkpt lat="28.654234" lon="104.153138"><ele>596.0638</ele><time>2026-03-06T22:31:03.000Z</time></trkpt>
        <trkpt lat="28.654202" lon="104.153099"><ele>595.37476</ele><time>2026-03-06T22:31:07.000Z</time></trkpt>
        <trkpt lat="28.654181" lon="104.153046"><ele>594.5296</ele><time>2026-03-06T22:31:11.000Z</time></trkpt>
        <trkpt lat="28.654159" lon="104.152994"><ele>593.69977</ele><time>2026-03-06T22:31:15.000Z</time></trkpt>
        <trkpt lat="28.654135" lon="104.152954"><ele>593.5953</ele><time>2026-03-06T22:31:18.000Z</time></trkpt>
        <trkpt lat="28.654109" lon="104.152903"><ele>593.37103</ele><time>2026-03-06T22:31:22.000Z</time></trkpt>
        <trkpt lat="28.654093" lon="104.152847"><ele>592.97845</ele><time>2026-03-06T22:31:26.000Z</time></trkpt>
        <trkpt lat="28.654082" lon="104.152786"><ele>592.53845</ele><time>2026-03-06T22:31:30.000Z</time></trkpt>
        <trkpt lat="28.654065" lon="104.152726"><ele>592.46466</ele><time>2026-03-06T22:31:34.000Z</time></trkpt>
        <trkpt lat="28.654053" lon="104.152666"><ele>592.6705</ele><time>2026-03-06T22:31:38.000Z</time></trkpt>
        <trkpt lat="28.654043" lon="104.152606"><ele>593.0609</ele><time>2026-03-06T22:31:42.000Z</time></trkpt>
        <trkpt lat="28.654036" lon="104.152544"><ele>592.5</ele><time>2026-03-06T22:31:46.000Z</time></trkpt>
        <trkpt lat="28.654032" lon="104.152481"><ele>592.18494</ele><time>2026-03-06T22:31:50.000Z</time></trkpt>
        <trkpt lat="28.654036" lon="104.15243"><ele>592.28467</ele><time>2026-03-06T22:31:53.000Z</time></trkpt>
        <trkpt lat="28.654037" lon="104.152367"><ele>592.3006</ele><time>2026-03-06T22:31:57.000Z</time></trkpt>
        <trkpt lat="28.65403" lon="104.152307"><ele>592.0228</ele><time>2026-03-06T22:32:01.000Z</time></trkpt>
        <trkpt lat="28.654019" lon="104.152243"><ele>592.5017</ele><time>2026-03-06T22:32:06.000Z</time></trkpt>
        <trkpt lat="28.654002" lon="104.152188"><ele>592.2074</ele><time>2026-03-06T22:32:10.000Z</time></trkpt>
        <trkpt lat="28.653973" lon="104.152154"><ele>592.0277</ele><time>2026-03-06T22:32:13.000Z</time></trkpt>
        <trkpt lat="28.653932" lon="104.152117"><ele>591.6592</ele><time>2026-03-06T22:32:17.000Z</time></trkpt>
        <trkpt lat="28.653892" lon="104.152093"><ele>591.4151</ele><time>2026-03-06T22:32:20.000Z</time></trkpt>
        <trkpt lat="28.653843" lon="104.152064"><ele>591.21405</ele><time>2026-03-06T22:32:24.000Z</time></trkpt>
        <trkpt lat="28.653789" lon="104.152033"><ele>590.9445</ele><time>2026-03-06T22:32:28.000Z</time></trkpt>
        <trkpt lat="28.653743" lon="104.151997"><ele>590.9793</ele><time>2026-03-06T22:32:32.000Z</time></trkpt>
        <trkpt lat="28.653699" lon="104.151957"><ele>590.951</ele><time>2026-03-06T22:32:36.000Z</time></trkpt>
        <trkpt lat="28.653664" lon="104.151912"><ele>590.8042</ele><time>2026-03-06T22:32:40.000Z</time></trkpt>
        <trkpt lat="28.653625" lon="104.151869"><ele>589.98486</ele><time>2026-03-06T22:32:44.000Z</time></trkpt>
        <trkpt lat="28.65358" lon="104.151831"><ele>589.2646</ele><time>2026-03-06T22:32:48.000Z</time></trkpt>
        <trkpt lat="28.653539" lon="104.151788"><ele>588.50635</ele><time>2026-03-06T22:32:52.000Z</time></trkpt>
        <trkpt lat="28.653504" lon="104.151739"><ele>587.65076</ele><time>2026-03-06T22:32:56.000Z</time></trkpt>
        <trkpt lat="28.653473" lon="104.151686"><ele>586.74695</ele><time>2026-03-06T22:33:00.000Z</time></trkpt>
        <trkpt lat="28.653456" lon="104.151639"><ele>586.35486</ele><time>2026-03-06T22:33:03.000Z</time></trkpt>
        <trkpt lat="28.653441" lon="104.151575"><ele>585.97833</ele><time>2026-03-06T22:33:07.000Z</time></trkpt>
        <trkpt lat="28.653438" lon="104.151508"><ele>585.14514</ele><time>2026-03-06T22:33:11.000Z</time></trkpt>
        <trkpt lat="28.653439" lon="104.151444"><ele>584.5063</ele><time>2026-03-06T22:33:15.000Z</time></trkpt>
        <trkpt lat="28.653443" lon="104.15138"><ele>583.75916</ele><time>2026-03-06T22:33:19.000Z</time></trkpt>
        <trkpt lat="28.653448" lon="104.15133"><ele>583.14685</ele><time>2026-03-06T22:33:22.000Z</time></trkpt>
        <trkpt lat="28.65346" lon="104.151264"><ele>582.3073</ele><time>2026-03-06T22:33:26.000Z</time></trkpt>
        <trkpt lat="28.653478" lon="104.151215"><ele>581.7643</ele><time>2026-03-06T22:33:29.000Z</time></trkpt>
        <trkpt lat="28.653508" lon="104.151156"><ele>581.17975</ele><time>2026-03-06T22:33:33.000Z</time></trkpt>
        <trkpt lat="28.65355" lon="104.151107"><ele>580.4219</ele><time>2026-03-06T22:33:37.000Z</time></trkpt>
        <trkpt lat="28.653592" lon="104.15106"><ele>580.0076</ele><time>2026-03-06T22:33:41.000Z</time></trkpt>
        <trkpt lat="28.653634" lon="104.151013"><ele>580.12695</ele><time>2026-03-06T22:33:45.000Z</time></trkpt>
        <trkpt lat="28.653669" lon="104.150965"><ele>580.0224</ele><time>2026-03-06T22:33:49.000Z</time></trkpt>
        <trkpt lat="28.653689" lon="104.150909"><ele>579.6621</ele><time>2026-03-06T22:33:53.000Z</time></trkpt>
        <trkpt lat="28.653696" lon="104.150852"><ele>579.4711</ele><time>2026-03-06T22:33:57.000Z</time></trkpt>
        <trkpt lat="28.653683" lon="104.150795"><ele>579.1962</ele><time>2026-03-06T22:34:01.000Z</time></trkpt>
        <trkpt lat="28.653653" lon="104.150741"><ele>578.97424</ele><time>2026-03-06T22:34:05.000Z</time></trkpt>
        <trkpt lat="28.653604" lon="104.150706"><ele>578.3403</ele><time>2026-03-06T22:34:09.000Z</time></trkpt>
        <trkpt lat="28.653551" lon="104.150684"><ele>577.4674</ele><time>2026-03-06T22:34:13.000Z</time></trkpt>
        <trkpt lat="28.653494" lon="104.150666"><ele>576.8371</ele><time>2026-03-06T22:34:17.000Z</time></trkpt>
        <trkpt lat="28.653439" lon="104.150647"><ele>576.12823</ele><time>2026-03-06T22:34:21.000Z</time></trkpt>
        <trkpt lat="28.653384" lon="104.150626"><ele>575.6206</ele><time>2026-03-06T22:34:25.000Z</time></trkpt>
        <trkpt lat="28.653334" lon="104.15061"><ele>575.1039</ele><time>2026-03-06T22:34:29.000Z</time></trkpt>
        <trkpt lat="28.653286" lon="104.150591"><ele>574.9963</ele><time>2026-03-06T22:34:33.000Z</time></trkpt>
        <trkpt lat="28.653236" lon="104.150577"><ele>575.276</ele><time>2026-03-06T22:34:37.000Z</time></trkpt>
        <trkpt lat="28.653189" lon="104.150556"><ele>575.22565</ele><time>2026-03-06T22:34:41.000Z</time></trkpt>
        <trkpt lat="28.653145" lon="104.150535"><ele>575.13416</ele><time>2026-03-06T22:34:45.000Z</time></trkpt>
        <trkpt lat="28.653098" lon="104.150518"><ele>575.2057</ele><time>2026-03-06T22:34:49.000Z</time></trkpt>
        <trkpt lat="28.653047" lon="104.150497"><ele>575.3832</ele><time>2026-03-06T22:34:53.000Z</time></trkpt>
        <trkpt lat="28.652992" lon="104.150498"><ele>575.89984</ele><time>2026-03-06T22:34:57.000Z</time></trkpt>
        <trkpt lat="28.652941" lon="104.150514"><ele>576.21625</ele><time>2026-03-06T22:35:01.000Z</time></trkpt>
        <trkpt lat="28.652897" lon="104.150545"><ele>575.95483</ele><time>2026-03-06T22:35:05.000Z</time></trkpt>
        <trkpt lat="28.652859" lon="104.15058"><ele>575.24756</ele><time>2026-03-06T22:35:09.000Z</time></trkpt>
        <trkpt lat="28.652826" lon="104.150623"><ele>574.67706</ele><time>2026-03-06T22:35:13.000Z</time></trkpt>
        <trkpt lat="28.652792" lon="104.150666"><ele>574.48376</ele><time>2026-03-06T22:35:17.000Z</time></trkpt>
        <trkpt lat="28.65276" lon="104.150709"><ele>574.791</ele><time>2026-03-06T22:35:21.000Z</time></trkpt>
        <trkpt lat="28.652725" lon="104.150748"><ele>575.6506</ele><time>2026-03-06T22:35:25.000Z</time></trkpt>
        <trkpt lat="28.65268" lon="104.150775"><ele>576.51337</ele><time>2026-03-06T22:35:29.000Z</time></trkpt>
        <trkpt lat="28.652636" lon="104.15078"><ele>577.3403</ele><time>2026-03-06T22:35:32.000Z</time></trkpt>
        <trkpt lat="28.652578" lon="104.150763"><ele>577.9296</ele><time>2026-03-06T22:35:36.000Z</time></trkpt>
        <trkpt lat="28.652538" lon="104.150714"><ele>577.4235</ele><time>2026-03-06T22:35:40.000Z</time></trkpt>
        <trkpt lat="28.652519" lon="104.150646"><ele>576.5695</ele><time>2026-03-06T22:35:44.000Z</time></trkpt>
        <trkpt lat="28.652516" lon="104.150578"><ele>575.35406</ele><time>2026-03-06T22:35:48.000Z</time></trkpt>
        <trkpt lat="28.65251" lon="104.150514"><ele>573.9768</ele><time>2026-03-06T22:35:52.000Z</time></trkpt>
        <trkpt lat="28.652484" lon="104.150465"><ele>572.07043</ele><time>2026-03-06T22:35:57.000Z</time></trkpt>
        <trkpt lat="28.652443" lon="104.150456"><ele>571.2205</ele><time>2026-03-06T22:36:01.000Z</time></trkpt>
        <trkpt lat="28.652399" lon="104.150458"><ele>571.1134</ele><time>2026-03-06T22:36:04.000Z</time></trkpt>
        <trkpt lat="28.652338" lon="104.150459"><ele>571.1282</ele><time>2026-03-06T22:36:08.000Z</time></trkpt>
        <trkpt lat="28.652289" lon="104.150468"><ele>571.4444</ele><time>2026-03-06T22:36:11.000Z</time></trkpt>
        <trkpt lat="28.652229" lon="104.150476"><ele>572.2109</ele><time>2026-03-06T22:36:15.000Z</time></trkpt>
        <trkpt lat="28.652173" lon="104.15048"><ele>572.6133</ele><time>2026-03-06T22:36:19.000Z</time></trkpt>
        <trkpt lat="28.652118" lon="104.150474"><ele>573.782</ele><time>2026-03-06T22:36:23.000Z</time></trkpt>
        <trkpt lat="28.652076" lon="104.150461"><ele>574.3788</ele><time>2026-03-06T22:36:26.000Z</time></trkpt>
        <trkpt lat="28.652033" lon="104.150458"><ele>574.6491</ele><time>2026-03-06T22:36:29.000Z</time></trkpt>
        <trkpt lat="28.651979" lon="104.150443"><ele>574.6697</ele><time>2026-03-06T22:36:33.000Z</time></trkpt>
        <trkpt lat="28.651924" lon="104.150436"><ele>575.0913</ele><time>2026-03-06T22:36:38.000Z</time></trkpt>
        <trkpt lat="28.651882" lon="104.15043"><ele>575.6834</ele><time>2026-03-06T22:36:41.000Z</time></trkpt>
        <trkpt lat="28.65184" lon="104.150415"><ele>575.3538</ele><time>2026-03-06T22:36:44.000Z</time></trkpt>
        <trkpt lat="28.651786" lon="104.150402"><ele>574.17834</ele><time>2026-03-06T22:36:48.000Z</time></trkpt>
        <trkpt lat="28.651734" lon="104.150394"><ele>573.6041</ele><time>2026-03-06T22:36:52.000Z</time></trkpt>
        <trkpt lat="28.651685" lon="104.150378"><ele>572.75323</ele><time>2026-03-06T22:36:56.000Z</time></trkpt>
        <trkpt lat="28.651637" lon="104.150366"><ele>571.23724</ele><time>2026-03-06T22:37:00.000Z</time></trkpt>
        <trkpt lat="28.651592" lon="104.150352"><ele>570.30975</ele><time>2026-03-06T22:37:04.000Z</time></trkpt>
        <trkpt lat="28.65155" lon="104.150333"><ele>569.6029</ele><time>2026-03-06T22:37:08.000Z</time></trkpt>
        <trkpt lat="28.651502" lon="104.15029"><ele>567.65985</ele><time>2026-03-06T22:37:16.000Z</time></trkpt>
        <trkpt lat="28.651542" lon="104.150266"><ele>565.04395</ele><time>2026-03-06T22:37:26.000Z</time></trkpt>
        <trkpt lat="28.651594" lon="104.15028"><ele>565.65894</ele><time>2026-03-06T22:37:59.000Z</time></trkpt>
      </trkseg>
  </trk>
</gpx>